[[{"header":{"parameterUnit":"m.s-1","parameterCategory":1,"la1":31.0,"la2":29.5877,"lo1":-88.7671,"lo2":-86.6584,"dy":0.0162,"dx":0.0185,"nx":115,"ny":88,"refTime":"2023-06-18T06:00:00:Z","depth":0,"parameterNumber":2,"parameterNumberName":"U-component_of_WINDS"},"data":[0.0,0.0,0.0,0.0,0.0,0.0,0.0,0.0,0.0,0.0,0.0,0.0,0.0,0.0,0.0,0.0,0.0,0.0,0.0,0.0,0.0,0.0,0.0,0.0,0.0,0.0,0.0,0.0,0.0,0.0,0.0,0.0,0.0,0.0,0.0,0.0,0.0,0.0,0.0,0.0,0.0,0.0,0.0,0.0,0.0,0.0,0.0,0.0,0.0,0.0,0.0,0.0,0.0,0.0,0.0,0.0,0.0,0.0,0.0,0.0,0.0,0.0,0.0,0.0,0.0,0.0,0.0,0.0,0.0,0.0,0.0,0.0,0.0,0.0,0.0,0.0,0.0,0.0,0.0,0.0,0.0,0.0,0.0,0.0,0.0,0.0,0.0,0.0,0.0,0.0,0.0,0.0,0.0,0.0,0.0,0.0,0.0,0.0,0.0,0.0,0.0,0.0,0.0,0.0,0.0,0.0,0.0,0.0,0.0,0.0,0.0,0.0,0.0,0.0,0.0,0.0,0.0,0.0,0.0,0.0,0.0,0.0,0.0,0.0,0.0,0.0,0.0,0.0,0.0,0.0,0.0,0.0,0.0,0.0,0.0,0.0,0.0,0.0,0.0,0.0,0.0,0.0,0.0,0.0,0.0,0.0,0.0,0.0,0.0,0.0,0.0,0.0,0.0,0.0,0.0,0.0,0.0,0.0,0.0,0.0,0.0,0.0,0.0,0.0,0.0,0.0,0.0,0.0,0.0,0.0,0.0,0.0,0.0,0.0,0.0,0.0,0.0,0.0,0.0,0.0,0.0,0.0,0.0,0.0,0.0,0.0,0.0,0.0,0.0,0.0,0.0,0.0,0.0,0.0,0.0,0.0,0.0,0.0,0.0,0.0,0.0,0.0,0.0,0.0,0.0,0.0,0.0,0.0,0.0,0.0,0.0,0.0,0.0,0.0,0.0,0.0,0.0,0.0,0.0,0.0,0.0,0.0,0.0,0.0,0.0,0.0,0.0,0.0,0.0,0.0,0.0,0.0,0.0,0.0,0.0,0.0,0.0,0.0,0.0,0.0,0.0,0.0,0.0,0.0,0.0,0.0,0.0,0.0,0.0,0.0,0.0,0.0,0.0,0.0,0.0,0.0,0.0,0.0,0.0,0.0,0.0,0.0,0.0,0.0,0.0,0.0,0.0,0.0,0.0,0.0,0.0,0.0,0.0,0.0,0.0,0.0,0.0,0.0,0.0,0.0,0.0,0.0,0.0,0.0,0.0,0.0,0.0,0.0,0.0,0.0,0.0,0.0,0.0,0.0,0.0,0.0,0.0,0.0,0.0,0.0,0.0,0.0,0.0,0.0,0.0,0.0,0.0,0.0,0.0,0.0,0.0,0.0,0.0,0.0,0.0,0.0,0.0,0.0,0.0,0.0,0.0,0.0,0.0,0.0,0.0,0.0,0.0,0.0,0.0,0.0,0.0,0.0,0.0,0.0,0.0,0.0,0.0,0.0,0.0,0.0,0.0,0.0,0.0,0.0,0.0,0.0,0.0,0.0,0.0,0.0,0.0,0.0,0.0,0.0,0.0,0.0,0.0,0.0,0.0,0.0,0.0,0.0,0.0,0.0,0.0,0.0,0.0,0.0,0.0,0.0,0.0,0.0,0.0,0.0,0.0,0.0,0.0,0.0,0.0,0.0,0.0,0.0,0.0,0.0,0.0,0.0,0.0,0.0,0.0,0.0,0.0,0.0,0.0,0.0,0.0,0.0,0.0,0.0,0.0,0.0,0.0,0.0,0.0,0.0,0.0,0.0,0.0,0.0,0.0,0.0,0.0,0.0,0.0,0.0,0.0,0.0,0.0,0.0,0.0,0.0,0.0,0.0,0.0,0.0,0.0,0.0,0.0,0.0,0.0,0.0,0.0,0.0,0.0,0.0,0.0,0.0,0.0,0.0,0.0,0.0,0.0,0.0,0.0,0.0,0.0,0.0,0.0,0.0,0.0,0.0,0.0,0.0,0.0,0.0,0.0,0.0,0.0,0.0,0.0,0.0,0.0,0.0,0.0,0.0,0.0,0.0,0.0,0.0,0.0,0.0,0.0,0.0,0.0,0.0,0.0,0.0,0.0,0.0,0.0,0.0,0.0,0.0,0.0,0.0,0.0,0.0,0.0,0.0,0.0,0.0,0.0,0.0,0.0,0.0,0.0,0.0,0.0,0.0,0.0,0.0,0.0,0.0,0.0,0.0,0.0,0.0,0.0,0.0,0.0,0.0,0.0,0.0,0.0,0.0,0.0,0.0,0.0,0.0,0.0,0.0,0.0,0.0,0.0,0.0,0.0,0.0,0.0,0.0,0.0,0.0,0.0,0.0,0.0,0.0,0.0,0.0,0.0,0.0,0.0,0.0,0.0,0.0,0.0,0.0,0.0,0.0,0.0,0.0,0.0,0.0,0.0,0.0,0.0,0.0,0.0,0.0,0.0,0.0,0.0,0.0,0.0,0.0,0.0,0.0,0.0,0.0,0.0,0.0,0.0,0.0,0.0,0.0,0.0,0.0,0.0,0.0,0.0,0.0,0.0,0.0,0.0,0.0,0.0,0.0,0.0,0.0,0.0,0.0,0.0,0.0,0.0,0.0,0.0,0.0,0.0,0.0,0.0,0.0,0.0,0.0,0.0,0.0,0.0,0.0,0.0,0.0,0.0,0.0,0.0,0.0,0.0,0.0,0.0,0.0,0.0,0.0,0.0,0.0,0.0,0.0,0.0,0.0,0.0,0.0,0.0,0.0,0.0,0.0,0.0,0.0,0.0,0.0,0.0,0.0,0.0,0.0,0.0,0.0,0.0,0.0,0.0,0.0,0.0,0.0,0.0,0.0,0.0,0.0,0.0,0.0,0.0,0.0,0.0,0.0,0.0,0.0,0.0,0.0,0.0,0.0,0.0,0.0,0.0,0.0,0.0,0.0,0.0,0.0,0.0,0.0,0.0,0.0,0.0,0.0,0.0,0.0,0.0,0.0,0.0,0.0,0.0,0.0,0.0,0.0,0.0,0.0,0.0,0.0,0.0,0.0,0.0,0.0,0.0,0.0,0.0,0.0,0.0,0.0,0.0,0.0,0.0,0.0,0.0,0.0,0.0,0.0,0.0,0.0,0.0,0.0,0.0,0.0,0.0,0.0,0.0,0.0,0.0,0.0,0.0,0.0,0.0,0.0,0.0,0.0,0.0,0.0,0.0,0.0,0.0,0.0,0.0,0.0,0.0,0.0,0.0,0.0,0.0,0.0,0.0,0.0,0.0,0.0,0.0,0.0,0.0,0.0,0.0,0.0,0.0,0.0,0.0,0.0,0.0,0.0,0.0,0.0,0.0,0.0,0.0,0.0,0.0,0.0,0.0,0.0,0.0,0.0,0.0,0.0,0.0,0.0,0.0,0.0,0.0,0.0,0.0,0.0,0.0,0.0,0.0,0.0,0.0,0.0,0.0,0.0,0.0,0.0,0.0,0.0,0.0,0.0,0.0,0.0,0.0,0.0,0.0,0.0,0.0,0.0,0.0,0.0,0.0,0.0,0.0,0.0,0.0,0.0,0.0,0.0,0.0,0.0,0.0,0.0,0.0,0.0,0.0,0.0,0.0,0.0,0.0,0.0,0.0,0.0,0.0,0.0,0.0,0.0,0.0,0.0,0.0,0.0,0.0,0.0,0.0,0.0,0.0,0.0,0.0,0.0,0.0,0.0,0.0,0.0,0.0,0.0,0.0,0.0,0.0,0.0,0.0,0.0,0.0,0.0,0.0,0.0,0.0,0.0,0.0,0.0,0.0,0.0,0.0,0.0,0.0,0.0,0.0,0.0,0.0,0.0,0.0,0.0,0.0,0.0,0.0,0.0,0.0,0.0,0.0,0.0,0.0,0.0,0.0,0.0,0.0,0.0,0.0,0.0,0.0,0.0,0.0,0.0,0.0,0.0,0.0,0.0,0.0,0.0,0.0,0.0,0.0,0.0,0.0,0.0,0.0,0.0,0.0,0.0,0.0,0.0,0.0,0.0,0.0,0.0,0.0,0.0,0.0,0.0,0.0,0.0,0.0,0.0,0.0,0.0,0.0,0.0,0.0,0.0,0.0,0.0,0.0,0.0,0.0,0.0,0.0,0.0,0.0,0.0,0.0,0.0,0.0,0.0,0.0,0.0,0.0,0.0,0.0,0.0,0.0,0.0,0.0,0.0,0.0,0.0,0.0,0.0,0.0,0.0,0.0,0.0,0.0,0.0,0.0,0.0,0.0,0.0,0.0,0.0,-3.024,0.0,0.0,0.0,0.0,0.0,0.0,0.0,0.0,0.0,0.0,0.0,0.0,0.0,0.0,0.0,0.0,0.0,0.0,0.0,0.0,0.0,0.0,0.0,0.0,0.0,0.0,0.0,0.0,0.0,0.0,0.0,0.0,0.0,0.0,0.0,0.0,0.0,0.0,0.0,0.0,0.0,0.0,0.0,0.0,0.0,0.0,0.0,0.0,0.0,0.0,0.0,0.0,0.0,0.0,0.0,0.0,0.0,0.0,0.0,0.0,0.0,0.0,0.0,0.0,0.0,0.0,0.0,0.0,0.0,0.0,0.0,0.0,0.0,0.0,0.0,0.0,0.0,0.0,0.0,0.0,0.0,0.0,0.0,0.0,0.0,0.0,0.0,0.0,0.0,0.0,0.0,0.0,0.0,0.0,0.0,0.0,0.0,0.0,0.0,0.0,0.0,0.0,0.0,0.0,0.0,0.0,0.0,0.0,0.0,0.0,-2.9923,-2.9834,-3.0153,-3.0285,-3.0223,0.0,0.0,0.0,0.0,0.0,0.0,0.0,0.0,0.0,0.0,0.0,0.0,0.0,0.0,0.0,0.0,0.0,0.0,0.0,0.0,0.0,0.0,0.0,0.0,0.0,0.0,0.0,0.0,0.0,0.0,0.0,0.0,0.0,0.0,0.0,0.0,0.0,0.0,0.0,0.0,0.0,0.0,0.0,0.0,0.0,0.0,0.0,0.0,0.0,0.0,0.0,0.0,0.0,0.0,0.0,0.0,0.0,0.0,0.0,0.0,0.0,0.0,0.0,0.0,0.0,0.0,0.0,0.0,0.0,0.0,0.0,0.0,0.0,0.0,0.0,0.0,0.0,0.0,0.0,0.0,0.0,0.0,0.0,0.0,0.0,0.0,0.0,0.0,0.0,0.0,0.0,0.0,0.0,0.0,0.0,0.0,0.0,0.0,0.0,0.0,0.0,0.0,0.0,0.0,0.0,0.0,0.0,0.0,0.0,0.0,0.0,0.0,-3.0475,-3.0496,-3.0449,0.0,0.0,0.0,0.0,0.0,0.0,0.0,0.0,0.0,0.0,0.0,0.0,0.0,0.0,0.0,0.0,0.0,0.0,0.0,0.0,0.0,0.0,0.0,0.0,0.0,0.0,0.0,0.0,0.0,0.0,0.0,0.0,0.0,0.0,0.0,0.0,0.0,0.0,0.0,0.0,0.0,0.0,0.0,0.0,0.0,0.0,0.0,0.0,0.0,0.0,0.0,0.0,0.0,0.0,0.0,0.0,0.0,0.0,0.0,0.0,0.0,0.0,0.0,0.0,0.0,0.0,0.0,0.0,0.0,0.0,0.0,0.0,0.0,0.0,0.0,0.0,0.0,0.0,0.0,0.0,0.0,0.0,0.0,0.0,0.0,0.0,0.0,0.0,0.0,0.0,0.0,0.0,0.0,0.0,0.0,0.0,0.0,0.0,0.0,0.0,0.0,0.0,0.0,0.0,0.0,0.0,0.0,0.0,0.0,0.0,-3.1105,-3.0938,-3.1568,0.0,-3.1648,0.0,0.0,0.0,0.0,0.0,0.0,0.0,0.0,0.0,0.0,0.0,0.0,0.0,0.0,0.0,0.0,0.0,0.0,0.0,0.0,0.0,0.0,0.0,0.0,0.0,0.0,0.0,0.0,0.0,0.0,0.0,0.0,0.0,0.0,0.0,0.0,0.0,0.0,0.0,0.0,0.0,0.0,0.0,0.0,0.0,0.0,0.0,0.0,0.0,0.0,0.0,0.0,0.0,0.0,0.0,0.0,0.0,0.0,0.0,0.0,0.0,0.0,0.0,0.0,0.0,0.0,0.0,0.0,0.0,0.0,0.0,0.0,0.0,0.0,0.0,0.0,0.0,0.0,0.0,0.0,0.0,0.0,0.0,0.0,0.0,0.0,0.0,0.0,0.0,0.0,0.0,0.0,0.0,0.0,0.0,0.0,0.0,0.0,0.0,0.0,0.0,0.0,0.0,0.0,0.0,0.0,0.0,0.0,0.0,0.0,-3.1917,-3.2103,-3.2245,-3.2246,0.0,0.0,0.0,0.0,0.0,0.0,0.0,0.0,0.0,0.0,0.0,0.0,0.0,0.0,0.0,0.0,0.0,0.0,0.0,0.0,0.0,0.0,0.0,0.0,0.0,0.0,0.0,0.0,0.0,0.0,0.0,0.0,0.0,0.0,0.0,0.0,0.0,0.0,0.0,0.0,0.0,0.0,0.0,0.0,0.0,0.0,0.0,0.0,0.0,0.0,0.0,0.0,0.0,0.0,0.0,0.0,0.0,0.0,0.0,0.0,0.0,0.0,0.0,0.0,0.0,0.0,0.0,0.0,0.0,0.0,0.0,0.0,0.0,0.0,0.0,0.0,0.0,0.0,0.0,0.0,0.0,0.0,0.0,0.0,0.0,0.0,0.0,0.0,0.0,0.0,0.0,0.0,0.0,0.0,0.0,0.0,0.0,0.0,0.0,0.0,0.0,0.0,0.0,0.0,0.0,0.0,0.0,0.0,0.0,0.0,-3.2441,-3.2678,-3.3102,-3.2841,-3.2537,-3.2273,0.0,0.0,0.0,0.0,0.0,0.0,0.0,0.0,0.0,0.0,0.0,0.0,0.0,0.0,0.0,0.0,0.0,0.0,0.0,0.0,0.0,0.0,0.0,0.0,0.0,0.0,0.0,0.0,0.0,0.0,0.0,0.0,0.0,0.0,0.0,0.0,0.0,0.0,0.0,0.0,0.0,0.0,0.0,0.0,0.0,0.0,0.0,0.0,0.0,0.0,0.0,0.0,0.0,0.0,0.0,0.0,0.0,0.0,0.0,0.0,0.0,0.0,0.0,0.0,0.0,0.0,0.0,0.0,0.0,0.0,0.0,0.0,0.0,0.0,0.0,0.0,0.0,0.0,0.0,0.0,0.0,0.0,0.0,0.0,0.0,0.0,0.0,0.0,0.0,0.0,0.0,0.0,0.0,0.0,0.0,0.0,0.0,0.0,0.0,0.0,0.0,0.0,0.0,0.0,0.0,0.0,0.0,0.0,-3.2178,-3.2804,-3.3329,-3.3638,-3.3481,-3.2913,0.0,0.0,0.0,0.0,0.0,0.0,0.0,0.0,0.0,0.0,0.0,0.0,0.0,0.0,0.0,0.0,0.0,0.0,0.0,0.0,0.0,0.0,0.0,0.0,0.0,0.0,0.0,0.0,0.0,0.0,0.0,0.0,0.0,0.0,0.0,0.0,0.0,0.0,0.0,0.0,0.0,0.0,0.0,0.0,0.0,0.0,0.0,0.0,0.0,0.0,0.0,0.0,0.0,0.0,0.0,0.0,0.0,0.0,0.0,0.0,0.0,0.0,0.0,0.0,0.0,0.0,0.0,0.0,0.0,0.0,0.0,0.0,0.0,0.0,0.0,0.0,0.0,0.0,0.0,0.0,0.0,0.0,0.0,0.0,0.0,0.0,0.0,0.0,0.0,0.0,0.0,0.0,0.0,0.0,0.0,0.0,0.0,0.0,0.0,0.0,0.0,0.0,0.0,0.0,0.0,0.0,0.0,0.0,0.0,-3.2839,-3.3813,-3.441,-3.4459,-3.4198,-3.3804,0.0,0.0,0.0,0.0,0.0,0.0,0.0,0.0,0.0,0.0,0.0,0.0,0.0,0.0,0.0,0.0,0.0,0.0,0.0,0.0,0.0,0.0,0.0,0.0,0.0,0.0,0.0,0.0,0.0,0.0,0.0,0.0,0.0,0.0,0.0,0.0,0.0,0.0,0.0,0.0,0.0,0.0,0.0,0.0,0.0,0.0,0.0,0.0,0.0,0.0,0.0,0.0,0.0,0.0,0.0,0.0,0.0,0.0,0.0,0.0,0.0,0.0,0.0,0.0,0.0,0.0,0.0,0.0,0.0,0.0,0.0,0.0,0.0,0.0,0.0,0.0,0.0,0.0,0.0,0.0,0.0,0.0,0.0,0.0,0.0,0.0,0.0,0.0,0.0,0.0,0.0,0.0,0.0,0.0,0.0,0.0,0.0,0.0,0.0,0.0,0.0,0.0,0.0,0.0,0.0,0.0,0.0,0.0,0.0,-3.4283,0.0,-3.5496,-3.56,-3.5272,-3.4723,0.0,0.0,0.0,0.0,0.0,0.0,0.0,0.0,0.0,0.0,0.0,0.0,0.0,0.0,0.0,0.0,0.0,0.0,0.0,0.0,0.0,0.0,0.0,0.0,0.0,0.0,0.0,0.0,0.0,0.0,0.0,0.0,0.0,0.0,0.0,0.0,0.0,0.0,0.0,0.0,0.0,0.0,0.0,0.0,0.0,0.0,0.0,0.0,0.0,0.0,0.0,0.0,0.0,0.0,0.0,0.0,0.0,0.0,0.0,0.0,0.0,0.0,0.0,0.0,0.0,0.0,0.0,0.0,0.0,0.0,0.0,0.0,0.0,0.0,0.0,0.0,0.0,0.0,0.0,0.0,0.0,0.0,0.0,0.0,0.0,0.0,0.0,0.0,0.0,0.0,0.0,0.0,0.0,0.0,0.0,0.0,0.0,0.0,0.0,0.0,0.0,0.0,0.0,0.0,0.0,0.0,0.0,0.0,-3.4796,-3.6475,-3.6423,-3.6659,-3.7103,-3.6818,-3.574,0.0,0.0,0.0,0.0,0.0,0.0,0.0,0.0,0.0,0.0,0.0,0.0,0.0,0.0,0.0,0.0,0.0,0.0,0.0,0.0,0.0,0.0,0.0,0.0,0.0,0.0,0.0,0.0,0.0,0.0,0.0,0.0,0.0,0.0,0.0,0.0,0.0,0.0,0.0,0.0,0.0,0.0,0.0,0.0,0.0,0.0,0.0,0.0,0.0,0.0,0.0,0.0,0.0,0.0,0.0,0.0,0.0,0.0,0.0,0.0,0.0,0.0,0.0,0.0,0.0,0.0,0.0,0.0,0.0,0.0,0.0,0.0,0.0,0.0,0.0,0.0,0.0,0.0,0.0,0.0,0.0,0.0,0.0,0.0,0.0,0.0,0.0,0.0,0.0,0.0,0.0,0.0,0.0,0.0,0.0,0.0,0.0,0.0,0.0,0.0,0.0,0.0,0.0,0.0,0.0,0.0,0.0,0.0,0.0,-3.7717,-3.8481,-3.8967,-3.9076,-3.8617,-3.7465,0.0,0.0,0.0,0.0,0.0,0.0,0.0,0.0,0.0,0.0,0.0,0.0,0.0,0.0,0.0,0.0,0.0,0.0,0.0,0.0,0.0,0.0,0.0,0.0,0.0,0.0,0.0,0.0,0.0,0.0,0.0,0.0,0.0,0.0,0.0,0.0,0.0,0.0,0.0,0.0,0.0,0.0,0.0,0.0,0.0,0.0,0.0,0.0,0.0,0.0,0.0,0.0,0.0,0.0,0.0,0.0,0.0,0.0,0.0,0.0,0.0,0.0,0.0,0.0,0.0,0.0,0.0,0.0,0.0,0.0,0.0,0.0,0.0,0.0,0.0,0.0,0.0,0.0,0.0,0.0,0.0,0.0,0.0,0.0,0.0,0.0,0.0,0.0,0.0,0.0,0.0,0.0,0.0,0.0,0.0,0.0,0.0,0.0,0.0,0.0,0.0,0.0,0.0,0.0,0.0,0.0,0.0,0.0,0.0,-4.0898,-4.1327,-4.1452,-4.1197,-4.0412,-3.9208,-3.7478,0.0,0.0,0.0,0.0,0.0,0.0,0.0,0.0,0.0,0.0,0.0,0.0,0.0,0.0,0.0,0.0,0.0,0.0,0.0,0.0,0.0,0.0,0.0,0.0,0.0,0.0,0.0,0.0,0.0,0.0,0.0,0.0,0.0,0.0,0.0,0.0,0.0,0.0,0.0,0.0,0.0,0.0,0.0,0.0,0.0,0.0,0.0,0.0,0.0,0.0,0.0,0.0,0.0,0.0,0.0,0.0,0.0,0.0,0.0,0.0,0.0,0.0,0.0,0.0,0.0,0.0,0.0,0.0,0.0,0.0,0.0,0.0,0.0,0.0,0.0,0.0,0.0,0.0,0.0,0.0,0.0,0.0,0.0,0.0,0.0,0.0,0.0,0.0,0.0,0.0,0.0,0.0,0.0,0.0,0.0,0.0,0.0,0.0,0.0,0.0,0.0,0.0,0.0,0.0,0.0,0.0,0.0,0.0,-4.5586,-4.4777,-4.4071,-4.3429,-4.2304,-4.0993,0.0,0.0,0.0,0.0,0.0,0.0,0.0,0.0,0.0,0.0,0.0,0.0,0.0,0.0,0.0,0.0,0.0,0.0,0.0,0.0,0.0,0.0,0.0,0.0,0.0,0.0,0.0,0.0,0.0,0.0,0.0,0.0,0.0,0.0,0.0,0.0,0.0,0.0,0.0,0.0,0.0,0.0,0.0,0.0,0.0,0.0,0.0,0.0,0.0,0.0,0.0,0.0,0.0,0.0,0.0,0.0,0.0,0.0,0.0,0.0,0.0,0.0,0.0,0.0,0.0,0.0,0.0,0.0,0.0,0.0,0.0,0.0,0.0,0.0,0.0,0.0,0.0,0.0,0.0,0.0,0.0,0.0,0.0,0.0,0.0,0.0,0.0,0.0,0.0,0.0,0.0,0.0,0.0,0.0,0.0,0.0,0.0,0.0,0.0,0.0,0.0,0.0,0.0,0.0,0.0,0.0,0.0,0.0,0.0,-4.7264,-4.8014,-4.7592,-4.6005,-4.5157,-4.3301,0.0,0.0,0.0,0.0,0.0,0.0,0.0,0.0,0.0,0.0,0.0,0.0,0.0,0.0,0.0,0.0,0.0,0.0,0.0,0.0,0.0,0.0,0.0,0.0,0.0,0.0,0.0,0.0,0.0,0.0,0.0,0.0,0.0,0.0,0.0,0.0,0.0,0.0,0.0,0.0,0.0,0.0,0.0,0.0,0.0,0.0,0.0,0.0,0.0,0.0,0.0,0.0,0.0,0.0,0.0,0.0,0.0,0.0,0.0,0.0,0.0,0.0,0.0,0.0,0.0,0.0,0.0,0.0,0.0,0.0,0.0,0.0,0.0,0.0,0.0,0.0,0.0,0.0,0.0,0.0,0.0,0.0,0.0,0.0,0.0,0.0,0.0,0.0,0.0,0.0,0.0,0.0,0.0,0.0,0.0,0.0,0.0,0.0,0.0,0.0,0.0,0.0,0.0,0.0,0.0,0.0,0.0,0.0,-4.6667,-4.941,-4.9905,-4.9754,-4.8929,-4.7518,-4.5544,0.0,0.0,0.0,0.0,0.0,0.0,0.0,0.0,0.0,0.0,0.0,0.0,0.0,0.0,0.0,0.0,0.0,0.0,0.0,0.0,0.0,0.0,0.0,0.0,0.0,0.0,0.0,0.0,0.0,0.0,0.0,0.0,0.0,0.0,0.0,0.0,0.0,0.0,0.0,0.0,0.0,0.0,0.0,0.0,0.0,0.0,0.0,0.0,0.0,0.0,0.0,0.0,0.0,0.0,0.0,0.0,0.0,0.0,0.0,0.0,0.0,0.0,0.0,0.0,0.0,0.0,0.0,0.0,0.0,0.0,0.0,0.0,0.0,0.0,0.0,0.0,0.0,0.0,0.0,0.0,0.0,0.0,0.0,0.0,0.0,0.0,0.0,0.0,0.0,0.0,0.0,0.0,0.0,0.0,0.0,0.0,0.0,0.0,0.0,0.0,0.0,0.0,0.0,0.0,0.0,0.0,0.0,0.0,-4.7339,-5.149,-5.1024,-5.1067,-5.1691,-4.9501,-4.7518,0.0,0.0,0.0,0.0,0.0,0.0,0.0,0.0,0.0,0.0,0.0,0.0,0.0,0.0,0.0,0.0,0.0,0.0,0.0,0.0,0.0,0.0,0.0,0.0,0.0,0.0,0.0,0.0,0.0,0.0,0.0,0.0,0.0,0.0,0.0,0.0,0.0,0.0,0.0,0.0,0.0,0.0,0.0,0.0,0.0,0.0,0.0,0.0,0.0,0.0,0.0,0.0,0.0,0.0,0.0,0.0,0.0,0.0,0.0,0.0,0.0,0.0,0.0,0.0,0.0,0.0,0.0,0.0,0.0,0.0,0.0,0.0,0.0,0.0,0.0,0.0,0.0,0.0,0.0,0.0,0.0,0.0,0.0,0.0,0.0,0.0,0.0,0.0,0.0,0.0,0.0,0.0,0.0,0.0,0.0,0.0,0.0,0.0,0.0,0.0,0.0,0.0,0.0,0.0,0.0,0.0,0.0,0.0,-4.9758,-5.2252,-5.2292,-5.2329,-5.2545,-5.1078,-4.8751,0.0,0.0,0.0,0.0,0.0,0.0,0.0,0.0,0.0,0.0,0.0,0.0,0.0,0.0,0.0,0.0,0.0,0.0,0.0,0.0,0.0,0.0,0.0,0.0,0.0,0.0,0.0,0.0,0.0,0.0,0.0,0.0,0.0,0.0,0.0,0.0,0.0,0.0,0.0,0.0,0.0,0.0,0.0,0.0,0.0,0.0,0.0,0.0,-3.3129,0.0,0.0,0.0,0.0,0.0,0.0,0.0,0.0,0.0,0.0,0.0,0.0,0.0,0.0,0.0,0.0,0.0,0.0,0.0,0.0,0.0,0.0,0.0,0.0,0.0,0.0,0.0,0.0,0.0,0.0,0.0,0.0,0.0,0.0,0.0,0.0,0.0,0.0,0.0,0.0,0.0,0.0,0.0,0.0,0.0,0.0,0.0,0.0,0.0,0.0,0.0,0.0,0.0,0.0,0.0,0.0,0.0,0.0,0.0,-5.0969,-5.2874,-5.2916,-5.2832,-5.2807,-5.153,-4.9325,0.0,0.0,0.0,0.0,0.0,0.0,0.0,0.0,0.0,0.0,0.0,0.0,0.0,0.0,0.0,0.0,0.0,0.0,0.0,0.0,0.0,0.0,0.0,0.0,0.0,0.0,0.0,0.0,0.0,0.0,0.0,0.0,0.0,0.0,0.0,0.0,0.0,0.0,0.0,0.0,0.0,0.0,0.0,0.0,0.0,0.0,0.0,0.0,0.0,0.0,0.0,0.0,0.0,0.0,0.0,0.0,0.0,0.0,0.0,0.0,0.0,0.0,0.0,0.0,0.0,0.0,0.0,0.0,0.0,0.0,0.0,0.0,0.0,0.0,0.0,0.0,0.0,0.0,0.0,0.0,0.0,0.0,0.0,0.0,0.0,0.0,0.0,0.0,0.0,0.0,0.0,0.0,0.0,0.0,0.0,0.0,0.0,0.0,0.0,0.0,0.0,0.0,0.0,0.0,0.0,0.0,0.0,-4.9591,-5.1841,-5.3344,-5.3199,-5.3004,-5.28,-5.1295,-4.9316,-4.6821,0.0,0.0,0.0,0.0,0.0,0.0,0.0,0.0,0.0,0.0,0.0,0.0,0.0,0.0,0.0,0.0,0.0,0.0,0.0,0.0,0.0,0.0,0.0,0.0,0.0,0.0,0.0,0.0,0.0,0.0,0.0,0.0,0.0,0.0,0.0,0.0,0.0,0.0,-3.2335,-3.2798,0.0,0.0,0.0,0.0,0.0,0.0,0.0,0.0,-3.5754,0.0,0.0,0.0,0.0,0.0,0.0,0.0,0.0,0.0,0.0,0.0,0.0,0.0,0.0,0.0,0.0,0.0,0.0,0.0,0.0,0.0,0.0,0.0,0.0,0.0,0.0,0.0,0.0,0.0,0.0,0.0,0.0,0.0,0.0,0.0,0.0,0.0,0.0,0.0,0.0,0.0,0.0,0.0,0.0,0.0,0.0,0.0,0.0,0.0,0.0,0.0,0.0,0.0,0.0,0.0,0.0,-4.8471,-5.1617,-5.3422,-5.3619,-5.3425,-5.3044,-5.2414,-5.0574,-4.8339,-4.5682,0.0,0.0,0.0,0.0,0.0,0.0,0.0,0.0,0.0,0.0,0.0,0.0,0.0,0.0,0.0,0.0,0.0,0.0,0.0,0.0,0.0,0.0,0.0,0.0,0.0,0.0,0.0,0.0,0.0,0.0,0.0,0.0,0.0,0.0,0.0,0.0,0.0,0.0,0.0,-3.4554,-3.5062,0.0,0.0,0.0,0.0,0.0,0.0,0.0,0.0,-3.7625,0.0,0.0,0.0,0.0,0.0,0.0,0.0,0.0,0.0,0.0,0.0,0.0,0.0,0.0,0.0,0.0,0.0,0.0,0.0,0.0,0.0,0.0,0.0,0.0,0.0,0.0,0.0,0.0,0.0,0.0,0.0,0.0,0.0,0.0,0.0,0.0,0.0,0.0,0.0,0.0,0.0,0.0,0.0,0.0,0.0,0.0,0.0,0.0,0.0,0.0,0.0,0.0,0.0,0.0,0.0,-4.8391,-5.1856,-5.3643,-5.3619,-5.3821,-5.3415,-5.2286,-5.0448,-4.804,0.0,0.0,0.0,0.0,0.0,0.0,0.0,0.0,0.0,0.0,0.0,0.0,0.0,0.0,0.0,0.0,0.0,0.0,0.0,0.0,0.0,0.0,0.0,0.0,0.0,0.0,0.0,0.0,0.0,0.0,0.0,0.0,0.0,0.0,0.0,0.0,0.0,0.0,0.0,0.0,-3.5235,-3.5825,-3.6114,0.0,0.0,0.0,0.0,0.0,0.0,-3.9005,-3.9287,0.0,0.0,0.0,0.0,0.0,0.0,0.0,0.0,0.0,0.0,0.0,0.0,0.0,0.0,0.0,0.0,0.0,0.0,0.0,0.0,0.0,0.0,0.0,0.0,0.0,0.0,0.0,0.0,0.0,0.0,0.0,0.0,0.0,0.0,0.0,0.0,0.0,0.0,0.0,0.0,0.0,0.0,0.0,0.0,0.0,0.0,0.0,0.0,0.0,0.0,0.0,0.0,0.0,0.0,0.0,-4.8327,-5.1958,-5.3722,-5.3551,-5.3914,-5.346,-5.2011,-5.0454,-4.7915,0.0,0.0,0.0,0.0,0.0,0.0,0.0,0.0,0.0,0.0,0.0,0.0,0.0,0.0,0.0,0.0,0.0,0.0,0.0,0.0,0.0,0.0,0.0,0.0,0.0,0.0,0.0,0.0,0.0,0.0,0.0,0.0,0.0,0.0,0.0,0.0,0.0,0.0,0.0,0.0,0.0,-3.6416,-3.6859,-3.6735,0.0,0.0,0.0,0.0,-3.9295,-4.0009,0.0,0.0,0.0,0.0,0.0,0.0,0.0,0.0,0.0,0.0,0.0,0.0,0.0,0.0,0.0,0.0,0.0,0.0,0.0,0.0,0.0,0.0,0.0,0.0,0.0,0.0,0.0,0.0,0.0,0.0,0.0,0.0,0.0,0.0,0.0,0.0,0.0,0.0,0.0,0.0,0.0,0.0,0.0,0.0,0.0,0.0,0.0,0.0,0.0,0.0,0.0,0.0,0.0,0.0,0.0,0.0,-5.0005,-5.3092,-5.433,-5.363,-5.3432,-5.272,-5.1447,-5.0268,-4.7794,0.0,0.0,0.0,0.0,0.0,0.0,0.0,0.0,0.0,0.0,0.0,0.0,0.0,0.0,0.0,0.0,0.0,0.0,0.0,0.0,0.0,0.0,0.0,0.0,0.0,0.0,0.0,0.0,0.0,0.0,0.0,0.0,0.0,0.0,0.0,0.0,0.0,0.0,0.0,0.0,0.0,-3.7642,-3.8939,-3.8724,-3.8707,0.0,0.0,-3.9061,-4.0106,-3.9884,0.0,0.0,0.0,0.0,0.0,0.0,0.0,0.0,0.0,0.0,0.0,0.0,0.0,0.0,0.0,0.0,0.0,0.0,0.0,0.0,0.0,0.0,0.0,0.0,0.0,0.0,0.0,0.0,0.0,0.0,0.0,0.0,0.0,0.0,0.0,0.0,0.0,0.0,0.0,0.0,0.0,0.0,0.0,0.0,0.0,0.0,0.0,0.0,0.0,0.0,0.0,0.0,0.0,0.0,0.0,-4.6684,-4.9826,-5.2326,-5.3665,-5.3765,-5.3842,-5.3213,-5.1727,-5.0561,-4.8286,0.0,0.0,0.0,0.0,0.0,0.0,0.0,0.0,0.0,0.0,0.0,0.0,0.0,0.0,0.0,0.0,0.0,0.0,0.0,0.0,0.0,0.0,0.0,0.0,0.0,0.0,0.0,0.0,0.0,0.0,0.0,0.0,0.0,0.0,0.0,0.0,0.0,0.0,0.0,0.0,0.0,0.0,-3.8912,-3.9013,0.0,0.0,0.0,-3.9697,-4.0703,0.0,0.0,0.0,0.0,0.0,0.0,0.0,0.0,0.0,0.0,0.0,0.0,0.0,0.0,0.0,0.0,0.0,0.0,0.0,0.0,0.0,0.0,0.0,0.0,0.0,0.0,0.0,0.0,0.0,0.0,0.0,0.0,0.0,0.0,0.0,0.0,0.0,0.0,0.0,0.0,0.0,0.0,0.0,0.0,0.0,0.0,0.0,0.0,0.0,0.0,0.0,0.0,0.0,0.0,0.0,0.0,0.0,-4.9404,-5.155,-5.2928,-5.3556,-5.3872,-5.3338,-5.177,-5.0537,0.0,0.0,0.0,0.0,0.0,0.0,0.0,0.0,0.0,0.0,0.0,0.0,0.0,0.0,0.0,0.0,0.0,0.0,0.0,0.0,0.0,0.0,0.0,0.0,0.0,0.0,0.0,-3.049,0.0,0.0,0.0,0.0,0.0,0.0,0.0,0.0,0.0,0.0,0.0,0.0,0.0,0.0,-3.7552,-3.8741,-3.9075,-3.9382,0.0,0.0,-3.9797,-4.0421,-3.9681,-3.8596,0.0,0.0,0.0,0.0,0.0,0.0,0.0,0.0,0.0,0.0,0.0,0.0,0.0,0.0,0.0,0.0,0.0,0.0,0.0,0.0,0.0,0.0,0.0,0.0,0.0,0.0,0.0,0.0,0.0,0.0,0.0,0.0,0.0,0.0,0.0,0.0,0.0,0.0,0.0,0.0,0.0,0.0,0.0,0.0,0.0,0.0,0.0,0.0,0.0,0.0,0.0,0.0,0.0,0.0,0.0,-4.9335,-5.1335,-5.2445,-5.267,-5.2959,-5.2418,-5.1015,-4.9689,-4.7555,0.0,0.0,0.0,0.0,0.0,0.0,0.0,0.0,0.0,0.0,0.0,0.0,0.0,0.0,0.0,0.0,0.0,0.0,0.0,0.0,0.0,0.0,0.0,0.0,0.0,0.0,0.0,0.0,0.0,0.0,0.0,0.0,0.0,0.0,0.0,0.0,0.0,0.0,0.0,0.0,0.0,-3.7397,-3.9064,-3.9464,-3.9568,0.0,0.0,-3.9166,-3.8729,-3.7638,-3.6319,-3.4883,0.0,0.0,0.0,0.0,0.0,0.0,0.0,0.0,0.0,0.0,0.0,0.0,0.0,0.0,0.0,0.0,0.0,0.0,0.0,0.0,0.0,0.0,0.0,0.0,0.0,0.0,0.0,0.0,0.0,0.0,0.0,0.0,0.0,0.0,0.0,0.0,0.0,0.0,0.0,0.0,0.0,0.0,0.0,0.0,0.0,0.0,0.0,0.0,0.0,0.0,0.0,0.0,0.0,-4.5585,-4.9062,-5.0683,-5.1721,-5.2161,-5.2244,-5.1789,-5.0594,-4.9351,-4.7385,0.0,0.0,0.0,0.0,0.0,0.0,0.0,0.0,0.0,0.0,0.0,0.0,0.0,0.0,0.0,0.0,0.0,0.0,0.0,0.0,0.0,0.0,0.0,0.0,0.0,0.0,0.0,0.0,-3.0344,-3.0145,-2.9464,0.0,0.0,0.0,0.0,0.0,0.0,0.0,0.0,0.0,0.0,-3.6293,-3.773,-3.8115,0.0,0.0,-3.8188,-3.7727,-3.7881,-3.6109,-3.4434,-3.3515,-3.1761,0.0,0.0,0.0,0.0,0.0,0.0,0.0,0.0,0.0,0.0,0.0,0.0,0.0,0.0,0.0,0.0,0.0,0.0,0.0,0.0,0.0,0.0,0.0,0.0,0.0,0.0,0.0,0.0,0.0,0.0,0.0,0.0,0.0,0.0,0.0,0.0,0.0,0.0,0.0,0.0,0.0,0.0,0.0,0.0,0.0,0.0,0.0,0.0,0.0,0.0,0.0,0.0,-4.5162,-4.8604,-4.9916,-5.1053,-5.1983,-5.1663,-5.1118,-5.0455,-4.9015,-4.7171,0.0,0.0,0.0,0.0,0.0,0.0,0.0,0.0,0.0,0.0,0.0,0.0,0.0,0.0,0.0,0.0,0.0,0.0,0.0,0.0,0.0,0.0,0.0,0.0,0.0,0.0,0.0,0.0,-2.9125,-2.8866,-2.8357,0.0,0.0,0.0,0.0,0.0,0.0,0.0,0.0,0.0,0.0,-3.5031,-3.6438,-3.6777,-3.6998,-3.7428,-3.6723,-3.62,-3.6431,-3.4539,-3.2712,-3.1845,0.0,0.0,0.0,0.0,0.0,0.0,0.0,0.0,0.0,0.0,0.0,0.0,0.0,0.0,0.0,0.0,0.0,0.0,0.0,0.0,0.0,0.0,0.0,0.0,0.0,0.0,0.0,0.0,0.0,0.0,0.0,0.0,0.0,0.0,0.0,0.0,0.0,0.0,0.0,0.0,0.0,0.0,0.0,0.0,0.0,0.0,0.0,0.0,0.0,0.0,0.0,0.0,0.0,-4.4911,-4.7934,-4.9125,-5.0486,-5.2067,-5.1024,-5.0466,-5.0511,-4.8694,-4.6756,-4.4933,0.0,0.0,0.0,0.0,0.0,0.0,0.0,0.0,0.0,0.0,0.0,0.0,0.0,0.0,0.0,0.0,0.0,0.0,0.0,0.0,0.0,0.0,0.0,0.0,0.0,0.0,-2.7762,-2.7394,-2.7195,0.0,0.0,0.0,0.0,0.0,0.0,0.0,0.0,0.0,0.0,-3.2575,-3.3831,-3.5351,-3.5619,-3.5619,-3.5644,-3.5187,-3.4653,-3.4162,-3.2723,-3.1103,0.0,0.0,0.0,0.0,0.0,0.0,0.0,0.0,0.0,0.0,0.0,0.0,0.0,0.0,0.0,0.0,0.0,0.0,0.0,0.0,0.0,0.0,0.0,0.0,0.0,0.0,0.0,-4.2241,-4.2046,0.0,0.0,0.0,0.0,0.0,0.0,0.0,0.0,0.0,0.0,0.0,-4.1882,-4.1827,0.0,0.0,0.0,0.0,0.0,0.0,0.0,0.0,0.0,0.0,0.0,0.0,-4.4726,-4.773,-4.8716,-4.9796,-5.1082,-5.0739,-5.0246,-4.9541,-4.8291,-4.5946,-4.2312,0.0,0.0,0.0,0.0,0.0,0.0,0.0,0.0,0.0,0.0,0.0,0.0,0.0,0.0,0.0,0.0,0.0,0.0,0.0,0.0,0.0,0.0,0.0,0.0,0.0,-2.5187,0.0,0.0,0.0,0.0,0.0,0.0,0.0,0.0,0.0,0.0,0.0,-2.919,-3.0776,-3.1796,-3.2686,-3.3357,-3.377,-3.3869,0.0,0.0,0.0,0.0,0.0,0.0,0.0,0.0,0.0,0.0,0.0,0.0,0.0,0.0,-2.604,-2.4628,-2.5009,-2.5567,-2.5579,0.0,0.0,0.0,0.0,0.0,0.0,0.0,0.0,0.0,0.0,0.0,0.0,0.0,0.0,0.0,0.0,-4.2998,0.0,0.0,0.0,0.0,0.0,0.0,0.0,0.0,-4.3137,-4.3539,-4.3539,-4.3539,-4.3075,0.0,-4.2283,-4.0978,0.0,0.0,0.0,0.0,0.0,0.0,0.0,0.0,-4.5288,-4.7628,-4.8643,-4.9743,-5.0888,-5.0544,-5.0035,-4.9366,-4.7414,-4.4773,-4.1436,-3.8484,-3.6325,0.0,0.0,0.0,0.0,0.0,0.0,0.0,0.0,0.0,0.0,0.0,0.0,0.0,0.0,0.0,0.0,0.0,0.0,0.0,0.0,0.0,0.0,0.0,-2.3178,0.0,0.0,0.0,0.0,0.0,0.0,0.0,0.0,0.0,-2.6606,-2.7408,-2.8476,-3.0101,-3.0888,-3.1512,-3.205,0.0,0.0,0.0,0.0,0.0,0.0,0.0,-2.8634,-2.7921,-2.6867,-2.6271,-2.6844,-2.7589,-2.8254,-2.8544,0.0,0.0,-2.5938,-2.6249,-2.6805,-2.6888,-2.7723,-2.845,-2.8721,-2.9216,-2.9873,0.0,0.0,0.0,0.0,0.0,0.0,0.0,0.0,-4.5007,-4.5329,0.0,-4.4403,0.0,0.0,0.0,0.0,0.0,0.0,0.0,0.0,-4.4493,-4.4719,-4.4744,-4.4744,-4.4719,-4.4669,-4.4485,-4.4097,-4.3415,-4.0746,0.0,0.0,0.0,0.0,0.0,0.0,-4.647,-4.7593,-4.8902,-5.0208,-5.1483,-5.0512,-4.9908,-4.9771,-4.6016,-4.338,-4.2134,-3.9285,-3.7298,-3.6383,-3.4349,0.0,0.0,0.0,0.0,0.0,0.0,0.0,0.0,0.0,0.0,0.0,0.0,0.0,0.0,0.0,0.0,0.0,0.0,0.0,0.0,-2.1925,0.0,0.0,0.0,0.0,0.0,0.0,0.0,0.0,0.0,0.0,-2.6335,-2.648,-2.7244,-2.9358,0.0,0.0,0.0,0.0,-3.162,-3.1761,-3.137,-3.0897,-3.0454,-2.9658,-2.8867,-2.8086,0.0,0.0,-2.8678,-2.9183,-2.9531,-2.9895,-3.0447,-3.0343,-2.8769,-2.8217,-2.8126,-2.8767,-2.9301,-2.9653,-3.0247,-3.0795,-3.1295,-4.4263,0.0,0.0,0.0,0.0,-4.4584,-4.5329,-4.5983,-4.6543,-4.6894,-4.7083,-4.6353,0.0,0.0,0.0,0.0,0.0,0.0,-4.5648,-4.62,-4.6728,-4.6954,-4.6979,-4.6954,-4.6874,-4.6737,-4.6265,-4.6025,-4.5845,-4.4694,-4.3387,-4.2149,0.0,0.0,0.0,0.0,-4.7131,-4.8702,-4.9164,-4.994,-5.1003,-5.0713,-4.9848,-4.8491,-4.5502,-4.3284,-4.1926,-4.0082,-3.8241,-3.6479,-3.5417,0.0,0.0,0.0,0.0,0.0,0.0,0.0,0.0,0.0,0.0,0.0,0.0,0.0,0.0,0.0,0.0,0.0,0.0,0.0,-1.9275,-2.0174,-2.078,0.0,0.0,0.0,0.0,0.0,0.0,0.0,0.0,0.0,-2.6679,-2.7059,-2.7566,0.0,0.0,-2.99,-3.0281,-3.0842,-3.1201,-3.1179,0.0,0.0,0.0,-3.0372,-2.9582,-2.8913,-2.8994,-2.9355,-2.9784,-3.0966,-3.1985,-3.2302,-3.2744,-3.3047,-3.3269,-3.2007,-3.1073,-3.1229,-3.1905,-3.2544,-3.2799,-3.326,-3.3828,-4.7421,-4.6052,-4.4866,-4.4788,-4.5465,-4.5915,-4.6513,-4.7189,-4.7673,-4.807,-4.8311,-4.8016,-4.7701,-4.7367,-4.6907,0.0,0.0,0.0,-4.7521,-4.785,-4.8154,-4.8306,-4.8368,-4.8306,-4.8252,-4.8166,-4.7956,-4.7863,-4.7859,-4.7911,-4.7256,-4.5929,0.0,0.0,-4.6781,-4.7472,-4.8431,-4.9601,-4.9817,-5.0233,-5.0778,-5.0152,-4.9036,-4.7314,-4.4991,-4.3067,-4.1704,-4.017,-3.8407,-3.6502,-3.5673,-3.4628,0.0,0.0,0.0,0.0,0.0,0.0,0.0,0.0,0.0,0.0,0.0,-2.9009,-2.7729,0.0,0.0,0.0,-2.2685,-2.028,-1.8687,-1.9643,0.0,0.0,0.0,0.0,0.0,0.0,0.0,-2.421,-2.5182,-2.6224,-2.7321,-2.8026,-2.8559,-2.8933,-2.9654,-3.0186,-3.0418,0.0,-3.1491,-3.1482,-3.1686,-3.1845,-3.1643,-3.1433,-3.1208,-3.1246,-3.1633,-3.2113,-3.2421,-3.3475,-3.4266,-3.475,-3.5066,-3.5479,-3.6237,-3.5447,-3.4588,-3.4004,-3.4594,-3.5145,-3.5145,-3.5741,-3.6276,-5.0453,-4.998,-4.7324,-4.6759,-4.7568,-4.7406,-4.773,-4.8435,-4.8671,-4.8953,-4.9254,-4.9408,-4.9487,-4.9524,-4.9286,0.0,0.0,-4.9266,-4.923,-4.9292,-4.9292,-4.923,-4.9292,-4.9204,-4.9215,-4.924,-4.9393,-4.9524,-4.9559,-5.0439,-5.0768,-5.0524,-4.8815,-4.8238,-4.8736,-4.9579,-5.0096,-5.0299,-5.0639,-5.0834,-5.0729,-4.9063,-4.7643,-4.6503,-4.4474,-4.2772,-4.1383,-3.9721,-3.8011,-3.6408,-3.53,-3.4218,-3.312,0.0,0.0,0.0,0.0,0.0,0.0,0.0,0.0,0.0,0.0,0.0,0.0,0.0,0.0,0.0,-2.1486,0.0,-1.9837,-2.0185,0.0,0.0,0.0,-2.2662,-2.3696,-2.4468,-2.5145,-2.5667,0.0,0.0,0.0,0.0,-3.0119,-3.0737,-3.0913,-3.1093,-3.1526,-3.1899,-3.2256,-3.2601,-3.2682,-3.2773,-3.2813,-3.3155,-3.3691,-3.4375,-3.5125,-3.5565,-3.5888,-3.62,-3.6645,-3.7123,-3.7396,-3.7637,-3.7916,-3.8373,-3.8559,-3.7132,-3.7193,-3.7539,-3.7665,-3.817,-3.8694,-5.2365,-5.1991,-5.0787,-4.9978,-4.944,-4.9818,-5.0089,-5.0251,-5.0327,-5.0415,-5.0457,-4.9996,-5.0002,-5.048,-5.1027,-5.1315,-5.1315,-5.1409,-5.1485,-5.155,-5.1485,-5.155,-5.146,-5.1139,-5.1061,-5.1238,-5.0473,-5.0182,-5.0489,-5.077,-5.1195,-5.1707,-5.1383,-5.0933,-5.061,-5.1218,-5.1489,-5.1332,-5.1197,-5.0869,-5.0158,-4.8041,-4.681,-4.6473,-4.3899,-4.207,-4.106,-3.9585,-3.7849,-3.5868,-3.5128,-3.3899,-3.2094,-3.1555,0.0,0.0,0.0,0.0,0.0,0.0,0.0,0.0,0.0,-2.7713,-2.632,0.0,-2.4775,0.0,-2.2484,-2.1386,-2.0887,-2.1604,0.0,0.0,-2.3419,-2.4468,-2.4765,-2.5951,-2.6819,-2.697,-2.8087,-2.9336,-3.0484,-3.1552,-3.2554,-3.3464,-3.2406,-3.1902,-3.2825,-3.3283,-3.3775,-3.4449,-3.4933,-3.5291,-3.5542,-3.6017,-3.6515,-3.6978,-3.7403,-3.7763,-3.808,-3.8622,-3.9007,-3.902,-3.9228,-3.9482,-3.9567,-4.0117,-4.055,-4.0574,-4.0217,-3.9974,-4.0318,-4.0894,-4.1315,-5.41,-5.389,-5.3565,-5.3022,-5.2371,-5.1638,-5.1312,-5.1336,-5.1582,-5.1656,-5.1622,-5.154,-5.1648,-5.1988,-5.2424,-5.262,-5.2646,-5.2764,-5.2763,-5.2763,-5.2763,-5.2828,-5.2763,-5.2453,-5.2453,-5.2594,-5.197,-5.1747,-5.1999,-5.2094,-5.2527,-5.319,-5.3206,-5.3048,-5.2659,-5.2487,-5.2228,-5.192,-5.115,-5.0243,-4.9217,-4.7472,-4.6117,-4.5325,-4.3275,-4.1509,-4.0011,-3.899,-3.7523,-3.5468,-3.4434,-3.3041,-3.1257,-3.0253,-2.9111,0.0,0.0,0.0,0.0,0.0,0.0,0.0,0.0,0.0,0.0,0.0,-2.5333,0.0,-2.4668,0.0,-2.3051,-2.3838,-2.4373,-2.4429,-2.573,-2.6796,-2.7262,-2.8529,-2.9428,-2.9699,-3.0665,-3.1778,-3.2875,-3.3551,-3.4412,-3.5607,-3.5002,-3.4429,-3.444,-3.5013,-3.5682,-3.6174,-3.6838,-3.7459,-3.7909,-3.8441,-3.8955,-3.9342,-3.9809,-4.0189,-4.0356,-4.0763,-4.0961,-4.0638,-4.0841,-4.107,-4.0888,-4.1407,-4.2073,-4.2691,-4.2909,-4.2639,-4.2293,-4.2735,-4.3128,-5.5762,-5.5735,-5.56,-5.5518,-5.5355,-5.3212,-5.223,-5.2252,-5.2673,-5.2758,-5.2749,-5.329,-5.3504,-5.3504,-5.3583,-5.3609,-5.3609,-5.3609,-5.3609,-5.3609,-5.3609,-5.3609,-5.3609,-5.3556,-5.3504,-5.3504,-5.3426,-5.34,-5.34,-5.367,-5.4017,-5.4389,-5.4432,-5.4474,-5.4556,-5.3402,-5.2586,-5.2154,-5.0701,-4.9377,-4.8335,-4.6986,-4.5618,-4.4061,-4.263,-4.0983,-3.8912,-3.8115,-3.6835,-3.4976,-3.3463,-3.1986,-3.0558,-2.8913,-2.7616,0.0,-2.5906,0.0,0.0,0.0,0.0,0.0,0.0,0.0,0.0,-2.7204,-2.6427,-2.5916,-2.7529,-2.7846,-2.6027,-2.6703,-2.7337,-2.77,-2.8626,-2.9619,-3.0527,-3.1545,-3.2474,-3.3026,-3.3752,-3.4539,-3.5392,-3.5591,-3.6183,-3.7295,-3.7865,-3.7515,-3.6529,-3.7046,-3.7692,-3.7758,-3.8671,-3.9459,-3.9939,-4.0494,-4.1095,-4.1565,-4.2034,-4.2546,-4.254,-4.2716,-4.2701,-4.2242,-4.234,-4.2418,-4.1973,-4.2569,-4.3457,-4.4195,-4.4953,-4.5169,-4.422,-4.4274,-4.4586,-5.7581,-5.7472,-5.6522,-5.6142,-5.6061,-5.5138,-5.4546,-5.4297,-5.4136,-5.3763,-5.3305,-5.3831,-5.4053,-5.4079,-5.455,-5.4785,-5.4785,-5.4785,-5.4785,-5.4785,-5.4785,-5.4785,-5.4759,-5.4288,-5.4053,-5.4027,-5.3609,-5.34,-5.34,-5.367,-5.4073,-5.4652,-5.4389,-5.4537,-5.4985,0.0,0.0,0.0,-5.0318,-4.9323,-4.8826,-4.656,-4.5113,-4.4526,-4.1948,0.0,-3.9117,-3.7269,-3.5518,-3.4109,-3.2806,0.0,0.0,0.0,0.0,0.0,0.0,0.0,0.0,0.0,0.0,0.0,-3.1743,-3.1298,-2.9766,-2.7976,-2.7511,-2.8917,-3.1408,-3.2126,-3.0199,-3.0645,-3.1074,-3.1211,-3.2293,-3.3128,-3.3368,-3.4334,-3.5142,-3.5542,-3.6389,-3.7169,-3.7841,-3.8336,-3.8785,-3.926,-3.9662,-3.9701,-3.9437,-3.9366,-3.9578,-3.998,-4.0747,-4.147,-4.2092,-4.2471,-4.2809,-4.3302,-4.3615,-4.3989,-4.4213,-4.435,-4.4329,-4.3952,-4.388,-4.3689,-4.3397,-4.4091,-4.4807,-4.5279,-4.6127,-4.673,-4.6272,-4.6366,-4.6662,-5.8802,0.0,-5.7879,-5.7635,0.0,-5.6763,-5.6262,-5.5885,-5.513,-5.4599,-5.4262,-5.4524,-5.4785,-5.5046,-5.536,-5.5674,-5.5935,-5.5647,-5.5491,-5.5491,-5.5229,-5.5099,-5.5099,-5.4785,-5.4654,-5.4628,-5.4367,-5.4236,-5.4236,-5.4341,-5.4669,-5.5155,-5.4705,-5.4766,-5.5161,-5.4182,-5.2917,-5.1549,-5.034,-4.9322,-4.8532,-4.6798,-4.5372,-4.4211,0.0,0.0,0.0,0.0,0.0,0.0,0.0,0.0,0.0,0.0,0.0,-2.7712,-2.7701,-2.8074,-2.8744,-2.9941,-3.1289,-3.293,-3.432,-3.4031,-3.142,-3.0214,-3.0689,-3.3156,-3.5597,-3.6002,-3.3738,-3.425,-3.4903,-3.5113,-3.6029,-3.6665,-3.6985,-3.7648,-3.8105,-3.8331,-3.8853,-3.9327,-3.9482,-4.0021,-4.0494,-4.0869,-4.1238,-4.1438,-4.1438,-4.1191,-4.1256,-4.2155,-4.2604,-4.3131,-4.3575,-4.3844,-4.404,-4.4309,-4.4656,-4.4963,-4.5245,-4.5428,-4.5473,-4.5251,-4.5196,-4.516,-4.4795,-4.5247,-4.586,-4.6225,-4.6875,-4.7475,-4.7468,-4.7442,-4.7442,-5.9928,-5.9345,-5.9304,-5.9102,-5.89,-5.7918,-5.7411,-5.6997,0.0,0.0,0.0,-5.5255,-5.5569,-5.604,-5.6066,-5.6327,-5.6771,-5.6301,-5.6066,-5.604,-5.5621,-5.5412,-5.5386,-5.5308,-5.5255,-5.5296,-5.5218,-5.5232,-5.5299,-5.5232,-5.5299,-5.5512,-5.4998,-5.4839,-5.4967,-5.4232,-5.3128,-5.1716,-5.0612,-4.9498,-4.8445,-4.7383,-4.5949,-4.4038,-4.2632,-4.1057,-3.9349,-3.8125,-3.693,-3.5784,-3.4223,-3.2952,-3.2116,-3.0648,-2.9619,-2.9119,-2.8877,-2.9283,-3.0602,-3.1658,-3.319,-3.5353,-3.7184,-3.6894,-3.372,-3.3254,-3.4439,-3.755,-3.9313,-3.9236,-3.6965,-3.7654,-3.8414,-3.8753,-3.9325,-3.9848,-4.0257,-4.0747,-4.0931,-4.0977,-4.1291,-4.1376,-4.103,-4.1414,-4.1874,-4.2174,-4.2535,-4.2965,-4.3012,-4.2763,-4.2872,-4.4048,-4.4324,-4.4539,-4.496,-4.5131,-4.5164,-4.5282,-4.5612,-4.5953,-4.6084,-4.6301,-4.6364,-4.6138,-4.6371,-4.6264,-4.5962,-4.6193,-4.6618,-4.6901,-4.7373,-4.788,-4.8114,-4.7997,-4.7821,-6.1604,-6.0758,-6.0246,-5.9571,-5.8719,-5.8038,-5.7527,-5.7108,-5.5733,-5.5348,-5.5804,-5.5804,-5.6118,-5.6667,-5.6667,-5.6719,-5.6798,-5.6719,-5.6693,0.0,-5.6588,-5.6562,-5.6536,-5.604,-5.5939,-5.625,-5.5801,-5.567,-5.5934,-5.567,-5.5538,-5.5564,-5.522,-5.4799,-5.4367,-5.4171,-5.3805,-5.3098,-5.1456,-5.0227,-4.9537,-4.7901,-4.6459,-4.5206,-4.3815,-4.2219,-4.0432,-3.8999,-3.7777,-3.6816,-3.5455,-3.4574,-3.4141,-3.3129,-3.2527,-3.2401,-3.2401,-3.2826,-3.393,-3.4977,-3.675,-3.9516,-4.057,-4.0143,-3.8067,-3.6861,-3.768,-4.0891,-4.1494,-4.1158,-4.0334,-4.0609,-4.0967,-4.1014,-4.1476,-4.1921,-4.205,-4.2732,-4.3201,-4.314,-4.3573,-4.3712,-4.3355,-4.3378,-4.3426,-4.331,-4.3765,-4.4198,-4.4673,-4.43,-4.4404,-4.5342,-4.5638,-4.5893,-4.6441,-4.6699,-4.6761,-4.6795,-4.6879,-4.6951,-4.6909,-4.6968,-4.7036,-4.7018,-4.6978,-4.6869,-4.6714,-4.6913,-4.7158,-4.7325,-4.7716,-4.8114,-4.8172,-4.8114,-4.8114,-6.2238,-6.1194,-6.0649,-6.0081,-5.9621,-5.8536,-5.761,-5.6977,-5.6317,-5.617,-5.6379,-5.6405,-5.6719,-5.7242,-5.7268,-5.7451,-5.7712,-5.7399,-5.7268,-5.7242,-5.6954,-5.6961,-5.7072,-5.681,-5.6882,-5.7235,-5.6996,-5.693,-5.6997,-5.6756,-5.6581,-5.6581,-5.6217,-5.5883,-5.5621,-5.5282,-5.4863,-5.4314,-5.2712,-5.1447,-5.0691,-4.9431,-4.8058,-4.6759,-4.5355,-4.3877,-4.2343,-4.1214,-3.9988,-3.8799,-3.8018,-3.738,-3.6887,-3.6286,-3.5896,-3.5961,-3.6091,-3.6497,-3.7156,-3.8551,-4.0423,-4.277,-4.3223,-4.3285,-4.3042,-4.1714,-4.1803,-4.3708,-4.4376,-4.4288,-4.3355,-4.3778,-4.4194,-4.4218,-4.4567,-4.4814,-4.49,-4.5132,-4.5451,-4.5475,-4.5646,-4.5643,-4.5431,-4.5455,-4.5615,-4.5712,-4.5755,-4.5957,-4.6569,-4.6408,-4.6159,-4.6529,-4.677,-4.7219,-4.788,-4.8309,-4.8193,-4.7744,-4.7888,-4.782,-4.7571,-4.7442,-4.7586,-4.7703,-4.7646,-4.76,-4.7632,-4.769,-4.7806,-4.7806,-4.7963,-4.8172,-4.8172,-4.8172,-4.8172,-6.2665,-6.1635,-6.1023,-6.0625,-6.0137,-5.8982,-5.7992,-5.7216,-5.719,-5.719,-5.7163,-5.7059,-5.732,-5.7817,-5.7843,-5.8078,-5.8418,-5.8052,-5.7869,-5.7817,-5.7399,-5.7354,-5.7604,-5.7568,-5.7694,-5.7955,-5.7875,-5.7863,-5.7931,-5.7618,-5.7304,-5.7236,-5.6961,-5.6824,-5.6798,-5.6353,-5.5909,-5.5465,-5.4311,-5.3073,-5.169,-5.0881,-4.9794,-4.8343,-4.717,-4.5917,-4.4619,-4.3571,-4.2499,-4.1372,-4.0673,-4.0103,-3.964,-3.9242,-3.9108,-3.9221,-3.942,-3.9948,-4.0672,-4.2277,-4.4025,-4.5782,-4.596,-4.6398,-4.7311,-4.6661,-4.5987,-4.6078,-4.6835,-4.6983,-4.6113,-4.6483,-4.6929,-4.6929,-4.7244,-4.7333,-4.7408,-4.7432,-4.7432,-4.7432,-4.7432,-4.732,-4.7194,-4.7282,-4.7381,-4.7643,-4.7453,-4.7386,-4.7853,-4.8065,-4.8065,-4.7912,-4.7976,-4.8362,-4.9026,-4.9419,-4.9351,-4.8685,-4.8696,-4.8506,-4.8184,-4.7951,-4.788,-4.8114,-4.8172,-4.8146,-4.8172,-4.8146,-4.8146,-4.812,-4.8146,-4.8172,-4.8172,-4.8172,-4.8172,-6.3367,-6.2461,-6.1827,-6.0763,-5.9555,-5.9372,-5.8908,-5.8366,-5.834,-5.8366,-5.8235,-5.7817,-5.7895,-5.8392,-5.8418,-5.8444,-5.8523,-5.847,-5.8418,-5.8418,-5.8392,-5.8366,-5.8332,-5.7887,-5.7973,-5.8445,-5.7815,-5.7861,-5.8335,-5.7671,-5.7167,-5.6866,-5.6824,-5.685,-5.6824,-5.6771,-5.6693,-5.6641,-5.6468,-5.5034,-5.2382,-5.1849,-5.1018,-4.9768,-4.9315,-4.8492,-4.7191,-4.5766,-4.4781,-4.4203,-4.2884,-4.2037,-4.197,-4.1657,-4.1635,-4.1948,-4.2015,-4.2772,-4.449,-4.5865,-4.7293,-4.8844,-4.8977,-4.9504,-5.0638,-5.0968,-4.9956,-4.8233,-4.8058,-4.8284,-4.7845,-4.8158,-4.8409,-4.8434,-4.8694,-4.8764,-4.8778,-4.8825,-4.8825,-4.8825,-4.8768,-4.8727,-4.8432,-4.8395,-4.8359,-4.8432,-4.8203,-4.8135,-4.8605,-4.9053,-4.9375,-4.9336,-4.945,-4.9554,-4.9888,-5.0101,-5.0105,-5.0007,-4.9499,-4.9124,-4.8923,-4.8505,-4.8198,-4.8296,-4.8172,-4.8172,-4.8172,-4.8172,-4.8172,-4.8172,-4.8172,-4.8172,-4.8172,-4.8172,-4.8172,-6.3688,-6.267,-6.2067,-6.1075,-5.9908,-5.9516,-5.9228,-5.8993,-5.8653,-5.8523,-5.8497,-5.8261,-5.8314,-5.8523,-5.8523,-5.8523,-5.8523,-5.8523,-5.8523,-5.8523,-5.8523,-5.8664,-5.8779,-5.864,-5.8788,-5.9179,-5.8828,-5.8791,-5.8998,-5.8583,-5.8166,-5.7817,-5.7817,-5.7817,-5.7791,-5.7477,-5.732,-5.7294,-5.6981,-5.6054,-5.4773,-5.3997,-5.2928,-5.1519,-5.09,-4.9983,-4.8618,-4.779,-4.7153,-4.6402,-4.5714,-4.5256,-4.505,-4.4912,-4.4981,-4.5371,-4.5963,-4.687,-4.805,-4.8871,-4.9759,-5.0829,-5.1069,-5.1524,-5.2148,-5.2567,-5.2233,-5.1536,-5.0934,-5.0703,-5.0576,-5.064,-5.0602,-5.0384,-5.0397,-5.0369,-4.9973,-4.9922,-4.9922,-4.9922,-4.9922,-4.9922,-4.9796,-4.9734,-4.971,-4.966,-4.9494,-4.9467,-4.9758,-5.004,-5.0142,-5.0232,-5.0359,-5.0487,-5.0652,-5.0713,-5.0717,-5.0565,-5.0359,-5.0054,-4.9557,-4.9113,-4.8721,-4.8721,-4.8433,-4.825,-4.8172,-4.8172,-4.8172,-4.8172,-4.8172,-4.8172,-4.8172,-4.8172,-4.8172,-6.3986,-6.2997,-6.2218,-6.123,-6.0284,-5.9867,-5.9679,-5.9568,-5.915,-5.8993,-5.8967,-5.8836,-5.8732,-5.8732,-5.8601,-5.8523,-5.8523,-5.8523,-5.8523,-5.8523,-5.8523,-5.8664,-5.8947,-5.8947,-5.9088,-5.9368,-5.9342,-5.9272,-5.9298,-5.9088,-5.8806,-5.8523,-5.8523,-5.8523,-5.847,-5.8078,-5.7895,-5.7869,-5.7477,-5.7086,-5.6519,-5.593,-5.4784,-5.3268,-5.2565,-5.1684,-5.0531,-5.0014,-4.9314,-4.8474,-4.8193,-4.7819,-4.7423,-4.7446,-4.7725,-4.8327,-4.9531,-5.0567,-5.1202,-5.1883,-5.2599,-5.3202,-5.3406,-5.3633,-5.3961,-5.4118,-5.4182,-5.4258,-5.3766,-5.3296,-5.2867,-5.2867,-5.2686,-5.2323,-5.2271,-5.209,-5.1765,-5.1546,-5.1454,-5.139,-5.1309,-5.1094,-5.1031,-5.079,-5.0689,-5.0689,-5.0588,-5.0691,-5.0857,-5.0934,-5.1023,-5.1216,-5.1484,-5.152,-5.1224,-5.1194,-5.1138,-5.1028,-5.089,-5.0551,-5.0159,-4.9688,-4.9322,-4.9244,-4.8747,-4.8486,-4.8512,-4.8433,-4.825,-4.8198,-4.8224,-4.825,-4.8172,-4.8198,-4.8198,-6.4273,-6.3648,-6.2251,-6.1221,-6.0464,-6.0386,-6.0324,-6.0096,-6.0117,-6.0117,-5.9986,-5.9542,-5.9333,-5.9281,-5.8836,-5.8549,-5.8523,-5.8523,-5.8523,-5.8523,-5.8523,-5.8523,-5.8523,-5.8523,-5.8735,-5.9088,-5.8806,-5.8664,-5.862,-5.8646,-5.8523,-5.8549,-5.8627,-5.8575,-5.8601,-5.8575,-5.8497,-5.8523,-5.847,-5.8089,-5.7446,-5.7349,-5.6499,-5.5087,-5.4294,-5.3768,-5.348,-5.2231,-5.1105,-5.06,-4.9816,-4.9175,-4.8653,-4.895,-4.9455,-5.0278,-5.2116,-5.3487,-5.3954,-5.5108,-5.6158,-5.6773,-5.634,-5.6357,-5.6386,-5.6146,-5.5853,-5.5761,-5.5708,-5.5324,-5.4501,-5.433,-5.4224,-5.4182,-5.4219,-5.4103,-5.4113,-5.3392,-5.3369,-5.32,-5.2766,-5.2262,-5.2023,-5.1497,-5.1298,-5.1198,-5.0893,-5.0972,-5.1499,-5.182,-5.2129,-5.2531,-5.2764,-5.2801,-5.1557,-5.1439,-5.1575,-5.1492,-5.1256,-5.0838,-5.0577,-5.0315,-5.0054,-4.9766,-4.9348,-4.9061,-4.8956,-4.8747,-4.8486,-4.8407,-4.8433,-4.8433,-4.8616,-4.8329,-4.8381,-6.401,-6.2894,-6.1993,-6.1223,-6.0656,-6.0521,-6.0461,-6.0376,-6.0232,-6.0222,-6.0195,-5.9986,-5.9908,-5.9882,-5.9699,-5.9202,-5.8549,-5.8523,-5.8523,-5.8523,-5.8523,-5.8523,-5.8523,-5.8523,-5.8594,-5.8664,-5.8594,-5.8706,-5.9098,-5.9411,-5.9594,-5.9594,-5.962,-5.9594,-5.962,-5.9594,-5.9594,-5.9594,-5.962,-5.9305,-5.877,-5.8602,-5.8079,-5.7232,-5.5688,-5.4627,-5.3992,-5.3436,-5.2882,-5.2447,-5.211,-5.1844,-5.1769,-5.2284,-5.2939,-5.3702,-5.4885,-5.5803,-5.6196,-5.6878,-5.7456,-5.7633,-5.7744,-5.7585,-5.7436,-5.742,-5.7308,-5.6866,-5.6758,-5.658,-5.6262,-5.5751,-5.5332,-5.5013,-5.4997,-5.4864,-5.4453,-5.4187,-5.408,-5.3974,-5.3547,-5.3006,-5.2642,-5.2562,-5.2612,-5.2665,-5.2675,-5.2772,-5.2891,-5.2996,-5.2971,-5.3127,-5.3309,-5.3178,-5.2801,-5.2279,-5.2145,-5.2014,-5.1779,-5.1465,-5.1204,-5.0812,-5.0524,-5.0394,-5.0002,-4.961,-4.9453,-4.9374,-4.9061,-4.9087,-4.9113,-4.9008,-4.9296,-4.9035,-4.9087,-6.3635,-6.2422,-6.173,-6.1247,-6.0814,-6.0479,-6.0549,-6.0749,-6.0658,-6.0623,-6.0744,-6.0588,-6.0509,-6.0457,-6.0326,-5.983,-5.9098,-5.8889,-5.8706,-5.8523,-5.8523,-5.8523,-5.8549,-5.8706,-5.8784,-5.8836,-5.8993,-5.9281,-5.962,-6.0039,-6.0222,-6.0222,-6.0222,-6.0222,-6.0222,-6.0222,-6.0222,-6.0222,-6.0076,-5.983,-5.9415,-5.9045,-5.8699,-5.81,-5.6919,-5.5945,-5.5279,-5.4959,-5.4615,-5.4225,-5.3979,-5.3854,-5.3967,-5.4819,-5.5523,-5.608,-5.6928,-5.7583,-5.7978,-5.8411,-5.8722,-5.8831,-5.8846,-5.8684,-5.8334,-5.8274,-5.7906,-5.7407,-5.7228,-5.7174,-5.7109,-5.6693,-5.6271,-5.5988,-5.5934,-5.5773,-5.5398,-5.5183,-5.4968,-5.4727,-5.4279,-5.3788,-5.3432,-5.3637,-5.3761,-5.3814,-5.397,-5.4081,-5.4229,-5.4024,-5.3961,-5.4027,-5.4092,-5.4053,-5.3844,-5.3543,-5.3046,-5.281,-5.2428,-5.2077,-5.1842,-5.1423,-5.1073,-5.0969,-5.0655,-5.0237,-4.9976,-4.9923,-4.9923,-4.9923,-4.974,-4.9557,-4.9714,-4.9793,-4.9853,-6.3143,-6.2455,-6.163,-6.1154,-6.0886,-6.043,-6.066,-6.1217,-6.1342,-6.149,-6.1685,-6.1346,-6.111,-6.1032,-6.064,-6.0274,-6.0091,-5.9673,-5.9176,-5.8732,-5.8679,-5.8653,-5.8706,-5.915,-5.9385,-5.9411,-5.9934,-6.0195,-6.0222,-6.0352,-6.0405,-6.0326,-6.0405,-6.0457,-6.03,-6.0405,-6.0326,-6.0305,-6.0038,-5.9618,-5.9071,-5.8827,-5.8478,-5.8102,-5.7876,-5.7826,-5.7725,-5.6875,-5.6178,-5.5705,-5.5135,-5.4924,-5.5259,-5.6166,-5.685,-5.7118,-5.8064,-5.888,-5.9302,-5.9774,-6.0195,-6.0374,-6.0185,-5.9765,-5.9467,-5.8829,-5.8058,-5.7374,-5.7288,-5.7228,-5.7201,-5.7109,-5.7109,-5.7174,-5.6936,-5.6909,-5.6892,-5.6631,-5.6088,-5.5501,-5.5096,-5.4943,-5.479,-5.4664,-5.4564,-5.4527,-5.4597,-5.4773,-5.5172,-5.4993,-5.4971,-5.5248,-5.5208,-5.4919,-5.4919,-5.484,-5.4223,-5.3698,-5.3121,-5.2675,-5.2544,-5.2166,-5.1763,-5.1606,-5.1152,-5.0734,-5.0498,-5.042,-5.0342,-5.0315,-5.0132,-5.0159,-5.0289,-5.0455,-5.0446,-6.3036,-6.218,-6.1898,-6.127,-6.0622,-6.0629,-6.0814,-6.0991,-6.1268,-6.1672,-6.1921,-6.179,-6.1711,-6.1685,-6.1502,-6.1215,-6.0849,-6.064,-6.0248,-5.9777,-5.9673,-5.9647,-5.9699,-5.9856,-5.996,-6.0039,-6.0561,-6.0849,-6.0901,-6.1215,-6.1424,-6.1424,-6.1424,-6.1424,-6.1424,-6.1424,-6.1424,-6.1424,-6.1051,-6.065,-6.0224,-5.9744,-5.9388,-5.9082,-5.9006,-5.9006,-5.8956,-5.7951,-5.7425,-5.7199,-5.6599,-5.6415,-5.6826,-5.748,-5.8184,-5.8742,-5.9387,-5.9935,-6.0279,-6.0483,-6.0618,-6.0728,-6.0593,-6.0294,-6.0036,-5.9926,-5.9031,-5.7632,-5.7705,-5.7874,-5.7309,-5.7174,-5.7174,-5.7174,-5.7174,-5.7174,-5.7174,-5.7011,-5.6658,-5.617,-5.5943,-5.5718,-5.5411,-5.5393,-5.5626,-5.568,-5.5794,-5.6041,-5.6111,-5.585,-5.5734,-5.5908,-5.5802,-5.575,-5.5736,-5.5829,-5.5643,-5.4996,-5.427,-5.3625,-5.3313,-5.2896,-5.2544,-5.213,-5.1675,-5.1335,-5.11,-5.0917,-5.0838,-5.0943,-5.0995,-5.1021,-5.1047,-5.1031,-5.0996,-6.3274,-6.2621,-6.2169,-6.1617,-6.0939,-6.1079,-6.0987,-6.0891,-6.1299,-6.1577,-6.1773,-6.1973,-6.2048,-6.2048,-6.2048,-6.1764,-6.145,-6.145,-6.1241,-6.0823,-6.0352,-6.0222,-6.0274,-6.0457,-6.0692,-6.0901,-6.1241,-6.1424,-6.1476,-6.1999,-6.2287,-6.2287,-6.2496,-6.26,-6.26,-6.26,-6.26,-6.2372,-6.1991,-6.1428,-6.0865,-6.0429,-5.9941,-5.961,-5.9483,-5.9508,-5.9433,-5.883,-5.8403,-5.8177,-5.7698,-5.7534,-5.7713,-5.8414,-5.9158,-5.9578,-6.0108,-6.0549,-6.0755,-6.0755,-6.0755,-6.0755,-6.0755,-6.062,-6.0335,-6.0471,-5.9547,-5.8344,-5.8058,-5.801,-5.7401,-5.7174,-5.7109,-5.7044,-5.7109,-5.7174,-5.7174,-5.7174,-5.7038,-5.6712,-5.6631,-5.6414,-5.6305,-5.6332,-5.6631,-5.6685,-5.6763,-5.6877,-5.6785,-5.659,-5.6394,-5.6343,-5.6398,-5.6412,-5.6412,-5.6677,-5.6997,-5.637,-5.5664,-5.4884,-5.4383,-5.3678,-5.3181,-5.2795,-5.2354,-5.204,-5.1779,-5.1518,-5.1361,-5.1596,-5.1727,-5.1492,-5.1361,-5.1413,-5.1433,-6.3726,-6.355,-6.2521,-6.2019,-6.1868,-6.1496,-6.123,-6.1167,-6.1504,-6.1685,-6.1679,-6.2083,-6.2182,-6.213,-6.226,-6.2182,-6.2025,-6.2025,-6.1947,-6.1581,-6.0953,-6.0509,-6.0561,-6.0953,-6.1424,-6.1894,-6.1999,-6.2051,-6.2182,-6.2626,-6.2888,-6.2914,-6.3306,-6.3646,-6.3515,-6.362,-6.3387,-6.2871,-6.2534,-6.1888,-6.1141,-6.0622,-6.0161,-5.9709,-5.9633,-5.9608,-5.9608,-5.9433,-5.9156,-5.873,-5.8423,-5.8357,-5.8418,-5.9102,-5.9615,-5.9685,-6.0396,-6.0687,-6.0755,-6.0755,-6.0755,-6.0755,-6.0755,-6.0755,-6.0647,-6.0226,-5.9738,-5.8845,-5.8398,-5.7802,-5.7315,-5.7071,-5.6942,-5.6747,-5.685,-5.6979,-5.7109,-5.7109,-5.7055,-5.7082,-5.7174,-5.7146,-5.7011,-5.7065,-5.7092,-5.7119,-5.7146,-5.7109,-5.7109,-5.6877,-5.6774,-5.6831,-5.6995,-5.7209,-5.7356,-5.7637,-5.7865,-5.7623,-5.6966,-5.6313,-5.5386,-5.4596,-5.3783,-5.3369,-5.3046,-5.2758,-5.2485,-5.2223,-5.2067,-5.2145,-5.204,-5.1753,-5.1805,-5.2014,-5.2166,-6.4053,-6.3626,-6.2923,-6.237,-6.2019,-6.1843,-6.1731,-6.1647,-6.2041,-6.2328,-6.2586,-6.3074,-6.3149,-6.3227,-6.3175,-6.3018,-6.2679,-6.26,-6.2339,-6.1973,-6.1711,-6.1502,-6.1529,-6.1659,-6.2051,-6.2548,-6.2626,-6.2809,-6.3201,-6.3358,-6.3437,-6.3463,-6.3646,-6.3724,-6.3672,-6.375,-6.344,-6.3052,-6.2585,-6.2167,-6.1647,-6.1202,-6.0889,-6.0738,-6.0337,-6.0111,-6.006,-5.9709,-5.9257,-5.878,-5.9235,-5.925,-5.8988,-5.9437,-5.9978,-6.0234,-6.0307,-6.0507,-6.0714,-6.0755,-6.0755,-6.0755,-6.0755,-6.0687,-6.0384,-6.0208,-5.9666,-5.8924,-5.8267,-5.7745,-5.7156,-5.67,-5.6355,-5.6328,-5.6328,-5.6394,-5.6459,-5.6655,-5.6812,-5.6877,-5.7044,-5.7109,-5.7174,-5.7174,-5.7174,-5.7174,-5.7174,-5.7174,-5.7174,-5.7136,-5.7034,-5.7559,-5.7845,-5.8142,-5.8386,-5.8575,-5.875,-5.8723,-5.8332,-5.7929,-5.6754,-5.5522,-5.4599,-5.3813,-5.3567,-5.3293,-5.3203,-5.3034,-5.2929,-5.2668,-5.272,-5.2642,-5.2825,-5.2981,-5.3095,-6.4505,-6.3977,-6.3425,-6.2873,-6.237,-6.2345,-6.226,-6.223,-6.2629,-6.2868,-6.3104,-6.3517,-6.3672,-6.3672,-6.3672,-6.3515,-6.3201,-6.3175,-6.2992,-6.2783,-6.2705,-6.2548,-6.2391,-6.2339,-6.2626,-6.3123,-6.3175,-6.3358,-6.3672,-6.3907,-6.4012,-6.409,-6.4273,-6.4404,-6.4456,-6.4404,-6.4065,-6.3541,-6.3199,-6.2726,-6.1941,-6.1702,-6.1446,-6.1215,-6.0814,-6.0613,-6.0311,-6.001,-5.9608,-5.9285,-5.9566,-5.9737,-5.9553,-5.9966,-6.0373,-6.066,-6.0552,-6.072,-6.0804,-6.0849,-6.0687,-6.0618,-6.0549,-6.0342,-6.0039,-5.99,-5.952,-5.8838,-5.8236,-5.765,-5.7064,-5.6346,-5.5987,-5.5868,-5.5736,-5.5802,-5.6066,-5.6328,-5.6394,-5.6524,-5.6747,-5.6979,-5.6979,-5.7109,-5.7174,-5.7174,-5.7174,-5.7174,-5.7174,-5.7201,-5.7418,-5.7906,-5.8422,-5.8708,-5.9169,-5.9494,-5.963,-5.9616,-5.9277,-5.8966,-5.7823,-5.653,-5.5734,-5.489,-5.434,-5.3908,-5.3805,-5.3635,-5.3295,-5.3191,-5.3373,-5.3452,-5.3478,-5.3635,-5.3777,-6.4982,-6.4505,-6.3927,-6.3375,-6.2948,-6.2847,-6.2739,-6.2763,-6.3217,-6.3357,-6.3441,-6.3726,-6.4038,-6.3855,-6.4064,-6.3855,-6.3776,-6.3776,-6.3672,-6.3567,-6.3515,-6.3332,-6.3123,-6.2966,-6.3254,-6.3698,-6.375,-6.3855,-6.4116,-6.4456,-6.4665,-6.4848,-6.524,-6.5423,-6.5397,-6.5423,-6.4946,-6.4232,-6.402,-6.3334,-6.2467,-6.215,-6.1918,-6.1592,-6.1366,-6.0989,-6.0588,-6.0311,-6.006,-5.9608,-5.982,-5.9894,-5.9992,-6.0493,-6.079,-6.0875,-6.0953,-6.0961,-6.094,-6.0816,-6.0561,-6.0231,-6.0108,-5.9969,-5.9648,-5.9578,-5.9322,-5.8706,-5.8153,-5.7394,-5.6637,-5.5934,-5.5591,-5.5564,-5.5299,-5.5432,-5.5802,-5.6066,-5.6066,-5.6066,-5.6394,-5.6616,-5.6747,-5.6877,-5.7044,-5.6979,-5.7044,-5.7044,-5.7109,-5.7201,-5.7608,-5.8232,-5.872,-5.9236,-5.9778,-6.0348,-6.0457,-6.0457,-6.0104,-5.963,-5.8589,-5.7463,-5.6823,-5.6067,-5.5274,-5.4656,-5.4354,-5.4079,-5.3766,-5.3766,-5.4027,-5.387,-5.3687,-5.3975,-5.4119,-6.5208,-6.5032,-6.4103,-6.3626,-6.345,-6.3048,-6.2991,-6.3351,-6.3779,-6.4052,-6.4478,-6.4847,-6.4979,-6.4979,-6.49,-6.4796,-6.4378,-6.4325,-6.4142,-6.3698,-6.3672,-6.3933,-6.3959,-6.375,-6.3855,-6.4247,-6.4351,-6.4587,-6.4953,-6.5136,-6.5449,-6.5867,-6.5946,-6.6103,-6.6076,-6.6076,-6.5602,-6.4784,-6.4332,-6.3878,-6.3265,-6.2784,-6.2521,-6.2345,-6.2019,-6.1542,-6.1014,-6.0563,-6.0261,-6.0113,-6.0097,-6.0151,-6.0403,-6.0544,-6.0853,-6.1237,-6.1106,-6.0819,-6.0678,-6.0632,-6.0338,-5.9894,-5.9744,-5.9578,-5.9298,-5.9158,-5.8965,-5.8482,-5.7607,-5.6757,-5.5879,-5.543,-5.5232,-5.5232,-5.5165,-5.5165,-5.5272,-5.5538,-5.567,-5.5802,-5.6,-5.6263,-5.6263,-5.6328,-5.6524,-5.672,-5.6877,-5.6942,-5.6979,-5.7044,-5.7613,-5.8196,-5.8642,-5.9156,-6.0063,-6.0524,-6.0674,-6.0755,-6.0538,-6.0348,-5.9345,-5.8388,-5.7624,-5.6798,-5.6014,-5.5512,-5.4918,-5.4785,-5.4524,-5.4602,-5.4628,-5.4497,-5.4419,-5.455,-5.4497,-6.5509,-6.5208,-6.4404,-6.3927,-6.3708,-6.3319,-6.3392,-6.3797,-6.42,-6.4681,-6.5079,-6.5292,-6.5397,-6.5397,-6.5371,-6.5188,-6.5005,-6.4926,-6.4796,-6.4534,-6.4508,-6.4665,-6.4822,-6.4665,-6.4665,-6.49,-6.4926,-6.5266,-6.5658,-6.5841,-6.6103,-6.6625,-6.6652,-6.6678,-6.6678,-6.6678,-6.6279,-6.5615,-6.4875,-6.4261,-6.3854,-6.3193,-6.2822,-6.2797,-6.2521,-6.2119,-6.1592,-6.1291,-6.0989,-6.0742,-6.0445,-6.0378,-6.0686,-6.0859,-6.1204,-6.1621,-6.1469,-6.1219,-6.1092,-6.0678,-6.0297,-5.9766,-5.9528,-5.9184,-5.8947,-5.8806,-5.8735,-5.841,-5.7686,-5.6745,-5.5647,-5.5203,-5.5125,-5.5099,-5.5099,-5.5099,-5.5099,-5.5299,-5.5365,-5.5405,-5.567,-5.5802,-5.5868,-5.5934,-5.6132,-5.6394,-5.6394,-5.6459,-5.6459,-5.6632,-5.7288,-5.7852,-5.8375,-5.9103,-6.0089,-6.0591,-6.0728,-6.0755,-6.0701,-6.0593,-6.0172,-5.9211,-5.8308,-5.7424,-5.6571,-5.5801,-5.5325,-5.5311,-5.5099,-5.4968,-5.4916,-5.5046,-5.5046,-5.4797,-5.4771,-6.5835,-6.5383,-6.4831,-6.4279,-6.3859,-6.3716,-6.3818,-6.4119,-6.4601,-6.5,-6.5318,-6.5397,-6.5397,-6.5397,-6.5397,-6.5397,-6.5371,-6.5345,-6.5214,-6.5214,-6.5188,-6.5214,-6.5266,-6.524,-6.5318,-6.5475,-6.5528,-6.5841,-6.6129,-6.6416,-6.6704,-6.7122,-6.7227,-6.7253,-6.7253,-6.7227,-6.6959,-6.6425,-6.56,-6.5011,-6.4418,-6.3628,-6.2998,-6.2822,-6.2772,-6.2571,-6.2169,-6.1918,-6.1743,-6.1316,-6.0763,-6.0652,-6.0891,-6.1092,-6.1495,-6.1846,-6.1747,-6.158,-6.1337,-6.0948,-6.0392,-5.9913,-5.9465,-5.8981,-5.8646,-5.8594,-5.8523,-5.8314,-5.7843,-5.7085,-5.6066,-5.5569,-5.5255,-5.5125,-5.5099,-5.5099,-5.5099,-5.5099,-5.5165,-5.5165,-5.5365,-5.5472,-5.5604,-5.567,-5.5868,-5.6,-5.6,-5.6066,-5.6066,-5.6291,-5.6891,-5.7544,-5.812,-5.8805,-5.9812,-6.0411,-6.0549,-6.0618,-6.0687,-6.066,-6.0632,-5.994,-5.894,-5.7946,-5.7063,-5.6331,-5.5654,-5.5296,-5.5177,-5.5125,-5.4939,-5.4872,-5.4872,-5.4965,-5.4898,-6.6061,-6.5936,-6.5383,-6.4831,-6.4387,-6.4247,-6.4149,-6.4171,-6.4652,-6.5026,-6.5423,-6.5397,-6.5423,-6.5449,-6.5397,-6.5397,-6.5554,-6.558,-6.5528,-6.5528,-6.5528,-6.5528,-6.558,-6.5606,-6.5737,-6.6024,-6.6181,-6.6312,-6.6469,-6.673,-6.7279,-6.7723,-6.7828,-6.7854,-6.7828,-6.7828,-6.7619,-6.7112,-6.6197,-6.56,-6.5225,-6.4165,-6.3274,-6.2948,-6.2873,-6.2747,-6.2596,-6.2245,-6.1943,-6.1843,-6.1341,-6.1277,-6.1421,-6.1146,-6.1195,-6.1547,-6.1767,-6.173,-6.1337,-6.1101,-6.0493,-5.9791,-5.9372,-5.9084,-5.8679,-5.8523,-5.8523,-5.834,-5.7825,-5.7042,-5.604,-5.5804,-5.5543,-5.5282,-5.5099,-5.5099,-5.5099,-5.5099,-5.5099,-5.5099,-5.5165,-5.5232,-5.5365,-5.5432,-5.5564,-5.567,-5.567,-5.5802,-5.5868,-5.612,-5.6598,-5.7277,-5.7931,-5.8678,-5.9504,-5.9985,-6.0246,-6.0342,-6.0411,-6.0411,-6.0384,-6.0288,-5.9502,-5.8491,-5.7474,-5.6742,-5.6063,-5.5479,-5.5136,-5.5058,-5.4831,-5.4645,-5.4604,-5.4537,-5.4402,-6.6112,-6.6061,-6.5534,-6.5301,-6.5251,-6.5136,-6.4986,-6.493,-6.5387,-6.5708,-6.5841,-6.5867,-6.6024,-6.6207,-6.6259,-6.6259,-6.6233,-6.6259,-6.6259,-6.6286,-6.6286,-6.6286,-6.6233,-6.6233,-6.6416,-6.673,-6.6991,-6.7122,-6.72,-6.741,-6.788,-6.8298,-6.8429,-6.8429,-6.8429,-6.8429,-6.8246,-6.7711,-6.6899,-6.6246,-6.6086,-6.4569,-6.3633,-6.3299,-6.2973,-6.2847,-6.2772,-6.2647,-6.2446,-6.2345,-6.1918,-6.1747,-6.1685,-6.1624,-6.1403,-6.1759,-6.1778,-6.1718,-6.1454,-6.1319,-6.0823,-6.0352,-5.9777,-5.9281,-5.8941,-5.8732,-5.8523,-5.8366,-5.7877,-5.7277,-5.6876,-5.6301,-5.5804,-5.5543,-5.5308,-5.5151,-5.5099,-5.5099,-5.5099,-5.5099,-5.5099,-5.5165,-5.5099,-5.5165,-5.5232,-5.5232,-5.5365,-5.5498,-5.567,-5.5829,-5.6133,-5.6847,-5.7603,-5.8536,-5.92,-5.9638,-5.99,-5.9996,-6.0065,-6.0135,-6.0065,-5.99,-5.9638,-5.8944,-5.8064,-5.7119,-5.6352,-5.57,-5.5278,-5.495,-5.4697,-5.4469,-5.4241,-5.4106,-5.398,-6.6112,-6.6086,-6.5634,-6.5638,-6.5993,-6.6003,-6.5904,-6.5874,-6.6281,-6.6442,-6.6469,-6.6469,-6.6678,-6.6991,-6.7044,-6.7044,-6.7096,-6.7044,-6.7017,-6.6991,-6.7017,-6.707,-6.707,-6.7096,-6.7096,-6.7305,-6.7619,-6.7985,-6.788,-6.8063,-6.8429,-6.8664,-6.8738,-6.8764,-6.8711,-6.8659,-6.8764,-6.8357,-6.7622,-6.6836,-6.6034,-6.4923,-6.3852,-6.3701,-6.3224,-6.2973,-6.2847,-6.2772,-6.2772,-6.2672,-6.2421,-6.2169,-6.2175,-6.1987,-6.2035,-6.2226,-6.1837,-6.1778,-6.1767,-6.1607,-6.1267,-6.0901,-6.0222,-5.9751,-5.9228,-5.8836,-5.8523,-5.8418,-5.806,-5.7616,-5.7425,-5.6824,-5.6327,-5.5987,-5.5647,-5.5282,-5.5282,-5.5229,-5.5099,-5.5099,-5.5099,-5.5099,-5.5099,-5.5099,-5.5165,-5.5165,-5.5232,-5.5232,-5.5339,-5.5299,-5.5613,-5.64,-5.723,-5.827,-5.8937,-5.9315,-5.9508,-5.9578,-5.9648,-5.9787,-5.9648,-5.9508,-5.9175,-5.8912,-5.8464,-5.7494,-5.665,-5.5878,-5.5362,-5.4899,-5.4531,-5.42,-5.3929,-5.3904,-5.3851,-6.6112,-6.6112,-6.6036,-6.5991,-6.6094,-6.6412,-6.6495,-6.6499,-6.6829,-6.7017,-6.7044,-6.7017,-6.707,-6.72,-6.72,-6.7148,-6.7174,-6.7253,-6.7305,-6.7331,-6.7305,-6.7305,-6.7174,-6.7096,-6.754,-6.7828,-6.7985,-6.7985,-6.8141,-6.8507,-6.8633,-6.8764,-6.8764,-6.8764,-6.8764,-6.8764,-6.8764,-6.8654,-6.7822,-6.6806,-6.5723,-6.5192,-6.453,-6.3977,-6.3576,-6.3324,-6.2973,-6.2898,-6.2822,-6.2822,-6.2772,-6.2722,-6.2647,-6.2195,-6.2505,-6.2708,-6.2535,-6.204,-6.2054,-6.1921,-6.1633,-6.1346,-6.0901,-6.0352,-5.9568,-5.8941,-5.8601,-5.8523,-5.8392,-5.8157,-5.7843,-5.7529,-5.7163,-5.6719,-5.6196,-5.5883,-5.5726,-5.5438,-5.5308,-5.5099,-5.5099,-5.5099,-5.5099,-5.5099,-5.5099,-5.5099,-5.5099,-5.5099,-5.5099,-5.5099,-5.5517,-5.6421,-5.6945,-5.7886,-5.8543,-5.8894,-5.8947,-5.9017,-5.9088,-5.9228,-5.9017,-5.8806,-5.8806,-5.8515,-5.8101,-5.7733,-5.6944,-5.6132,-5.5418,-5.4946,-5.4612,-5.4125,-5.3614,-5.3619,-5.3816,-6.6112,-6.6112,-6.6112,-6.6243,-6.6552,-6.6949,-6.7061,-6.7038,-6.7429,-6.7592,-6.7619,-6.7619,-6.7749,-6.7958,-6.8089,-6.8089,-6.8089,-6.8037,-6.8089,-6.8037,-6.8037,-6.8063,-6.8115,-6.8089,-6.8298,-6.8242,-6.8481,-6.8507,-6.8586,-6.8581,-6.8764,-6.8764,-6.8764,-6.8764,-6.8764,-6.8764,-6.8764,-6.8597,-6.7873,-6.6925,-6.5991,-6.5434,-6.5057,-6.458,-6.4028,-6.3626,-6.3324,-6.2948,-6.2847,-6.2822,-6.2822,-6.2822,-6.2797,-6.2571,-6.2775,-6.3143,-6.3021,-6.269,-6.2474,-6.2469,-6.2104,-6.1659,-6.1267,-6.0561,-5.9647,-5.915,-5.8784,-5.8523,-5.8523,-5.8366,-5.8104,-5.7843,-5.7651,-5.719,-5.6771,-5.6353,-5.6066,-5.5778,-5.5543,-5.5308,-5.5099,-5.5125,-5.5125,-5.5099,-5.5099,-5.5099,-5.5099,-5.5099,-5.5099,-5.5099,-5.5726,-5.6588,-5.7007,-5.7468,-5.8052,-5.8523,-5.8355,-5.8381,-5.8096,-5.8167,-5.8167,-5.8025,-5.8167,-5.8096,-5.7733,-5.7338,-5.6918,-5.6431,-5.5784,-5.5197,-5.4733,-5.4227,-5.3747,-5.3788,-5.3928,-6.6112,-6.6112,-6.6112,-6.6369,-6.6797,-6.7307,-6.7499,-6.7556,-6.8028,-6.8194,-6.8194,-6.8194,-6.8455,-6.8743,-6.8685,-6.8633,-6.8711,-6.8764,-6.8764,-6.8764,-6.8764,-6.8685,-6.8607,-6.8685,-6.8685,-6.868,-6.8518,-6.8461,-6.8377,-6.8403,-6.8487,-6.8764,-6.8764,-6.8764,-6.8764,-6.8764,-6.868,-6.8235,-6.7646,-6.6856,-6.6157,-6.571,-6.5459,-6.5057,-6.4555,-6.3952,-6.3651,-6.335,-6.3099,-6.2822,-6.2822,-6.2822,-6.2797,-6.2935,-6.3189,-6.3553,-6.3586,-6.3569,-6.3258,-6.3018,-6.2652,-6.2156,-6.1502,-6.0771,-6.0091,-5.9647,-5.9255,-5.881,-5.8549,-5.8549,-5.8444,-5.8104,-5.7974,-5.7712,-5.7373,-5.685,-5.6432,-5.6249,-5.5961,-5.5621,-5.5412,-5.5229,-5.5203,-5.5125,-5.5099,-5.5099,-5.5099,-5.5099,-5.5032,-5.5006,-5.5575,-5.6382,-5.6487,-5.6902,-5.7681,-5.7953,-5.781,-5.7641,-5.7451,-5.7379,-5.7451,-5.7523,-5.7667,-5.7523,-5.7235,-5.7014,-5.662,-5.6407,-5.6096,-5.529,-5.4561,-5.4273,-5.4035,-5.402,-5.4243,-6.6112,-6.6112,-6.6112,-6.6369,-6.6797,-6.7307,-6.7704,-6.8048,-6.8492,-6.8633,-6.869,-6.8769,-6.8659,-6.8764,-6.8764,-6.8764,-6.8764,-6.8764,-6.8764,-6.8764,-6.8764,-6.8764,-6.8764,-6.868,-6.8513,-6.8287,-6.8203,-6.8009,-6.7756,-6.7815,-6.8151,-6.868,-6.8597,-6.868,-6.868,-6.8597,-6.8235,-6.773,-6.7137,-6.6711,-6.6283,-6.5961,-6.5785,-6.5409,-6.5157,-6.4731,-6.3802,-6.3676,-6.34,-6.2998,-6.303,-6.2929,-6.3011,-6.323,-6.3614,-6.3966,-6.434,-6.4296,-6.4169,-6.3541,-6.2914,-6.2496,-6.1868,-6.1136,-6.0692,-5.9882,-5.9437,-5.9281,-5.8941,-5.8653,-5.8575,-5.8444,-5.8314,-5.8157,-5.7843,-5.7529,-5.7111,-5.6876,-5.6536,-5.604,-5.5726,-5.5543,-5.5308,-5.5229,-5.5099,-5.5099,-5.5099,-5.5099,-5.4872,-5.4883,-5.5304,-5.5788,-5.589,-5.6341,-5.7266,-5.7451,-5.7379,-5.721,-5.6993,-5.6993,-5.7091,-5.7163,-5.6874,-5.6874,-5.6656,-5.651,-5.6314,-5.5987,-5.5613,-5.5002,-5.4539,-5.4369,-5.4128,-5.4033,-5.4474,-6.6112,-6.6112,-6.6112,-6.6197,-6.6369,-6.6882,-6.7307,-6.784,-6.8261,-6.8597,-6.8764,-6.8764,-6.8764,-6.8764,-6.8764,-6.8764,-6.8764,-6.8764,-6.8764,-6.8764,-6.8764,-6.868,-6.8513,-6.8345,-6.8203,-6.784,-6.7756,-6.7756,-6.7561,-6.7392,-6.7561,-6.7899,-6.7983,-6.7983,-6.8009,-6.8093,-6.7646,-6.7222,-6.6882,-6.654,-6.6197,-6.6112,-6.6011,-6.5835,-6.5383,-6.5157,-6.468,-6.4329,-6.3877,-6.3583,-6.3622,-6.3502,-6.3412,-6.3686,-6.4064,-6.4466,-6.4681,-6.487,-6.4926,-6.4247,-6.362,-6.2757,-6.2104,-6.1502,-6.1241,-6.064,-6.0222,-5.9882,-5.9385,-5.9045,-5.9019,-5.8732,-5.847,-5.8444,-5.8287,-5.8,-5.7765,-5.7477,-5.7111,-5.6588,-5.6144,-5.5804,-5.5543,-5.5334,-5.5203,-5.5099,-5.5099,-5.5032,-5.4805,-5.464,-5.5031,-5.5391,-5.5471,-5.6014,-5.6933,-5.704,-5.6972,-5.6729,-5.6485,-5.6412,-5.6365,-5.5926,-5.5705,-5.5852,-5.5926,-5.5779,-5.5557,-5.5433,-5.5138,-5.4818,-5.4671,-5.4623,-5.4328,-5.4009,-5.45,-6.594,-6.6112,-6.6112,-6.6112,-6.6197,-6.6626,-6.6967,-6.7392,-6.795,-6.8455,-6.8764,-6.8764,-6.8764,-6.8764,-6.8764,-6.8764,-6.8764,-6.8764,-6.8764,-6.8764,-6.8597,-6.8455,-6.8203,-6.8009,-6.7756,-6.7392,-6.7307,-6.7222,-6.6967,-6.7052,-6.7052,-6.7052,-6.7137,-6.7222,-6.7477,-6.7307,-6.7137,-6.6882,-6.6626,-6.6455,-6.6112,-6.6112,-6.6112,-6.6036,-6.5906,-6.5688,-6.5521,-6.5277,-6.4956,-6.4684,-6.4488,-6.4424,-6.4281,-6.4269,-6.4621,-6.4758,-6.492,-6.5079,-6.5161,-6.4796,-6.4012,-6.2966,-6.2548,-6.1947,-6.1529,-6.1241,-6.0771,-6.0787,-6.0138,-5.9568,-5.9464,-5.9019,-5.8679,-5.8601,-5.8497,-5.8261,-5.8157,-5.7921,-5.7556,-5.7137,-5.6745,-5.6405,-5.57,-5.5412,-5.5136,-5.5032,-5.4872,-5.4805,-5.4604,-5.4515,-5.4586,-5.4872,-5.5101,-5.5812,-5.6548,-5.6312,-5.6072,-5.5926,-5.5681,-5.546,-5.5312,-5.4967,-5.4967,-5.5337,-5.5337,-5.5041,-5.4918,-5.4893,-5.4868,-5.4819,-5.4621,-5.4375,-5.4325,-5.4054,-5.44,-6.5681,-6.6112,-6.6112,-6.6112,-6.6112,-6.6626,-6.6797,-6.6967,-6.7756,-6.8345,-6.868,-6.8764,-6.8764,-6.8764,-6.8764,-6.8764,-6.8764,-6.8764,-6.8764,-6.8764,-6.8455,-6.8287,-6.8009,-6.7756,-6.7307,-6.6882,-6.6797,-6.6626,-6.6283,-6.6369,-6.6283,-6.6283,-6.6455,-6.6626,-6.7392,-6.7052,-6.6797,-6.6711,-6.6369,-6.6197,-6.6112,-6.6112,-6.6112,-6.6258,-6.6464,-6.6272,-6.6272,-6.6314,-6.6015,-6.5665,-6.5645,-6.5503,-6.5124,-6.5294,-6.5304,-6.4996,-6.5185,-6.5318,-6.5345,-6.4848,-6.4038,-6.3227,-6.2888,-6.2443,-6.1973,-6.1555,-6.1341,-6.1437,-6.0839,-6.0039,-5.9673,-5.9307,-5.8993,-5.8784,-5.8679,-5.8497,-5.8366,-5.8287,-5.7921,-5.766,-5.7503,-5.719,-5.6223,-5.545,-5.5188,-5.4898,-5.4671,-5.4511,-5.4309,-5.4176,-5.4098,-5.4385,-5.4683,-5.5096,-5.5576,-5.5361,-5.509,-5.5041,-5.4942,-5.4769,-5.4794,-5.4645,-5.4744,-5.4892,-5.4818,-5.457,-5.4496,-5.4397,-5.4472,-5.4496,-5.4272,-5.4074,-5.4023,-5.4197,-5.457,-6.5508,-6.5681,-6.594,-6.6112,-6.6112,-6.6283,-6.654,-6.6882,-6.7477,-6.8009,-6.8345,-6.8371,-6.8597,-6.868,-6.8764,-6.8764,-6.8764,-6.8764,-6.8764,-6.8764,-6.8371,-6.8009,-6.7671,-6.7222,-6.6797,-6.6455,-6.6283,-6.6369,-6.6112,-6.6112,-6.6112,-6.6112,-6.6112,-6.6283,-6.6455,-6.6369,-6.6369,-6.6283,-6.6197,-6.6112,-6.6112,-6.6112,-6.6197,-6.654,-6.6711,-6.684,-6.6916,-6.7143,-6.6945,-6.6618,-6.6624,-6.6506,-6.6047,-6.614,-6.5992,-6.5654,-6.5711,-6.5238,-6.5079,-6.474,-6.4481,-6.3856,-6.3177,-6.2759,-6.2624,-6.21,-6.1917,-6.1835,-6.1289,-6.0645,-6.0588,-5.9725,-5.9281,-5.9098,-5.8915,-5.8627,-5.8444,-5.847,-5.8314,-5.8104,-5.7948,-5.7008,-5.6054,-5.5527,-5.52,-5.4873,-5.4618,-5.4209,-5.3954,-5.3648,-5.3419,-5.3823,-5.4116,-5.447,-5.4672,-5.4647,-5.4645,-5.4645,-5.4447,-5.4151,-5.4199,-5.4347,-5.4272,-5.4347,-5.4197,-5.4122,-5.4122,-5.4173,-5.4248,-5.4197,-5.4197,-5.4272,-5.4371,-5.4595,-5.4967,-6.5075,-6.5421,-6.5681,-6.594,-6.6112,-6.6112,-6.6369,-6.6797,-6.7137,-6.7502,-6.7925,-6.8119,-6.8287,-6.8623,-6.8764,-6.8764,-6.8764,-6.8764,-6.8597,-6.8597,-6.8177,-6.7671,-6.7222,-6.6797,-6.6455,-6.6112,-6.6112,-6.6112,-6.6112,-6.6112,-6.6112,-6.6112,-6.6112,-6.6112,-6.6197,-6.6112,-6.6112,-6.6112,-6.6112,-6.6112,-6.6112,-6.6197,-6.6369,-6.6711,-6.6967,-6.7197,-6.7646,-6.7763,-6.7744,-6.7544,-6.753,-6.7572,-6.7134,-6.6959,-6.6756,-6.6495,-6.589,-6.526,-6.4758,-6.4521,-6.437,-6.4165,-6.3285,-6.2637,-6.2454,-6.1806,-6.1623,-6.1516,-6.1431,-6.1271,-6.0932,-6.0091,-5.9783,-5.96,-5.9157,-5.8869,-5.8544,-5.8544,-5.8167,-5.8082,-5.783,-5.6814,-5.5977,-5.565,-5.528,-5.4911,-5.4612,-5.4108,-5.3655,-5.3369,-5.3178,-5.3548,-5.3833,-5.4083,-5.4279,-5.4374,-5.4322,-5.4197,-5.3999,-5.3777,-5.3825,-5.4047,-5.3897,-5.3822,-5.3921,-5.3996,-5.3897,-5.3972,-5.4369,-5.4569,-5.4719,-5.4744,-5.4768,-5.4967,-5.5337,-6.4552,-6.5335,-6.5446,-6.5681,-6.6026,-6.6112,-6.6369,-6.6797,-6.6797,-6.7052,-6.7477,-6.7925,-6.8203,-6.8287,-6.8597,-6.8764,-6.8764,-6.8764,-6.8597,-6.8287,-6.7925,-6.7392,-6.6882,-6.6455,-6.6197,-6.6112,-6.6112,-6.6112,-6.6112,-6.6112,-6.6112,-6.6112,-6.6112,-6.6112,-6.6112,-6.6112,-6.6112,-6.6112,-6.6112,-6.6112,-6.6112,-6.6112,-6.6455,-6.6797,-6.7222,-6.7646,-6.8093,-6.8403,-6.857,-6.8576,-6.8685,-6.8372,-6.8194,-6.8011,-6.7592,-6.6907,-6.5958,-6.5169,-6.4302,-6.4145,-6.3958,-6.3783,-6.2964,-6.2067,-6.1634,-6.1505,-6.1477,-6.1448,-6.1316,-6.1308,-6.1092,-6.0732,-6.0471,-6.0028,-5.9508,-5.9149,-5.8698,-5.8347,-5.7893,-5.7667,-5.7569,-5.6913,-5.6277,-5.5874,-5.5471,-5.4911,-5.4638,-5.4322,-5.3822,-5.3403,-5.335,-5.3585,-5.3814,-5.3789,-5.3906,-5.39,-5.3798,-5.3596,-5.3747,-5.3624,-5.3747,-5.3747,-5.3822,-5.3846,-5.387,-5.3994,-5.4289,-5.4463,-5.4713,-5.4988,-5.5533,-5.5436,-5.5435,-5.546,-5.5705,-6.4202,-6.4465,-6.5075,-6.5508,-6.5594,-6.594,-6.6197,-6.6283,-6.6283,-6.654,-6.7052,-6.7477,-6.784,-6.8203,-6.8597,-6.8764,-6.8764,-6.8764,-6.8764,-6.8345,-6.7815,-6.7477,-6.7052,-6.654,-6.6197,-6.6112,-6.6112,-6.6112,-6.6112,-6.6112,-6.6112,-6.6112,-6.6112,-6.6112,-6.6112,-6.6112,-6.6112,-6.6112,-6.6112,-6.6112,-6.6112,-6.6112,-6.654,-6.7137,-6.7392,-6.7925,-6.8513,-6.868,-6.8764,-6.8764,-6.8764,-6.869,-6.8664,-6.8194,-6.7537,-6.6221,-6.5615,-6.5059,-6.4031,-6.3661,-6.3554,-6.3235,-6.2547,-6.1999,-6.1626,-6.1479,-6.1454,-6.1299,-6.1042,-6.0936,-6.0906,-6.0725,-6.0519,-6.0157,-5.9666,-5.9204,-5.8753,-5.8397,-5.7918,-5.7389,-5.7291,-5.6912,-5.6331,-5.6081,-5.568,-5.5092,-5.4678,-5.4411,-5.4073,-5.3672,-5.3414,-5.369,-5.3717,-5.3687,-5.3531,-5.3446,-5.3219,-5.3068,-5.3295,-5.3446,-5.347,-5.362,-5.3747,-5.3991,-5.4307,-5.4579,-5.4878,-5.5153,-5.5577,-5.6224,-5.6749,-5.6402,-5.6128,-5.6127,-5.6051,-6.3851,-6.4114,-6.4814,-6.5335,-6.5681,-6.594,-6.6112,-6.6112,-6.6112,-6.6283,-6.6626,-6.7222,-6.7646,-6.8009,-6.8513,-6.8764,-6.8764,-6.8764,-6.868,-6.8345,-6.7815,-6.7392,-6.6967,-6.654,-6.6197,-6.6112,-6.6112,-6.6112,-6.6112,-6.6112,-6.6112,-6.6112,-6.6112,-6.6112,-6.6112,-6.6112,-6.6112,-6.6112,-6.6112,-6.6112,-6.6112,-6.6283,-6.6882,-6.7392,-6.7561,-6.8177,-6.868,-6.8764,-6.8764,-6.8764,-6.8764,-6.8764,-6.8738,-6.8289,-6.7541,-6.6356,-6.5616,-6.4873,-6.3817,-6.3331,-6.3117,-6.2829,-6.2496,-6.218,-6.1609,-6.116,-6.1092,-6.089,-6.0635,-6.0457,-6.0532,-6.0582,-6.0378,-6.0224,-5.9737,-5.9201,-5.8846,-5.8491,-5.791,-5.7306,-5.6953,-5.6602,-5.6302,-5.62,-5.5955,-5.5588,-5.5271,-5.4932,-5.4516,-5.4078,-5.3764,-5.3644,-5.3567,-5.3459,-5.335,-5.3143,-5.2992,-5.2916,-5.3143,-5.3243,-5.3267,-5.3708,-5.4227,-5.4596,-5.4913,-5.5238,-5.5564,-5.6167,-5.6619,-5.7246,-5.7548,-5.7325,-5.69,-5.6649,-5.6647,-6.3498,-6.3939,-6.4527,-6.5223,-6.6026,-6.6112,-6.6112,-6.6112,-6.6197,-6.6197,-6.6369,-6.7137,-6.7561,-6.7925,-6.8429,-6.8764,-6.8764,-6.8764,-6.868,-6.8203,-6.773,-6.7392,-6.6967,-6.6369,-6.6112,-6.6112,-6.6112,-6.6112,-6.6112,-6.6112,-6.6112,-6.6112,-6.6112,-6.6112,-6.6112,-6.6112,-6.6112,-6.6112,-6.6112,-6.6112,-6.6197,-6.654,-6.7052,-6.7477,-6.7925,-6.8371,-6.868,-6.8764,-6.8764,-6.8764,-6.8764,-6.8764,-6.8654,-6.8377,-6.7596,-6.6766,-6.5844,-6.4843,-6.3924,-6.3306,-6.303,-6.2873,-6.2797,-6.2415,-6.1868,-6.1483,-6.1368,-6.0528,-6.0199,-6.015,-6.0125,-6.0176,-6.01,-5.9998,-5.9718,-5.9261,-5.8907,-5.8452,-5.7845,-5.7341,-5.694,-5.6589,-5.6093,-5.5895,-5.5797,-5.5799,-5.5605,-5.5188,-5.477,-5.4377,-5.401,-5.3667,-5.3613,-5.3504,-5.3199,-5.3068,-5.2916,-5.2916,-5.3015,-5.3309,-5.3504,-5.4067,-5.4832,-5.5101,-5.5424,-5.5925,-5.6354,-5.701,-5.7541,-5.7872,-5.81,-5.8076,-5.7851,-5.7524,-5.6949,-6.3322,-6.3586,-6.4353,-6.5223,-6.6026,-6.6112,-6.6112,-6.6112,-6.654,-6.6626,-6.6797,-6.7222,-6.7756,-6.8009,-6.8513,-6.8764,-6.8764,-6.8764,-6.8764,-6.8429,-6.7899,-6.7477,-6.7137,-6.654,-6.6197,-6.6112,-6.6112,-6.6112,-6.6112,-6.6112,-6.6112,-6.6112,-6.6112,-6.6112,-6.6112,-6.6112,-6.6112,-6.6112,-6.6112,-6.6112,-6.6197,-6.654,-6.7052,-6.7477,-6.7925,-6.8429,-6.868,-6.8764,-6.8764,-6.8764,-6.8764,-6.8764,-6.8764,-6.8371,-6.7667,-6.6785,-6.6084,-6.5024,-6.4194,-6.3576,-6.3274,-6.2973,-6.2766,-6.2527,-6.2258,-6.2088,-6.1461,-6.0415,-5.9731,-5.9711,-5.9714,-5.9714,-5.9792,-5.9741,-5.9665,-5.9286,-5.8932,-5.8328,-5.77,-5.7374,-5.6948,-5.6449,-5.5953,-5.573,-5.5558,-5.5386,-5.5238,-5.4992,-5.472,-5.4327,-5.4079,-5.3832,-5.3755,-5.3648,-5.3295,-5.3068,-5.2916,-5.2811,-5.2911,-5.3276,-5.3713,-5.4573,-5.5337,-5.5588,-5.5912,-5.6541,-5.7246,-5.8006,-5.839,-5.8573,-5.8677,-5.8755,-5.873,-5.8504,-5.76,-6.341,-6.3763,-6.4639,-6.5421,-6.6026,-6.6112,-6.6197,-6.6455,-6.6711,-6.7052,-6.7417,-6.7671,-6.7925,-6.8287,-6.8597,-6.8764,-6.8764,-6.8764,-6.8764,-6.8513,-6.8177,-6.7756,-6.7248,-6.6711,-6.6369,-6.6197,-6.6112,-6.6112,-6.6112,-6.6112,-6.6112,-6.6112,-6.6112,-6.6112,-6.6112,-6.6112,-6.6112,-6.6112,-6.6112,-6.6112,-6.6197,-6.6711,-6.7137,-6.7587,-6.8093,-6.8513,-6.868,-6.8764,-6.8764,-6.8764,-6.8764,-6.8764,-6.8597,-6.8177,-6.7712,-6.6982,-6.6171,-6.5285,-6.4538,-6.3977,-6.3626,-6.3192,-6.2652,-6.2331,-6.2124,-6.1827,-6.1141,-6.0099,-5.9425,-5.9255,-5.8986,-5.899,-5.899,-5.894,-5.8915,-5.8688,-5.844,-5.8067,-5.7643,-5.7419,-5.6922,-5.6426,-5.6004,-5.5782,-5.5534,-5.5115,-5.4967,-5.4793,-5.452,-5.4248,-5.4047,-5.3897,-5.3822,-5.3596,-5.3295,-5.3068,-5.2916,-5.2811,-5.2905,-5.385,-5.4759,-5.535,-5.5818,-5.6167,-5.6619,-5.7409,-5.8093,-5.8607,-5.902,-5.9103,-5.923,-5.9382,-5.9357,-5.9207,-5.8275,-6.3554,-6.4167,-6.4951,-6.5631,-6.6112,-6.6197,-6.6455,-6.6797,-6.6967,-6.7417,-6.8119,-6.8203,-6.8287,-6.8455,-6.8597,-6.868,-6.8764,-6.8764,-6.8764,-6.868,-6.8371,-6.7925,-6.7502,-6.6967,-6.654,-6.6197,-6.6112,-6.6112,-6.6112,-6.6112,-6.6112,-6.6112,-6.6112,-6.6112,-6.6112,-6.6112,-6.6112,-6.6112,-6.6112,-6.6112,-6.6455,-6.6967,-6.7307,-6.7815,-6.8235,-6.8764,-6.8764,-6.8764,-6.8764,-6.8764,-6.8764,-6.8764,-6.8513,-6.8093,-6.773,-6.7103,-6.6306,-6.5578,-6.5032,-6.4454,-6.4028,-6.3435,-6.2655,-6.2241,-6.2059,-6.1466,-6.0678,-5.9999,-5.9305,-5.887,-5.8605,-5.8335,-5.8335,-5.831,-5.8364,-5.8364,-5.804,-5.7819,-5.7647,-5.745,-5.7007,-5.6491,-5.612,-5.5824,-5.5579,-5.5112,-5.4767,-5.4593,-5.4369,-5.4146,-5.3897,-5.3822,-5.3822,-5.3596,-5.3295,-5.3143,-5.2992,-5.321,-5.3499,-5.4711,-5.5686,-5.6028,-5.6395,-5.6866,-5.74,-5.7927,-5.8398,-5.8837,-5.9173,-5.9483,-5.9483,-5.9508,-5.9483,-5.9205,-5.8675,-6.3717,-6.4518,-6.469,-6.5257,-6.6061,-6.6429,-6.6711,-6.6882,-6.7587,-6.8035,-6.8209,-6.8513,-6.868,-6.8654,-6.8764,-6.8711,-6.8633,-6.8711,-6.8764,-6.8764,-6.8455,-6.8009,-6.7502,-6.6967,-6.654,-6.6283,-6.6112,-6.6112,-6.6112,-6.6112,-6.6112,-6.6112,-6.6112,-6.6112,-6.6112,-6.6112,-6.6112,-6.6112,-6.6112,-6.6112,-6.6369,-6.6882,-6.7392,-6.7815,-6.8319,-6.868,-6.8764,-6.8764,-6.8764,-6.8764,-6.8764,-6.8764,-6.8513,-6.8093,-6.7646,-6.7307,-6.6398,-6.5795,-6.5308,-6.4982,-6.4496,-6.3511,-6.2779,-6.2125,-6.1727,-6.1042,-6.033,-5.9728,-5.9228,-5.8998,-5.8686,-5.8374,-5.8251,-5.8178,-5.8129,-5.8129,-5.8031,-5.7908,-5.781,-5.7565,-5.7193,-5.6675,-5.6079,-5.588,-5.5755,-5.5315,-5.4924,-5.4748,-5.4651,-5.4259,-5.3918,-5.3966,-5.4015,-5.3822,-5.3672,-5.3318,-5.3191,-5.3485,-5.4043,-5.5052,-5.5895,-5.6533,-5.69,-5.7076,-5.7576,-5.8183,-5.8599,-5.8965,-5.9276,-5.9483,-5.9483,-5.9508,-5.9483,-5.9282,-5.8677]},{"header":{"parameterUnit":"m.s-1","parameterCategory":1,"la1":31.0,"la2":29.5877,"lo1":-88.7671,"lo2":-86.6584,"dy":0.0162,"dx":0.0185,"nx":115,"ny":88,"refTime":"2023-06-18T06:00:00:Z","depth":0,"parameterNumber":3,"parameterNumberName":"V-component_of_WINDS"},"data":[0.0,0.0,0.0,0.0,0.0,0.0,0.0,0.0,0.0,0.0,0.0,0.0,0.0,0.0,0.0,0.0,0.0,0.0,0.0,0.0,0.0,0.0,0.0,0.0,0.0,0.0,0.0,0.0,0.0,0.0,0.0,0.0,0.0,0.0,0.0,0.0,0.0,0.0,0.0,0.0,0.0,0.0,0.0,0.0,0.0,0.0,0.0,0.0,0.0,0.0,0.0,0.0,0.0,0.0,0.0,0.0,0.0,0.0,0.0,0.0,0.0,0.0,0.0,0.0,0.0,0.0,0.0,0.0,0.0,0.0,0.0,0.0,0.0,0.0,0.0,0.0,0.0,0.0,0.0,0.0,0.0,0.0,0.0,0.0,0.0,0.0,0.0,0.0,0.0,0.0,0.0,0.0,0.0,0.0,0.0,0.0,0.0,0.0,0.0,0.0,0.0,0.0,0.0,0.0,0.0,0.0,0.0,0.0,0.0,0.0,0.0,0.0,0.0,0.0,0.0,0.0,0.0,0.0,0.0,0.0,0.0,0.0,0.0,0.0,0.0,0.0,0.0,0.0,0.0,0.0,0.0,0.0,0.0,0.0,0.0,0.0,0.0,0.0,0.0,0.0,0.0,0.0,0.0,0.0,0.0,0.0,0.0,0.0,0.0,0.0,0.0,0.0,0.0,0.0,0.0,0.0,0.0,0.0,0.0,0.0,0.0,0.0,0.0,0.0,0.0,0.0,0.0,0.0,0.0,0.0,0.0,0.0,0.0,0.0,0.0,0.0,0.0,0.0,0.0,0.0,0.0,0.0,0.0,0.0,0.0,0.0,0.0,0.0,0.0,0.0,0.0,0.0,0.0,0.0,0.0,0.0,0.0,0.0,0.0,0.0,0.0,0.0,0.0,0.0,0.0,0.0,0.0,0.0,0.0,0.0,0.0,0.0,0.0,0.0,0.0,0.0,0.0,0.0,0.0,0.0,0.0,0.0,0.0,0.0,0.0,0.0,0.0,0.0,0.0,0.0,0.0,0.0,0.0,0.0,0.0,0.0,0.0,0.0,0.0,0.0,0.0,0.0,0.0,0.0,0.0,0.0,0.0,0.0,0.0,0.0,0.0,0.0,0.0,0.0,0.0,0.0,0.0,0.0,0.0,0.0,0.0,0.0,0.0,0.0,0.0,0.0,0.0,0.0,0.0,0.0,0.0,0.0,0.0,0.0,0.0,0.0,0.0,0.0,0.0,0.0,0.0,0.0,0.0,0.0,0.0,0.0,0.0,0.0,0.0,0.0,0.0,0.0,0.0,0.0,0.0,0.0,0.0,0.0,0.0,0.0,0.0,0.0,0.0,0.0,0.0,0.0,0.0,0.0,0.0,0.0,0.0,0.0,0.0,0.0,0.0,0.0,0.0,0.0,0.0,0.0,0.0,0.0,0.0,0.0,0.0,0.0,0.0,0.0,0.0,0.0,0.0,0.0,0.0,0.0,0.0,0.0,0.0,0.0,0.0,0.0,0.0,0.0,0.0,0.0,0.0,0.0,0.0,0.0,0.0,0.0,0.0,0.0,0.0,0.0,0.0,0.0,0.0,0.0,0.0,0.0,0.0,0.0,0.0,0.0,0.0,0.0,0.0,0.0,0.0,0.0,0.0,0.0,0.0,0.0,0.0,0.0,0.0,0.0,0.0,0.0,0.0,0.0,0.0,0.0,0.0,0.0,0.0,0.0,0.0,0.0,0.0,0.0,0.0,0.0,0.0,0.0,0.0,0.0,0.0,0.0,0.0,0.0,0.0,0.0,0.0,0.0,0.0,0.0,0.0,0.0,0.0,0.0,0.0,0.0,0.0,0.0,0.0,0.0,0.0,0.0,0.0,0.0,0.0,0.0,0.0,0.0,0.0,0.0,0.0,0.0,0.0,0.0,0.0,0.0,0.0,0.0,0.0,0.0,0.0,0.0,0.0,0.0,0.0,0.0,0.0,0.0,0.0,0.0,0.0,0.0,0.0,0.0,0.0,0.0,0.0,0.0,0.0,0.0,0.0,0.0,0.0,0.0,0.0,0.0,0.0,0.0,0.0,0.0,0.0,0.0,0.0,0.0,0.0,0.0,0.0,0.0,0.0,0.0,0.0,0.0,0.0,0.0,0.0,0.0,0.0,0.0,0.0,0.0,0.0,0.0,0.0,0.0,0.0,0.0,0.0,0.0,0.0,0.0,0.0,0.0,0.0,0.0,0.0,0.0,0.0,0.0,0.0,0.0,0.0,0.0,0.0,0.0,0.0,0.0,0.0,0.0,0.0,0.0,0.0,0.0,0.0,0.0,0.0,0.0,0.0,0.0,0.0,0.0,0.0,0.0,0.0,0.0,0.0,0.0,0.0,0.0,0.0,0.0,0.0,0.0,0.0,0.0,0.0,0.0,0.0,0.0,0.0,0.0,0.0,0.0,0.0,0.0,0.0,0.0,0.0,0.0,0.0,0.0,0.0,0.0,0.0,0.0,0.0,0.0,0.0,0.0,0.0,0.0,0.0,0.0,0.0,0.0,0.0,0.0,0.0,0.0,0.0,0.0,0.0,0.0,0.0,0.0,0.0,0.0,0.0,0.0,0.0,0.0,0.0,0.0,0.0,0.0,0.0,0.0,0.0,0.0,0.0,0.0,0.0,0.0,0.0,0.0,0.0,0.0,0.0,0.0,0.0,0.0,0.0,0.0,0.0,0.0,0.0,0.0,0.0,0.0,0.0,0.0,0.0,0.0,0.0,0.0,0.0,0.0,0.0,0.0,0.0,0.0,0.0,0.0,0.0,0.0,0.0,0.0,0.0,0.0,0.0,0.0,0.0,0.0,0.0,0.0,0.0,0.0,0.0,0.0,0.0,0.0,0.0,0.0,0.0,0.0,0.0,0.0,0.0,0.0,0.0,0.0,0.0,0.0,0.0,0.0,0.0,0.0,0.0,0.0,0.0,0.0,0.0,0.0,0.0,0.0,0.0,0.0,0.0,0.0,0.0,0.0,0.0,0.0,0.0,0.0,0.0,0.0,0.0,0.0,0.0,0.0,0.0,0.0,0.0,0.0,0.0,0.0,0.0,0.0,0.0,0.0,0.0,0.0,0.0,0.0,0.0,0.0,0.0,0.0,0.0,0.0,0.0,0.0,0.0,0.0,0.0,0.0,0.0,0.0,0.0,0.0,0.0,0.0,0.0,0.0,0.0,0.0,0.0,0.0,0.0,0.0,0.0,0.0,0.0,0.0,0.0,0.0,0.0,0.0,0.0,0.0,0.0,0.0,0.0,0.0,0.0,0.0,0.0,0.0,0.0,0.0,0.0,0.0,0.0,0.0,0.0,0.0,0.0,0.0,0.0,0.0,0.0,0.0,0.0,0.0,0.0,0.0,0.0,0.0,0.0,0.0,0.0,0.0,0.0,0.0,0.0,0.0,0.0,0.0,0.0,0.0,0.0,0.0,0.0,0.0,0.0,0.0,0.0,0.0,0.0,0.0,0.0,0.0,0.0,0.0,0.0,0.0,0.0,0.0,0.0,0.0,0.0,0.0,0.0,0.0,0.0,0.0,0.0,0.0,0.0,0.0,0.0,0.0,0.0,0.0,0.0,0.0,0.0,0.0,0.0,0.0,0.0,0.0,0.0,0.0,0.0,0.0,0.0,0.0,0.0,0.0,0.0,0.0,0.0,0.0,0.0,0.0,0.0,0.0,0.0,0.0,0.0,0.0,0.0,0.0,0.0,0.0,0.0,0.0,0.0,0.0,0.0,0.0,0.0,0.0,0.0,0.0,0.0,0.0,0.0,0.0,0.0,0.0,0.0,0.0,0.0,0.0,0.0,0.0,0.0,0.0,0.0,0.0,0.0,0.0,0.0,0.0,0.0,0.0,0.0,0.0,0.0,0.0,0.0,0.0,0.0,0.0,0.0,0.0,0.0,0.0,0.0,0.0,0.0,0.0,0.0,0.0,0.0,0.0,0.0,0.0,0.0,0.0,0.0,0.0,0.0,0.0,0.0,0.0,0.0,0.0,0.0,0.0,0.0,0.0,0.0,0.0,0.0,0.0,0.0,0.0,0.0,0.0,0.0,0.0,0.0,0.0,0.0,0.0,0.0,0.0,0.0,0.0,0.0,0.0,0.0,0.0,0.0,0.0,0.0,0.0,0.0,0.0,0.0,0.0,0.0,0.0,0.0,0.0,0.0,0.0,0.0,0.0,0.0,0.0,0.0,0.0,0.0,0.0,0.0,0.0,0.0,0.0,0.0,0.0,0.0,0.0,0.0,0.0,-1.3424,0.0,0.0,0.0,0.0,0.0,0.0,0.0,0.0,0.0,0.0,0.0,0.0,0.0,0.0,0.0,0.0,0.0,0.0,0.0,0.0,0.0,0.0,0.0,0.0,0.0,0.0,0.0,0.0,0.0,0.0,0.0,0.0,0.0,0.0,0.0,0.0,0.0,0.0,0.0,0.0,0.0,0.0,0.0,0.0,0.0,0.0,0.0,0.0,0.0,0.0,0.0,0.0,0.0,0.0,0.0,0.0,0.0,0.0,0.0,0.0,0.0,0.0,0.0,0.0,0.0,0.0,0.0,0.0,0.0,0.0,0.0,0.0,0.0,0.0,0.0,0.0,0.0,0.0,0.0,0.0,0.0,0.0,0.0,0.0,0.0,0.0,0.0,0.0,0.0,0.0,0.0,0.0,0.0,0.0,0.0,0.0,0.0,0.0,0.0,0.0,0.0,0.0,0.0,0.0,0.0,0.0,0.0,0.0,0.0,0.0,-1.3558,-1.3754,-1.3901,-1.4082,-1.4214,0.0,0.0,0.0,0.0,0.0,0.0,0.0,0.0,0.0,0.0,0.0,0.0,0.0,0.0,0.0,0.0,0.0,0.0,0.0,0.0,0.0,0.0,0.0,0.0,0.0,0.0,0.0,0.0,0.0,0.0,0.0,0.0,0.0,0.0,0.0,0.0,0.0,0.0,0.0,0.0,0.0,0.0,0.0,0.0,0.0,0.0,0.0,0.0,0.0,0.0,0.0,0.0,0.0,0.0,0.0,0.0,0.0,0.0,0.0,0.0,0.0,0.0,0.0,0.0,0.0,0.0,0.0,0.0,0.0,0.0,0.0,0.0,0.0,0.0,0.0,0.0,0.0,0.0,0.0,0.0,0.0,0.0,0.0,0.0,0.0,0.0,0.0,0.0,0.0,0.0,0.0,0.0,0.0,0.0,0.0,0.0,0.0,0.0,0.0,0.0,0.0,0.0,0.0,0.0,0.0,0.0,0.0,0.0,0.0,0.0,0.0,0.0,-1.4863,-1.4998,-1.5181,0.0,0.0,0.0,0.0,0.0,0.0,0.0,0.0,0.0,0.0,0.0,0.0,0.0,0.0,0.0,0.0,0.0,0.0,0.0,0.0,0.0,0.0,0.0,0.0,0.0,0.0,0.0,0.0,0.0,0.0,0.0,0.0,0.0,0.0,0.0,0.0,0.0,0.0,0.0,0.0,0.0,0.0,0.0,0.0,0.0,0.0,0.0,0.0,0.0,0.0,0.0,0.0,0.0,0.0,0.0,0.0,0.0,0.0,0.0,0.0,0.0,0.0,0.0,0.0,0.0,0.0,0.0,0.0,0.0,0.0,0.0,0.0,0.0,0.0,0.0,0.0,0.0,0.0,0.0,0.0,0.0,0.0,0.0,0.0,0.0,0.0,0.0,0.0,0.0,0.0,0.0,0.0,0.0,0.0,0.0,0.0,0.0,0.0,0.0,0.0,0.0,0.0,0.0,0.0,0.0,0.0,0.0,0.0,0.0,0.0,-1.5087,-1.5425,-1.5912,0.0,-1.6695,0.0,0.0,0.0,0.0,0.0,0.0,0.0,0.0,0.0,0.0,0.0,0.0,0.0,0.0,0.0,0.0,0.0,0.0,0.0,0.0,0.0,0.0,0.0,0.0,0.0,0.0,0.0,0.0,0.0,0.0,0.0,0.0,0.0,0.0,0.0,0.0,0.0,0.0,0.0,0.0,0.0,0.0,0.0,0.0,0.0,0.0,0.0,0.0,0.0,0.0,0.0,0.0,0.0,0.0,0.0,0.0,0.0,0.0,0.0,0.0,0.0,0.0,0.0,0.0,0.0,0.0,0.0,0.0,0.0,0.0,0.0,0.0,0.0,0.0,0.0,0.0,0.0,0.0,0.0,0.0,0.0,0.0,0.0,0.0,0.0,0.0,0.0,0.0,0.0,0.0,0.0,0.0,0.0,0.0,0.0,0.0,0.0,0.0,0.0,0.0,0.0,0.0,0.0,0.0,0.0,0.0,0.0,0.0,0.0,0.0,-1.6,-1.6667,-1.7235,-1.7645,0.0,0.0,0.0,0.0,0.0,0.0,0.0,0.0,0.0,0.0,0.0,0.0,0.0,0.0,0.0,0.0,0.0,0.0,0.0,0.0,0.0,0.0,0.0,0.0,0.0,0.0,0.0,0.0,0.0,0.0,0.0,0.0,0.0,0.0,0.0,0.0,0.0,0.0,0.0,0.0,0.0,0.0,0.0,0.0,0.0,0.0,0.0,0.0,0.0,0.0,0.0,0.0,0.0,0.0,0.0,0.0,0.0,0.0,0.0,0.0,0.0,0.0,0.0,0.0,0.0,0.0,0.0,0.0,0.0,0.0,0.0,0.0,0.0,0.0,0.0,0.0,0.0,0.0,0.0,0.0,0.0,0.0,0.0,0.0,0.0,0.0,0.0,0.0,0.0,0.0,0.0,0.0,0.0,0.0,0.0,0.0,0.0,0.0,0.0,0.0,0.0,0.0,0.0,0.0,0.0,0.0,0.0,0.0,0.0,0.0,-1.6175,-1.683,-1.7786,-1.8345,-1.8644,-1.8633,0.0,0.0,0.0,0.0,0.0,0.0,0.0,0.0,0.0,0.0,0.0,0.0,0.0,0.0,0.0,0.0,0.0,0.0,0.0,0.0,0.0,0.0,0.0,0.0,0.0,0.0,0.0,0.0,0.0,0.0,0.0,0.0,0.0,0.0,0.0,0.0,0.0,0.0,0.0,0.0,0.0,0.0,0.0,0.0,0.0,0.0,0.0,0.0,0.0,0.0,0.0,0.0,0.0,0.0,0.0,0.0,0.0,0.0,0.0,0.0,0.0,0.0,0.0,0.0,0.0,0.0,0.0,0.0,0.0,0.0,0.0,0.0,0.0,0.0,0.0,0.0,0.0,0.0,0.0,0.0,0.0,0.0,0.0,0.0,0.0,0.0,0.0,0.0,0.0,0.0,0.0,0.0,0.0,0.0,0.0,0.0,0.0,0.0,0.0,0.0,0.0,0.0,0.0,0.0,0.0,0.0,0.0,0.0,-1.6263,-1.667,-1.7442,-1.8598,-1.9039,-1.9242,0.0,0.0,0.0,0.0,0.0,0.0,0.0,0.0,0.0,0.0,0.0,0.0,0.0,0.0,0.0,0.0,0.0,0.0,0.0,0.0,0.0,0.0,0.0,0.0,0.0,0.0,0.0,0.0,0.0,0.0,0.0,0.0,0.0,0.0,0.0,0.0,0.0,0.0,0.0,0.0,0.0,0.0,0.0,0.0,0.0,0.0,0.0,0.0,0.0,0.0,0.0,0.0,0.0,0.0,0.0,0.0,0.0,0.0,0.0,0.0,0.0,0.0,0.0,0.0,0.0,0.0,0.0,0.0,0.0,0.0,0.0,0.0,0.0,0.0,0.0,0.0,0.0,0.0,0.0,0.0,0.0,0.0,0.0,0.0,0.0,0.0,0.0,0.0,0.0,0.0,0.0,0.0,0.0,0.0,0.0,0.0,0.0,0.0,0.0,0.0,0.0,0.0,0.0,0.0,0.0,0.0,0.0,0.0,0.0,-1.6687,-1.7696,-1.8489,-1.9052,-1.9595,-1.9962,0.0,0.0,0.0,0.0,0.0,0.0,0.0,0.0,0.0,0.0,0.0,0.0,0.0,0.0,0.0,0.0,0.0,0.0,0.0,0.0,0.0,0.0,0.0,0.0,0.0,0.0,0.0,0.0,0.0,0.0,0.0,0.0,0.0,0.0,0.0,0.0,0.0,0.0,0.0,0.0,0.0,0.0,0.0,0.0,0.0,0.0,0.0,0.0,0.0,0.0,0.0,0.0,0.0,0.0,0.0,0.0,0.0,0.0,0.0,0.0,0.0,0.0,0.0,0.0,0.0,0.0,0.0,0.0,0.0,0.0,0.0,0.0,0.0,0.0,0.0,0.0,0.0,0.0,0.0,0.0,0.0,0.0,0.0,0.0,0.0,0.0,0.0,0.0,0.0,0.0,0.0,0.0,0.0,0.0,0.0,0.0,0.0,0.0,0.0,0.0,0.0,0.0,0.0,0.0,0.0,0.0,0.0,0.0,0.0,-1.7468,0.0,-1.9273,-1.9733,-2.0313,-2.0709,0.0,0.0,0.0,0.0,0.0,0.0,0.0,0.0,0.0,0.0,0.0,0.0,0.0,0.0,0.0,0.0,0.0,0.0,0.0,0.0,0.0,0.0,0.0,0.0,0.0,0.0,0.0,0.0,0.0,0.0,0.0,0.0,0.0,0.0,0.0,0.0,0.0,0.0,0.0,0.0,0.0,0.0,0.0,0.0,0.0,0.0,0.0,0.0,0.0,0.0,0.0,0.0,0.0,0.0,0.0,0.0,0.0,0.0,0.0,0.0,0.0,0.0,0.0,0.0,0.0,0.0,0.0,0.0,0.0,0.0,0.0,0.0,0.0,0.0,0.0,0.0,0.0,0.0,0.0,0.0,0.0,0.0,0.0,0.0,0.0,0.0,0.0,0.0,0.0,0.0,0.0,0.0,0.0,0.0,0.0,0.0,0.0,0.0,0.0,0.0,0.0,0.0,0.0,0.0,0.0,0.0,0.0,0.0,-1.6784,-1.8585,-1.9112,-1.9749,-2.0566,-2.115,-2.1369,0.0,0.0,0.0,0.0,0.0,0.0,0.0,0.0,0.0,0.0,0.0,0.0,0.0,0.0,0.0,0.0,0.0,0.0,0.0,0.0,0.0,0.0,0.0,0.0,0.0,0.0,0.0,0.0,0.0,0.0,0.0,0.0,0.0,0.0,0.0,0.0,0.0,0.0,0.0,0.0,0.0,0.0,0.0,0.0,0.0,0.0,0.0,0.0,0.0,0.0,0.0,0.0,0.0,0.0,0.0,0.0,0.0,0.0,0.0,0.0,0.0,0.0,0.0,0.0,0.0,0.0,0.0,0.0,0.0,0.0,0.0,0.0,0.0,0.0,0.0,0.0,0.0,0.0,0.0,0.0,0.0,0.0,0.0,0.0,0.0,0.0,0.0,0.0,0.0,0.0,0.0,0.0,0.0,0.0,0.0,0.0,0.0,0.0,0.0,0.0,0.0,0.0,0.0,0.0,0.0,0.0,0.0,0.0,0.0,-1.8549,-1.9554,-2.0231,-2.0613,-2.1461,-2.1904,0.0,0.0,0.0,0.0,0.0,0.0,0.0,0.0,0.0,0.0,0.0,0.0,0.0,0.0,0.0,0.0,0.0,0.0,0.0,0.0,0.0,0.0,0.0,0.0,0.0,0.0,0.0,0.0,0.0,0.0,0.0,0.0,0.0,0.0,0.0,0.0,0.0,0.0,0.0,0.0,0.0,0.0,0.0,0.0,0.0,0.0,0.0,0.0,0.0,0.0,0.0,0.0,0.0,0.0,0.0,0.0,0.0,0.0,0.0,0.0,0.0,0.0,0.0,0.0,0.0,0.0,0.0,0.0,0.0,0.0,0.0,0.0,0.0,0.0,0.0,0.0,0.0,0.0,0.0,0.0,0.0,0.0,0.0,0.0,0.0,0.0,0.0,0.0,0.0,0.0,0.0,0.0,0.0,0.0,0.0,0.0,0.0,0.0,0.0,0.0,0.0,0.0,0.0,0.0,0.0,0.0,0.0,0.0,0.0,-1.9507,-2.0324,-2.095,-2.1446,-2.2171,-2.2637,-2.2798,0.0,0.0,0.0,0.0,0.0,0.0,0.0,0.0,0.0,0.0,0.0,0.0,0.0,0.0,0.0,0.0,0.0,0.0,0.0,0.0,0.0,0.0,0.0,0.0,0.0,0.0,0.0,0.0,0.0,0.0,0.0,0.0,0.0,0.0,0.0,0.0,0.0,0.0,0.0,0.0,0.0,0.0,0.0,0.0,0.0,0.0,0.0,0.0,0.0,0.0,0.0,0.0,0.0,0.0,0.0,0.0,0.0,0.0,0.0,0.0,0.0,0.0,0.0,0.0,0.0,0.0,0.0,0.0,0.0,0.0,0.0,0.0,0.0,0.0,0.0,0.0,0.0,0.0,0.0,0.0,0.0,0.0,0.0,0.0,0.0,0.0,0.0,0.0,0.0,0.0,0.0,0.0,0.0,0.0,0.0,0.0,0.0,0.0,0.0,0.0,0.0,0.0,0.0,0.0,0.0,0.0,0.0,0.0,-2.1197,-2.1357,-2.1913,-2.291,-2.3269,-2.3608,0.0,0.0,0.0,0.0,0.0,0.0,0.0,0.0,0.0,0.0,0.0,0.0,0.0,0.0,0.0,0.0,0.0,0.0,0.0,0.0,0.0,0.0,0.0,0.0,0.0,0.0,0.0,0.0,0.0,0.0,0.0,0.0,0.0,0.0,0.0,0.0,0.0,0.0,0.0,0.0,0.0,0.0,0.0,0.0,0.0,0.0,0.0,0.0,0.0,0.0,0.0,0.0,0.0,0.0,0.0,0.0,0.0,0.0,0.0,0.0,0.0,0.0,0.0,0.0,0.0,0.0,0.0,0.0,0.0,0.0,0.0,0.0,0.0,0.0,0.0,0.0,0.0,0.0,0.0,0.0,0.0,0.0,0.0,0.0,0.0,0.0,0.0,0.0,0.0,0.0,0.0,0.0,0.0,0.0,0.0,0.0,0.0,0.0,0.0,0.0,0.0,0.0,0.0,0.0,0.0,0.0,0.0,0.0,0.0,-2.1664,-2.2645,-2.3341,-2.363,-2.4646,-2.5,0.0,0.0,0.0,0.0,0.0,0.0,0.0,0.0,0.0,0.0,0.0,0.0,0.0,0.0,0.0,0.0,0.0,0.0,0.0,0.0,0.0,0.0,0.0,0.0,0.0,0.0,0.0,0.0,0.0,0.0,0.0,0.0,0.0,0.0,0.0,0.0,0.0,0.0,0.0,0.0,0.0,0.0,0.0,0.0,0.0,0.0,0.0,0.0,0.0,0.0,0.0,0.0,0.0,0.0,0.0,0.0,0.0,0.0,0.0,0.0,0.0,0.0,0.0,0.0,0.0,0.0,0.0,0.0,0.0,0.0,0.0,0.0,0.0,0.0,0.0,0.0,0.0,0.0,0.0,0.0,0.0,0.0,0.0,0.0,0.0,0.0,0.0,0.0,0.0,0.0,0.0,0.0,0.0,0.0,0.0,0.0,0.0,0.0,0.0,0.0,0.0,0.0,0.0,0.0,0.0,0.0,0.0,0.0,-2.0899,-2.2323,-2.367,-2.4874,-2.5879,-2.6272,-2.6427,0.0,0.0,0.0,0.0,0.0,0.0,0.0,0.0,0.0,0.0,0.0,0.0,0.0,0.0,0.0,0.0,0.0,0.0,0.0,0.0,0.0,0.0,0.0,0.0,0.0,0.0,0.0,0.0,0.0,0.0,0.0,0.0,0.0,0.0,0.0,0.0,0.0,0.0,0.0,0.0,0.0,0.0,0.0,0.0,0.0,0.0,0.0,0.0,0.0,0.0,0.0,0.0,0.0,0.0,0.0,0.0,0.0,0.0,0.0,0.0,0.0,0.0,0.0,0.0,0.0,0.0,0.0,0.0,0.0,0.0,0.0,0.0,0.0,0.0,0.0,0.0,0.0,0.0,0.0,0.0,0.0,0.0,0.0,0.0,0.0,0.0,0.0,0.0,0.0,0.0,0.0,0.0,0.0,0.0,0.0,0.0,0.0,0.0,0.0,0.0,0.0,0.0,0.0,0.0,0.0,0.0,0.0,0.0,-2.083,-2.3127,-2.468,-2.6513,-2.8653,-2.8007,-2.7851,0.0,0.0,0.0,0.0,0.0,0.0,0.0,0.0,0.0,0.0,0.0,0.0,0.0,0.0,0.0,0.0,0.0,0.0,0.0,0.0,0.0,0.0,0.0,0.0,0.0,0.0,0.0,0.0,0.0,0.0,0.0,0.0,0.0,0.0,0.0,0.0,0.0,0.0,0.0,0.0,0.0,0.0,0.0,0.0,0.0,0.0,0.0,0.0,0.0,0.0,0.0,0.0,0.0,0.0,0.0,0.0,0.0,0.0,0.0,0.0,0.0,0.0,0.0,0.0,0.0,0.0,0.0,0.0,0.0,0.0,0.0,0.0,0.0,0.0,0.0,0.0,0.0,0.0,0.0,0.0,0.0,0.0,0.0,0.0,0.0,0.0,0.0,0.0,0.0,0.0,0.0,0.0,0.0,0.0,0.0,0.0,0.0,0.0,0.0,0.0,0.0,0.0,0.0,0.0,0.0,0.0,0.0,0.0,-2.2024,-2.3812,-2.5646,-2.7386,-2.9126,-2.9342,-2.9293,0.0,0.0,0.0,0.0,0.0,0.0,0.0,0.0,0.0,0.0,0.0,0.0,0.0,0.0,0.0,0.0,0.0,0.0,0.0,0.0,0.0,0.0,0.0,0.0,0.0,0.0,0.0,0.0,0.0,0.0,0.0,0.0,0.0,0.0,0.0,0.0,0.0,0.0,0.0,0.0,0.0,0.0,0.0,0.0,0.0,0.0,0.0,0.0,-3.137,0.0,0.0,0.0,0.0,0.0,0.0,0.0,0.0,0.0,0.0,0.0,0.0,0.0,0.0,0.0,0.0,0.0,0.0,0.0,0.0,0.0,0.0,0.0,0.0,0.0,0.0,0.0,0.0,0.0,0.0,0.0,0.0,0.0,0.0,0.0,0.0,0.0,0.0,0.0,0.0,0.0,0.0,0.0,0.0,0.0,0.0,0.0,0.0,0.0,0.0,0.0,0.0,0.0,0.0,0.0,0.0,0.0,0.0,0.0,-2.276,-2.4515,-2.6672,-2.8685,-3.0411,-3.1039,-3.0971,0.0,0.0,0.0,0.0,0.0,0.0,0.0,0.0,0.0,0.0,0.0,0.0,0.0,0.0,0.0,0.0,0.0,0.0,0.0,0.0,0.0,0.0,0.0,0.0,0.0,0.0,0.0,0.0,0.0,0.0,0.0,0.0,0.0,0.0,0.0,0.0,0.0,0.0,0.0,0.0,0.0,0.0,0.0,0.0,0.0,0.0,0.0,0.0,0.0,0.0,0.0,0.0,0.0,0.0,0.0,0.0,0.0,0.0,0.0,0.0,0.0,0.0,0.0,0.0,0.0,0.0,0.0,0.0,0.0,0.0,0.0,0.0,0.0,0.0,0.0,0.0,0.0,0.0,0.0,0.0,0.0,0.0,0.0,0.0,0.0,0.0,0.0,0.0,0.0,0.0,0.0,0.0,0.0,0.0,0.0,0.0,0.0,0.0,0.0,0.0,0.0,0.0,0.0,0.0,0.0,0.0,0.0,-2.1627,-2.3489,-2.5444,-2.7915,-3.0065,-3.1883,-3.2679,-3.2642,-3.1805,0.0,0.0,0.0,0.0,0.0,0.0,0.0,0.0,0.0,0.0,0.0,0.0,0.0,0.0,0.0,0.0,0.0,0.0,0.0,0.0,0.0,0.0,0.0,0.0,0.0,0.0,0.0,0.0,0.0,0.0,0.0,0.0,0.0,0.0,0.0,0.0,0.0,0.0,-2.8357,-2.8954,0.0,0.0,0.0,0.0,0.0,0.0,0.0,0.0,-3.3196,0.0,0.0,0.0,0.0,0.0,0.0,0.0,0.0,0.0,0.0,0.0,0.0,0.0,0.0,0.0,0.0,0.0,0.0,0.0,0.0,0.0,0.0,0.0,0.0,0.0,0.0,0.0,0.0,0.0,0.0,0.0,0.0,0.0,0.0,0.0,0.0,0.0,0.0,0.0,0.0,0.0,0.0,0.0,0.0,0.0,0.0,0.0,0.0,0.0,0.0,0.0,0.0,0.0,0.0,0.0,0.0,-2.2217,-2.332,-2.4911,-2.71,-2.931,-3.1168,-3.2514,-3.3713,-3.4005,-3.3419,0.0,0.0,0.0,0.0,0.0,0.0,0.0,0.0,0.0,0.0,0.0,0.0,0.0,0.0,0.0,0.0,0.0,0.0,0.0,0.0,0.0,0.0,0.0,0.0,0.0,0.0,0.0,0.0,0.0,0.0,0.0,0.0,0.0,0.0,0.0,0.0,0.0,0.0,0.0,-3.0976,-3.1639,0.0,0.0,0.0,0.0,0.0,0.0,0.0,0.0,-3.4856,0.0,0.0,0.0,0.0,0.0,0.0,0.0,0.0,0.0,0.0,0.0,0.0,0.0,0.0,0.0,0.0,0.0,0.0,0.0,0.0,0.0,0.0,0.0,0.0,0.0,0.0,0.0,0.0,0.0,0.0,0.0,0.0,0.0,0.0,0.0,0.0,0.0,0.0,0.0,0.0,0.0,0.0,0.0,0.0,0.0,0.0,0.0,0.0,0.0,0.0,0.0,0.0,0.0,0.0,0.0,-2.3929,-2.5292,-2.6965,-2.9037,-3.1309,-3.2974,-3.3955,-3.5079,-3.5224,0.0,0.0,0.0,0.0,0.0,0.0,0.0,0.0,0.0,0.0,0.0,0.0,0.0,0.0,0.0,0.0,0.0,0.0,0.0,0.0,0.0,0.0,0.0,0.0,0.0,0.0,0.0,0.0,0.0,0.0,0.0,0.0,0.0,0.0,0.0,0.0,0.0,0.0,0.0,0.0,-3.2146,-3.2541,-3.2804,0.0,0.0,0.0,0.0,0.0,0.0,-3.5663,-3.6396,0.0,0.0,0.0,0.0,0.0,0.0,0.0,0.0,0.0,0.0,0.0,0.0,0.0,0.0,0.0,0.0,0.0,0.0,0.0,0.0,0.0,0.0,0.0,0.0,0.0,0.0,0.0,0.0,0.0,0.0,0.0,0.0,0.0,0.0,0.0,0.0,0.0,0.0,0.0,0.0,0.0,0.0,0.0,0.0,0.0,0.0,0.0,0.0,0.0,0.0,0.0,0.0,0.0,0.0,0.0,-2.5764,-2.7337,-2.9093,-3.0996,-3.3282,-3.48,-3.5496,-3.6489,-3.6436,0.0,0.0,0.0,0.0,0.0,0.0,0.0,0.0,0.0,0.0,0.0,0.0,0.0,0.0,0.0,0.0,0.0,0.0,0.0,0.0,0.0,0.0,0.0,0.0,0.0,0.0,0.0,0.0,0.0,0.0,0.0,0.0,0.0,0.0,0.0,0.0,0.0,0.0,0.0,0.0,0.0,-3.3516,-3.3553,-3.3515,0.0,0.0,0.0,0.0,-3.5693,-3.6823,0.0,0.0,0.0,0.0,0.0,0.0,0.0,0.0,0.0,0.0,0.0,0.0,0.0,0.0,0.0,0.0,0.0,0.0,0.0,0.0,0.0,0.0,0.0,0.0,0.0,0.0,0.0,0.0,0.0,0.0,0.0,0.0,0.0,0.0,0.0,0.0,0.0,0.0,0.0,0.0,0.0,0.0,0.0,0.0,0.0,0.0,0.0,0.0,0.0,0.0,0.0,0.0,0.0,0.0,0.0,0.0,-2.8148,-2.9429,-3.0974,-3.2624,-3.4699,-3.598,-3.6443,-3.7794,-3.7678,0.0,0.0,0.0,0.0,0.0,0.0,0.0,0.0,0.0,0.0,0.0,0.0,0.0,0.0,0.0,0.0,0.0,0.0,0.0,0.0,0.0,0.0,0.0,0.0,0.0,0.0,0.0,0.0,0.0,0.0,0.0,0.0,0.0,0.0,0.0,0.0,0.0,0.0,0.0,0.0,0.0,-3.541,-3.6311,-3.5796,-3.5468,0.0,0.0,-3.595,-3.7236,-3.8098,0.0,0.0,0.0,0.0,0.0,0.0,0.0,0.0,0.0,0.0,0.0,0.0,0.0,0.0,0.0,0.0,0.0,0.0,0.0,0.0,0.0,0.0,0.0,0.0,0.0,0.0,0.0,0.0,0.0,0.0,0.0,0.0,0.0,0.0,0.0,0.0,0.0,0.0,0.0,0.0,0.0,0.0,0.0,0.0,0.0,0.0,0.0,0.0,0.0,0.0,0.0,0.0,0.0,0.0,0.0,-3.0245,-3.0683,-3.1987,-3.3534,-3.5334,-3.6832,-3.7869,-3.8451,-3.9148,-3.8753,0.0,0.0,0.0,0.0,0.0,0.0,0.0,0.0,0.0,0.0,0.0,0.0,0.0,0.0,0.0,0.0,0.0,0.0,0.0,0.0,0.0,0.0,0.0,0.0,0.0,0.0,0.0,0.0,0.0,0.0,0.0,0.0,0.0,0.0,0.0,0.0,0.0,0.0,0.0,0.0,0.0,0.0,-3.725,-3.686,0.0,0.0,0.0,-3.7671,-3.905,0.0,0.0,0.0,0.0,0.0,0.0,0.0,0.0,0.0,0.0,0.0,0.0,0.0,0.0,0.0,0.0,0.0,0.0,0.0,0.0,0.0,0.0,0.0,0.0,0.0,0.0,0.0,0.0,0.0,0.0,0.0,0.0,0.0,0.0,0.0,0.0,0.0,0.0,0.0,0.0,0.0,0.0,0.0,0.0,0.0,0.0,0.0,0.0,0.0,0.0,0.0,0.0,0.0,0.0,0.0,0.0,0.0,-3.2933,-3.4363,-3.5953,-3.7587,-3.8693,-3.9558,-4.0266,-4.0379,0.0,0.0,0.0,0.0,0.0,0.0,0.0,0.0,0.0,0.0,0.0,0.0,0.0,0.0,0.0,0.0,0.0,0.0,0.0,0.0,0.0,0.0,0.0,0.0,0.0,0.0,0.0,-2.9832,0.0,0.0,0.0,0.0,0.0,0.0,0.0,0.0,0.0,0.0,0.0,0.0,0.0,0.0,-3.7964,-3.8321,-3.8148,-3.8113,0.0,0.0,-3.9365,-4.0509,-4.1451,-4.2305,0.0,0.0,0.0,0.0,0.0,0.0,0.0,0.0,0.0,0.0,0.0,0.0,0.0,0.0,0.0,0.0,0.0,0.0,0.0,0.0,0.0,0.0,0.0,0.0,0.0,0.0,0.0,0.0,0.0,0.0,0.0,0.0,0.0,0.0,0.0,0.0,0.0,0.0,0.0,0.0,0.0,0.0,0.0,0.0,0.0,0.0,0.0,0.0,0.0,0.0,0.0,0.0,0.0,0.0,0.0,-3.4625,-3.6196,-3.7668,-3.8885,-3.9998,-4.0769,-4.1219,-4.1418,-4.0796,0.0,0.0,0.0,0.0,0.0,0.0,0.0,0.0,0.0,0.0,0.0,0.0,0.0,0.0,0.0,0.0,0.0,0.0,0.0,0.0,0.0,0.0,0.0,0.0,0.0,0.0,0.0,0.0,0.0,0.0,0.0,0.0,0.0,0.0,0.0,0.0,0.0,0.0,0.0,0.0,0.0,-3.958,-4.0364,-4.0247,-4.009,0.0,0.0,-4.0646,-4.117,-4.217,-4.2902,-4.3077,0.0,0.0,0.0,0.0,0.0,0.0,0.0,0.0,0.0,0.0,0.0,0.0,0.0,0.0,0.0,0.0,0.0,0.0,0.0,0.0,0.0,0.0,0.0,0.0,0.0,0.0,0.0,0.0,0.0,0.0,0.0,0.0,0.0,0.0,0.0,0.0,0.0,0.0,0.0,0.0,0.0,0.0,0.0,0.0,0.0,0.0,0.0,0.0,0.0,0.0,0.0,0.0,0.0,-3.5936,-3.647,-3.7761,-3.924,-4.0844,-4.1371,-4.1938,-4.2831,-4.2243,-4.1647,0.0,0.0,0.0,0.0,0.0,0.0,0.0,0.0,0.0,0.0,0.0,0.0,0.0,0.0,0.0,0.0,0.0,0.0,0.0,0.0,0.0,0.0,0.0,0.0,0.0,0.0,0.0,0.0,-3.1081,-3.0675,-3.0845,0.0,0.0,0.0,0.0,0.0,0.0,0.0,0.0,0.0,0.0,-4.0752,-4.172,-4.1686,0.0,0.0,-4.2042,-4.2456,-4.3673,-4.4195,-4.4774,-4.5709,-4.5571,0.0,0.0,0.0,0.0,0.0,0.0,0.0,0.0,0.0,0.0,0.0,0.0,0.0,0.0,0.0,0.0,0.0,0.0,0.0,0.0,0.0,0.0,0.0,0.0,0.0,0.0,0.0,0.0,0.0,0.0,0.0,0.0,0.0,0.0,0.0,0.0,0.0,0.0,0.0,0.0,0.0,0.0,0.0,0.0,0.0,0.0,0.0,0.0,0.0,0.0,0.0,0.0,-3.7146,-3.7974,-3.9086,-4.0609,-4.2567,-4.2587,-4.3179,-4.4248,-4.346,-4.2941,0.0,0.0,0.0,0.0,0.0,0.0,0.0,0.0,0.0,0.0,0.0,0.0,0.0,0.0,0.0,0.0,0.0,0.0,0.0,0.0,0.0,0.0,0.0,0.0,0.0,0.0,0.0,0.0,-3.3064,-3.2771,-3.3571,0.0,0.0,0.0,0.0,0.0,0.0,0.0,0.0,0.0,0.0,-4.1841,-4.2852,-4.2871,-4.2938,-4.3342,-4.3379,-4.3816,-4.519,-4.5628,-4.6287,-4.7547,0.0,0.0,0.0,0.0,0.0,0.0,0.0,0.0,0.0,0.0,0.0,0.0,0.0,0.0,0.0,0.0,0.0,0.0,0.0,0.0,0.0,0.0,0.0,0.0,0.0,0.0,0.0,0.0,0.0,0.0,0.0,0.0,0.0,0.0,0.0,0.0,0.0,0.0,0.0,0.0,0.0,0.0,0.0,0.0,0.0,0.0,0.0,0.0,0.0,0.0,0.0,0.0,0.0,-3.8358,-3.8816,-4.0137,-4.1803,-4.3689,-4.3771,-4.4355,-4.548,-4.5209,-4.4759,-4.4059,0.0,0.0,0.0,0.0,0.0,0.0,0.0,0.0,0.0,0.0,0.0,0.0,0.0,0.0,0.0,0.0,0.0,0.0,0.0,0.0,0.0,0.0,0.0,0.0,0.0,0.0,-3.5216,-3.4362,-3.442,0.0,0.0,0.0,0.0,0.0,0.0,0.0,0.0,0.0,0.0,-4.2262,-4.2818,-4.3753,-4.3888,-4.3888,-4.3918,-4.4236,-4.4655,-4.5129,-4.6088,-4.7103,0.0,0.0,0.0,0.0,0.0,0.0,0.0,0.0,0.0,0.0,0.0,0.0,0.0,0.0,0.0,0.0,0.0,0.0,0.0,0.0,0.0,0.0,0.0,0.0,0.0,0.0,0.0,-4.2611,-4.2693,0.0,0.0,0.0,0.0,0.0,0.0,0.0,0.0,0.0,0.0,0.0,-4.9912,-4.9958,0.0,0.0,0.0,0.0,0.0,0.0,0.0,0.0,0.0,0.0,0.0,0.0,-3.9051,-4.0228,-4.1059,-4.2624,-4.4896,-4.4989,-4.554,-4.6705,-4.6431,-4.5646,-4.4394,0.0,0.0,0.0,0.0,0.0,0.0,0.0,0.0,0.0,0.0,0.0,0.0,0.0,0.0,0.0,0.0,0.0,0.0,0.0,0.0,0.0,0.0,0.0,0.0,0.0,-3.8417,0.0,0.0,0.0,0.0,0.0,0.0,0.0,0.0,0.0,0.0,0.0,-4.2077,-4.3446,-4.3965,-4.4476,-4.5389,-4.5326,-4.5253,0.0,0.0,0.0,0.0,0.0,0.0,0.0,0.0,0.0,0.0,0.0,0.0,0.0,0.0,-5.2228,-5.0355,-5.0297,-5.0586,-5.0886,0.0,0.0,0.0,0.0,0.0,0.0,0.0,0.0,0.0,0.0,0.0,0.0,0.0,0.0,0.0,0.0,-4.4819,0.0,0.0,0.0,0.0,0.0,0.0,0.0,0.0,-5.1409,-5.1887,-5.1887,-5.1887,-5.1563,0.0,-5.0391,-4.8835,0.0,0.0,0.0,0.0,0.0,0.0,0.0,0.0,-4.0068,-4.113,-4.2285,-4.3816,-4.582,-4.6315,-4.6863,-4.7568,-4.7105,-4.6364,-4.5319,-4.3403,-4.1972,0.0,0.0,0.0,0.0,0.0,0.0,0.0,0.0,0.0,0.0,0.0,0.0,0.0,0.0,0.0,0.0,0.0,0.0,0.0,0.0,0.0,0.0,0.0,-4.0968,0.0,0.0,0.0,0.0,0.0,0.0,0.0,0.0,0.0,-4.1964,-4.261,-4.364,-4.5049,-4.5365,-4.5743,-4.6416,0.0,0.0,0.0,0.0,0.0,0.0,0.0,-5.1657,-5.3636,-5.4782,-5.5546,-5.5965,-5.6255,-5.6361,-5.6171,0.0,0.0,-5.2888,-5.2647,-5.2892,-5.32,-5.3827,-5.4506,-5.5026,-5.5383,-5.5742,0.0,0.0,0.0,0.0,0.0,0.0,0.0,0.0,-4.5699,-4.6532,0.0,-4.7202,0.0,0.0,0.0,0.0,0.0,0.0,0.0,0.0,-5.3025,-5.3294,-5.3324,-5.3324,-5.3294,-5.3234,-5.2316,-5.1517,-5.0609,-4.6564,0.0,0.0,0.0,0.0,0.0,0.0,-4.1385,-4.1646,-4.3646,-4.5407,-4.6559,-4.7725,-4.8301,-4.8273,-4.7443,-4.6928,-4.6795,-4.5092,-4.3864,-4.3359,-4.0935,0.0,0.0,0.0,0.0,0.0,0.0,0.0,0.0,0.0,0.0,0.0,0.0,0.0,0.0,0.0,0.0,0.0,0.0,0.0,0.0,-4.3498,0.0,0.0,0.0,0.0,0.0,0.0,0.0,0.0,0.0,0.0,-4.4375,-4.4289,-4.4786,-4.6417,0.0,0.0,0.0,0.0,-4.7322,-4.8213,-4.8654,-4.9325,-5.056,-5.2022,-5.3444,-5.4826,0.0,0.0,-5.8636,-5.8692,-5.843,-5.8201,-5.787,-5.7218,-5.5265,-5.4934,-5.5201,-5.5706,-5.5692,-5.6213,-5.7489,-5.7463,-5.7638,-4.407,0.0,0.0,0.0,0.0,-4.5567,-4.6532,-4.7203,-4.8726,-4.9416,-4.9506,-4.9817,0.0,0.0,0.0,0.0,0.0,0.0,-5.4401,-5.5059,-5.5688,-5.5957,-5.5987,-5.5957,-5.5616,-5.4964,-5.4289,-5.3414,-5.2276,-4.9746,-4.7452,-4.5298,0.0,0.0,0.0,0.0,-4.2811,-4.4044,-4.4755,-4.6164,-4.84,-4.876,-4.92,-4.9668,-4.8688,-4.8177,-4.8231,-4.7034,-4.5777,-4.4548,-4.3348,0.0,0.0,0.0,0.0,0.0,0.0,0.0,0.0,0.0,0.0,0.0,0.0,0.0,0.0,0.0,0.0,0.0,0.0,0.0,-4.4863,-4.5579,-4.5863,0.0,0.0,0.0,0.0,0.0,0.0,0.0,0.0,0.0,-4.8007,-4.7344,-4.6915,0.0,0.0,-4.7967,-4.8696,-4.8529,-4.8624,-4.9655,0.0,0.0,0.0,-5.3683,-5.5056,-5.629,-5.7213,-5.8081,-5.909,-5.87,-5.8151,-5.7976,-5.7727,-5.7239,-5.634,-5.5719,-5.5485,-5.5622,-5.5822,-5.6085,-5.6525,-5.6889,-5.7144,-4.8256,-4.6863,-4.6056,-4.6077,-4.6671,-4.765,-4.8376,-4.8972,-5.0346,-5.11,-5.1356,-5.2057,-5.2399,-5.2491,-5.2902,0.0,0.0,0.0,-5.5887,-5.6273,-5.6631,-5.6809,-5.6756,-5.6809,-5.6496,-5.59,-5.5411,-5.4818,-5.4094,-5.263,-5.0898,-4.8824,0.0,0.0,-4.4393,-4.4171,-4.4573,-4.5551,-4.6353,-4.7565,-4.9143,-4.9392,-4.99,-5.0738,-4.9531,-4.8893,-4.8937,-4.8085,-4.7008,-4.5685,-4.4747,-4.3631,0.0,0.0,0.0,0.0,0.0,0.0,0.0,0.0,0.0,0.0,0.0,-4.2012,-4.1794,0.0,0.0,0.0,-4.6,-4.6641,-4.6839,-4.7716,0.0,0.0,0.0,0.0,0.0,0.0,0.0,-4.7901,-4.8633,-4.9321,-4.9928,-4.9535,-4.9094,-4.8875,-4.8989,-4.926,-4.9759,0.0,-5.0152,-5.1123,-5.196,-5.2868,-5.3988,-5.5417,-5.6884,-5.8152,-5.8565,-5.8838,-5.9249,-5.8569,-5.7883,-5.7549,-5.7082,-5.6503,-5.6067,-5.5506,-5.5218,-5.5625,-5.5767,-5.5836,-5.5836,-5.5967,-5.5995,-5.1792,-5.1869,-4.9978,-4.9167,-4.9258,-4.9521,-4.986,-5.0266,-5.1176,-5.2039,-5.2934,-5.3802,-5.484,-5.5854,-5.6324,0.0,0.0,-5.6549,-5.6633,-5.6579,-5.6579,-5.6633,-5.6579,-5.6603,-5.649,-5.652,-5.6075,-5.5854,-5.5771,-5.4924,-5.4086,-5.3241,-4.935,-4.6992,-4.6249,-4.6436,-4.6512,-4.6293,-4.8159,-4.9197,-4.9418,-4.9818,-5.0536,-5.1534,-5.0048,-4.9203,-4.9209,-4.8507,-4.7679,-4.6705,-4.5488,-4.4694,-4.4252,0.0,0.0,0.0,0.0,0.0,0.0,0.0,0.0,0.0,0.0,0.0,0.0,0.0,0.0,0.0,-4.7559,0.0,-4.8945,-4.9647,0.0,0.0,0.0,-4.9298,-4.8853,-4.9345,-4.9617,-4.9305,0.0,0.0,0.0,0.0,-5.1259,-5.1028,-5.0693,-5.0491,-5.0452,-5.1048,-5.1746,-5.2682,-5.3594,-5.4544,-5.5566,-5.6995,-5.8355,-5.9539,-5.978,-5.9337,-5.9142,-5.8356,-5.7522,-5.7028,-5.61,-5.5278,-5.504,-5.4675,-5.4687,-5.5572,-5.5531,-5.5392,-5.5448,-5.515,-5.4878,-5.3637,-5.3838,-5.2937,-5.198,-5.1197,-5.1701,-5.1982,-5.2151,-5.3266,-5.3827,-5.4109,-5.48,-5.5533,-5.631,-5.7549,-5.8129,-5.8129,-5.8879,-5.9227,-5.9171,-5.9227,-5.9171,-5.9197,-5.8699,-5.8353,-5.8041,-5.7049,-5.6472,-5.6197,-5.5043,-5.4541,-5.4488,-5.2631,-5.0491,-4.8132,-4.7657,-4.7595,-4.7764,-4.8478,-4.9554,-5.1152,-5.1181,-5.1308,-5.1614,-5.0501,-4.9805,-4.9479,-4.9321,-4.8553,-4.7169,-4.7042,-4.6445,-4.5097,-4.4857,0.0,0.0,0.0,0.0,0.0,0.0,0.0,0.0,0.0,-4.2879,-4.2741,0.0,-4.5042,0.0,-4.7139,-4.8459,-4.9356,-4.9984,0.0,0.0,-5.0799,-5.1299,-5.12,-5.1486,-5.1656,-5.1533,-5.2001,-5.2384,-5.2403,-5.2771,-5.3123,-5.3294,-5.2113,-5.1552,-5.2404,-5.2623,-5.3144,-5.4336,-5.5231,-5.6068,-5.6879,-5.7779,-5.8436,-5.8606,-5.8429,-5.815,-5.7943,-5.7395,-5.6755,-5.5986,-5.5506,-5.4845,-5.3962,-5.4091,-5.4304,-5.4335,-5.4599,-5.5019,-5.5493,-5.5265,-5.4951,-5.5656,-5.5805,-5.5468,-5.4906,-5.4231,-5.3473,-5.3135,-5.3276,-5.4714,-5.5394,-5.5479,-5.6617,-5.7361,-5.7739,-5.8607,-5.8956,-5.8985,-5.9508,-5.9769,-5.9769,-5.9769,-5.9712,-5.9769,-5.9418,-5.9157,-5.8927,-5.8227,-5.785,-5.7624,-5.6851,-5.6451,-5.6419,-5.5217,-5.3513,-5.141,-5.0465,-4.9889,-4.9702,-4.9937,-5.0905,-5.2434,-5.192,-5.167,-5.1797,-5.078,-5.002,-4.963,-4.9793,-4.9346,-4.8152,-4.8274,-4.7963,-4.7001,-4.6585,-4.6249,0.0,0.0,0.0,0.0,0.0,0.0,0.0,0.0,0.0,0.0,0.0,-4.6295,0.0,-4.8545,0.0,-5.0581,-5.1121,-5.1388,-5.1361,-5.2033,-5.259,-5.279,-5.3094,-5.3227,-5.3031,-5.3382,-5.3546,-5.3385,-5.3563,-5.3757,-5.4052,-5.3515,-5.3142,-5.3414,-5.3787,-5.4424,-5.5175,-5.6188,-5.7135,-5.7821,-5.8079,-5.83,-5.8464,-5.8194,-5.7932,-5.7769,-5.7147,-5.6378,-5.555,-5.4818,-5.401,-5.3166,-5.3357,-5.373,-5.379,-5.4065,-5.4576,-5.4993,-5.4699,-5.434,-5.7744,-5.7716,-5.7575,-5.7491,-5.7322,-5.5102,-5.4204,-5.4345,-5.5993,-5.6824,-5.6938,-5.8668,-5.9422,-5.9422,-5.951,-5.9539,-5.9539,-5.9539,-5.9539,-5.9539,-5.9539,-5.9539,-5.9539,-5.948,-5.9422,-5.9422,-5.9335,-5.9306,-5.9306,-5.8956,-5.8692,-5.8453,-5.7234,-5.6164,-5.5154,-5.3988,-5.2816,-5.1701,-5.1932,-5.2605,-5.3564,-5.2413,-5.1903,-5.2162,-5.0917,-5.0049,-4.9805,-5.0123,-5.0007,-4.9375,-4.9378,-4.9372,-4.926,-4.8478,-4.8196,0.0,-4.834,0.0,0.0,0.0,0.0,0.0,0.0,0.0,0.0,-4.6764,-4.7923,-5.032,-5.0571,-5.102,-5.2059,-5.255,-5.2795,-5.265,-5.2997,-5.3434,-5.382,-5.4227,-5.4313,-5.4025,-5.4542,-5.4741,-5.424,-5.4156,-5.428,-5.4519,-5.4838,-5.4841,-5.4283,-5.4924,-5.5619,-5.5716,-5.6796,-5.7818,-5.8247,-5.8101,-5.8013,-5.8542,-5.8254,-5.8026,-5.7885,-5.7074,-5.6155,-5.5425,-5.4314,-5.3208,-5.2414,-5.2686,-5.3071,-5.3375,-5.3811,-5.419,-5.4364,-5.4068,-5.3609,-5.9626,-5.9514,-5.8531,-5.8137,-5.8053,-5.7097,-5.6855,-5.7092,-5.7674,-5.8288,-5.8813,-5.9654,-6.0032,-6.0061,-6.0584,-6.0845,-6.0845,-6.0845,-6.0845,-6.0845,-6.0845,-6.0845,-6.0816,-6.0293,-6.0032,-6.0003,-5.9539,-5.9306,-5.9306,-5.8956,-5.9011,-5.9381,-5.8453,-5.8101,-5.8323,0.0,0.0,0.0,-5.349,-5.3827,-5.4226,-5.3208,-5.2704,-5.2946,-5.1227,0.0,-5.0634,-5.0367,-5.014,-4.9978,-5.0517,0.0,0.0,0.0,0.0,0.0,0.0,0.0,0.0,0.0,0.0,0.0,-5.1421,-5.0088,-4.7867,-4.7852,-4.8749,-5.0466,-5.0755,-5.1413,-5.2838,-5.3483,-5.3822,-5.3788,-5.4012,-5.4192,-5.4319,-5.4547,-5.4635,-5.4469,-5.5502,-5.6157,-5.5707,-5.6173,-5.6433,-5.6199,-5.6251,-5.6176,-5.5932,-5.6221,-5.6787,-5.7364,-5.7924,-5.8273,-5.8068,-5.7791,-5.759,-5.7464,-5.7227,-5.694,-5.6717,-5.6511,-5.598,-5.5132,-5.4188,-5.3235,-5.2412,-5.2546,-5.2811,-5.2665,-5.3532,-5.4353,-5.4538,-5.4408,-5.4154,-6.0891,0.0,-5.9935,-5.9683,0.0,-5.9166,-5.9159,-5.9408,-5.8991,-5.9324,-6.0264,-6.0555,-6.0845,-6.1135,-6.1483,-6.1832,-6.2122,-6.1803,-6.1629,-6.1629,-6.1338,-6.1193,-6.1193,-6.0845,-6.07,-6.0671,-6.038,-6.0235,-6.0235,-6.0088,-6.0054,-6.0192,-5.9439,-5.9116,-5.9283,-5.8486,-5.6995,-5.4798,-5.4696,-5.4778,-5.4855,-5.4192,-5.3714,-5.3513,0.0,0.0,0.0,0.0,0.0,0.0,0.0,0.0,0.0,0.0,0.0,-5.2952,-5.3355,-5.3644,-5.3776,-5.4014,-5.4194,-5.4267,-5.4001,-5.2655,-4.9919,-4.9792,-5.0326,-5.1546,-5.2036,-5.2753,-5.3861,-5.4415,-5.4787,-5.5117,-5.5084,-5.5132,-5.5482,-5.5554,-5.5573,-5.5513,-5.6007,-5.6296,-5.5996,-5.6237,-5.6379,-5.6252,-5.637,-5.6514,-5.6514,-5.6694,-5.7177,-5.8022,-5.8371,-5.8421,-5.809,-5.7789,-5.7394,-5.684,-5.6519,-5.6274,-5.5998,-5.5849,-5.5409,-5.4529,-5.3862,-5.3228,-5.2564,-5.2744,-5.2989,-5.2826,-5.3451,-5.4016,-5.4126,-5.4097,-5.4097,-6.2193,-6.1723,-6.1546,-6.147,-6.1393,-6.1033,-6.1029,-6.1256,0.0,0.0,0.0,-6.1367,-6.1716,-6.2238,-6.2267,-6.2558,-6.3051,-6.2529,-6.2267,-6.2238,-6.1774,-6.1542,-6.1513,-6.1425,-6.1367,-6.1278,-6.1191,-6.1073,-6.1013,-6.1073,-6.1013,-6.0713,-6.0283,-5.9846,-5.9463,-5.9184,-5.8234,-5.6562,-5.6087,-5.5825,-5.5607,-5.5234,-5.476,-5.4261,-5.3237,-5.2788,-5.3055,-5.2837,-5.311,-5.3935,-5.4109,-5.4436,-5.4933,-5.5007,-5.5124,-5.5346,-5.5473,-5.5657,-5.5925,-5.6098,-5.6205,-5.6167,-5.5913,-5.4697,-5.2298,-5.1948,-5.2155,-5.3009,-5.3616,-5.4252,-5.4932,-5.5172,-5.5503,-5.6123,-5.5772,-5.5736,-5.6308,-5.6341,-5.6207,-5.627,-5.6185,-5.6172,-5.6086,-5.6095,-5.5948,-5.5967,-5.6575,-5.6887,-5.6949,-5.7136,-5.7543,-5.8321,-5.8553,-5.8439,-5.8066,-5.7636,-5.7162,-5.642,-5.5951,-5.5621,-5.5411,-5.5179,-5.4768,-5.414,-5.3579,-5.3103,-5.2641,-5.2906,-5.3157,-5.3012,-5.3428,-5.3762,-5.3553,-5.3658,-5.3815,-6.4212,-6.3886,-6.3348,-6.2912,-6.2694,-6.2102,-6.2096,-6.2323,-6.1357,-6.1336,-6.1977,-6.1977,-6.2325,-6.2935,-6.2935,-6.2993,-6.308,-6.2993,-6.2964,0.0,-6.2848,-6.2819,-6.279,-6.2238,-6.1855,-6.152,-6.103,-6.0621,-6.0377,-6.0621,-6.0742,-6.0771,-6.0926,-6.0727,-6.0117,-6.0031,-5.9625,-5.8842,-5.8161,-5.7525,-5.6986,-5.6333,-5.5861,-5.5577,-5.4592,-5.416,-5.4392,-5.4422,-5.4709,-5.536,-5.6057,-5.6558,-5.6821,-5.7236,-5.7491,-5.7562,-5.7562,-5.7725,-5.8036,-5.764,-5.7409,-5.7496,-5.714,-5.6149,-5.4365,-5.4011,-5.4063,-5.4635,-5.4816,-5.5117,-5.5771,-5.5765,-5.5745,-5.5808,-5.5416,-5.5129,-5.5424,-5.569,-5.592,-5.5967,-5.6275,-5.671,-5.6885,-5.6916,-5.6979,-5.7214,-5.7555,-5.8256,-5.8483,-5.8522,-5.8394,-5.856,-5.8677,-5.8477,-5.7994,-5.703,-5.6474,-5.614,-5.5253,-5.473,-5.456,-5.4509,-5.4347,-5.4208,-5.3568,-5.3092,-5.2917,-5.2793,-5.2836,-5.2791,-5.3227,-5.3553,-5.35,-5.3553,-5.3553,-6.5873,-6.5193,-6.4472,-6.4148,-6.3936,-6.3185,-6.287,-6.2865,-6.2409,-6.2383,-6.2616,-6.2645,-6.2993,-6.3574,-6.3603,-6.3806,-6.4096,-6.3748,-6.3603,-6.3574,-6.3254,-6.2985,-6.2832,-6.2542,-6.2212,-6.1781,-6.1523,-6.1318,-6.1256,-6.1533,-6.1747,-6.1747,-6.2026,-6.2064,-6.1774,-6.1396,-6.0932,-6.0322,-5.9449,-5.8794,-5.8313,-5.7749,-5.7528,-5.7486,-5.6511,-5.6286,-5.6963,-5.6726,-5.6977,-5.7793,-5.8264,-5.8675,-5.9032,-5.9358,-5.9594,-5.9555,-5.9476,-5.9412,-5.9463,-5.9081,-5.8815,-5.8733,-5.8546,-5.7966,-5.6731,-5.6116,-5.5854,-5.607,-5.6291,-5.6559,-5.6885,-5.7053,-5.7078,-5.7109,-5.6787,-5.6592,-5.6574,-5.6739,-5.6885,-5.6915,-5.7129,-5.7381,-5.7499,-5.753,-5.7603,-5.7725,-5.804,-5.8427,-5.894,-5.8868,-5.8815,-5.9021,-5.893,-5.8571,-5.8083,-5.7573,-5.6802,-5.5902,-5.5211,-5.4649,-5.4244,-5.4097,-5.4023,-5.3919,-5.35,-5.3331,-5.325,-5.3198,-5.3094,-5.3094,-5.3268,-5.35,-5.35,-5.35,-5.35,-6.7347,-6.6385,-6.5726,-6.5297,-6.5056,-6.4368,-6.3844,-6.3545,-6.3516,-6.3516,-6.3486,-6.337,-6.3661,-6.4212,-6.4241,-6.4502,-6.488,-6.4473,-6.427,-6.4212,-6.3748,-6.342,-6.314,-6.2962,-6.2687,-6.2285,-6.22,-6.2051,-6.1987,-6.2331,-6.2673,-6.2736,-6.2985,-6.3109,-6.308,-6.2587,-6.2093,-6.16,-6.085,-6.0121,-5.9463,-5.9181,-5.908,-5.9168,-5.851,-5.8508,-5.9211,-5.9018,-5.9171,-5.9916,-6.0158,-6.0445,-6.075,-6.1008,-6.1094,-6.0975,-6.0847,-6.0642,-6.0441,-6.0238,-6.0042,-5.9799,-5.9761,-5.9521,-5.8948,-5.8268,-5.7556,-5.7283,-5.7323,-5.7505,-5.7455,-5.7659,-5.7952,-5.7952,-5.7695,-5.742,-5.751,-5.754,-5.754,-5.754,-5.754,-5.7532,-5.7635,-5.7613,-5.7734,-5.7924,-5.8079,-5.8386,-5.8962,-5.9092,-5.9092,-5.9166,-5.9114,-5.8799,-5.8297,-5.7862,-5.7148,-5.576,-5.5283,-5.4826,-5.4223,-5.3961,-5.3762,-5.3553,-5.35,-5.3471,-5.35,-5.3471,-5.3471,-5.3442,-5.3471,-5.35,-5.35,-5.35,-5.35,-6.8401,-6.8015,-6.7324,-6.6603,-6.5853,-6.565,-6.528,-6.4822,-6.4793,-6.4822,-6.4677,-6.4212,-6.4299,-6.4851,-6.488,-6.4909,-6.4996,-6.4938,-6.488,-6.488,-6.4851,-6.4822,-6.4642,-6.4149,-6.3544,-6.295,-6.2681,-6.232,-6.1876,-6.2389,-6.2798,-6.3018,-6.3109,-6.3138,-6.3109,-6.3051,-6.2964,-6.2906,-6.2851,-6.1932,-6.0259,-6.0307,-6.0399,-6.0373,-6.0493,-6.0555,-6.0537,-6.0596,-6.0795,-6.112,-6.1244,-6.1308,-6.1354,-6.1614,-6.1582,-6.1322,-6.1276,-6.1084,-6.0815,-6.0865,-6.0805,-6.0723,-6.0616,-6.059,-6.0616,-6.0339,-5.9404,-5.7993,-5.7528,-5.7543,-5.7146,-5.7139,-5.7183,-5.7212,-5.6888,-5.6468,-5.661,-5.6415,-5.6415,-5.6415,-5.6723,-5.6551,-5.6958,-5.704,-5.7378,-5.8234,-5.8475,-5.8783,-5.9357,-5.9242,-5.8973,-5.9057,-5.9063,-5.8925,-5.854,-5.7635,-5.7009,-5.6523,-5.5459,-5.4798,-5.4454,-5.3989,-5.353,-5.3756,-5.35,-5.35,-5.35,-5.35,-5.35,-5.35,-5.35,-5.35,-5.35,-5.35,-5.35,-6.9962,-6.9146,-6.848,-6.7534,-6.6535,-6.6099,-6.578,-6.5519,-6.5141,-6.4996,-6.4967,-6.4706,-6.4764,-6.4996,-6.4996,-6.4996,-6.4996,-6.4996,-6.4996,-6.4996,-6.4996,-6.4868,-6.4711,-6.4416,-6.4016,-6.3601,-6.3501,-6.3322,-6.3129,-6.3514,-6.3896,-6.4212,-6.4212,-6.4212,-6.4183,-6.3835,-6.3661,-6.3632,-6.3283,-6.2803,-6.2319,-6.2116,-6.2108,-6.222,-6.2022,-6.1862,-6.195,-6.2,-6.2291,-6.2852,-6.292,-6.301,-6.3157,-6.3256,-6.3207,-6.2879,-6.2399,-6.1917,-6.1502,-6.1302,-6.1038,-6.071,-6.0458,-6.0327,-6.0255,-5.9941,-5.9299,-5.8508,-5.8722,-5.8974,-5.8826,-5.877,-5.8597,-5.8217,-5.8103,-5.7816,-5.7488,-5.7429,-5.7429,-5.7429,-5.7429,-5.7429,-5.7537,-5.7592,-5.7818,-5.8273,-5.8465,-5.8692,-5.8907,-5.8719,-5.858,-5.8555,-5.8445,-5.8335,-5.814,-5.7827,-5.7199,-5.6654,-5.6052,-5.5591,-5.5039,-5.4546,-5.411,-5.411,-5.3791,-5.3588,-5.35,-5.35,-5.35,-5.35,-5.35,-5.35,-5.35,-5.35,-5.35,-7.122,-7.0428,-6.971,-6.8602,-6.7247,-6.6781,-6.6425,-6.6157,-6.5693,-6.5519,-6.5489,-6.5344,-6.5228,-6.5228,-6.5083,-6.4996,-6.4996,-6.4996,-6.4996,-6.4996,-6.4996,-6.4868,-6.4612,-6.4612,-6.4483,-6.4224,-6.4196,-6.426,-6.4289,-6.4483,-6.474,-6.4996,-6.4996,-6.4996,-6.4938,-6.4502,-6.4299,-6.427,-6.3835,-6.3819,-6.4165,-6.4058,-6.3862,-6.3764,-6.3484,-6.3399,-6.3526,-6.3585,-6.3834,-6.4181,-6.4099,-6.4038,-6.4089,-6.3974,-6.3766,-6.341,-6.2971,-6.2445,-6.1975,-6.1968,-6.1721,-6.1202,-6.0764,-6.0355,-6.0062,-5.971,-5.9388,-5.9212,-5.9713,-5.9976,-5.9625,-5.9625,-5.942,-5.9011,-5.8952,-5.8748,-5.8253,-5.8134,-5.7903,-5.7959,-5.7613,-5.7751,-5.7807,-5.7915,-5.8055,-5.8055,-5.8195,-5.8313,-5.8375,-5.8464,-5.8438,-5.8529,-5.8449,-5.8105,-5.7898,-5.7611,-5.7295,-5.6921,-5.652,-5.6142,-5.5707,-5.5184,-5.4778,-5.4691,-5.4139,-5.3849,-5.3878,-5.3791,-5.3588,-5.353,-5.3559,-5.3588,-5.35,-5.353,-5.353,-7.1854,-7.1941,-7.114,-6.9809,-6.8342,-6.8254,-6.7735,-6.689,-6.6767,-6.6767,-6.6622,-6.6128,-6.5896,-6.5838,-6.5344,-6.5025,-6.4996,-6.4996,-6.4996,-6.4996,-6.4996,-6.4996,-6.4996,-6.4996,-6.4804,-6.4483,-6.474,-6.4868,-6.4961,-6.499,-6.4996,-6.5025,-6.5112,-6.5054,-6.5083,-6.5054,-6.4967,-6.4996,-6.4938,-6.5227,-6.5794,-6.5827,-6.5426,-6.4784,-6.4993,-6.5226,-6.5311,-6.5517,-6.5411,-6.4764,-6.4483,-6.3941,-6.3406,-6.3078,-6.2733,-6.2226,-6.2385,-6.2349,-6.2204,-6.2701,-6.2919,-6.2365,-6.1755,-6.1369,-6.0864,-6.0341,-6.0026,-6.0058,-6.0001,-5.9718,-5.883,-5.8774,-5.866,-5.8486,-5.8398,-5.84,-5.8284,-5.7886,-5.7482,-5.7426,-5.7082,-5.6909,-5.7022,-5.7445,-5.7727,-5.7868,-5.8033,-5.8379,-5.8852,-5.883,-5.8922,-5.9245,-5.9247,-5.8899,-5.8019,-5.7759,-5.7532,-5.7187,-5.6926,-5.6461,-5.6171,-5.5881,-5.5591,-5.5271,-5.4807,-5.4487,-5.4371,-5.4139,-5.3849,-5.3762,-5.3791,-5.3791,-5.3994,-5.3675,-5.3733,-7.235,-7.1875,-7.1158,-7.0274,-6.9318,-6.8708,-6.8188,-6.7794,-6.7189,-6.6883,-6.6854,-6.6622,-6.6535,-6.6506,-6.6302,-6.5751,-6.5025,-6.4996,-6.4996,-6.4996,-6.4996,-6.4996,-6.4996,-6.4996,-6.4932,-6.4868,-6.4932,-6.5199,-6.5635,-6.5983,-6.6186,-6.6186,-6.6215,-6.6186,-6.6215,-6.6186,-6.6186,-6.6186,-6.6215,-6.6446,-6.6867,-6.7118,-6.7107,-6.7011,-6.622,-6.5682,-6.5498,-6.5549,-6.5596,-6.5494,-6.5364,-6.5176,-6.4937,-6.4422,-6.3935,-6.3296,-6.3,-6.266,-6.2412,-6.248,-6.2428,-6.2211,-6.1788,-6.1348,-6.079,-6.0376,-5.9996,-5.9663,-5.955,-5.9233,-5.9159,-5.9265,-5.9337,-5.8994,-5.8848,-5.8705,-5.8394,-5.8108,-5.7994,-5.788,-5.7423,-5.6966,-5.6824,-5.7111,-5.7542,-5.76,-5.8118,-5.861,-5.8871,-5.8987,-5.9219,-5.9393,-5.9335,-5.919,-5.8899,-5.8317,-5.7913,-5.7768,-5.7507,-5.7158,-5.6868,-5.6432,-5.6113,-5.5968,-5.5533,-5.5097,-5.4923,-5.4836,-5.4487,-5.4517,-5.4546,-5.4429,-5.4749,-5.4458,-5.4517,-7.3043,-7.2285,-7.1799,-7.1081,-7.0268,-6.942,-6.8892,-6.8664,-6.7961,-6.7625,-6.7463,-6.7289,-6.7202,-6.7144,-6.6999,-6.6447,-6.5635,-6.5402,-6.5199,-6.4996,-6.4996,-6.4996,-6.5025,-6.5199,-6.5286,-6.5344,-6.5519,-6.5838,-6.6215,-6.668,-6.6883,-6.6883,-6.6883,-6.6883,-6.6883,-6.6883,-6.6883,-6.6883,-6.7014,-6.7181,-6.7601,-6.7924,-6.8274,-6.8478,-6.7533,-6.682,-6.6613,-6.6523,-6.6401,-6.6368,-6.6215,-6.5914,-6.5467,-6.4755,-6.4154,-6.3667,-6.3225,-6.2841,-6.2584,-6.2501,-6.2424,-6.2267,-6.1876,-6.1437,-6.1069,-6.0477,-5.9964,-5.9577,-5.9261,-5.9205,-5.9267,-5.9611,-5.9688,-5.9257,-5.92,-5.903,-5.8633,-5.8405,-5.8178,-5.7923,-5.7701,-5.7304,-5.7049,-5.7393,-5.7651,-5.7708,-5.8257,-5.8633,-5.8921,-5.9215,-5.9536,-5.974,-5.9944,-6.0032,-5.98,-5.9335,-5.8784,-5.8523,-5.7973,-5.7711,-5.745,-5.6986,-5.6723,-5.6607,-5.6258,-5.5794,-5.5503,-5.5445,-5.5445,-5.5445,-5.5242,-5.5039,-5.5213,-5.53,-5.5246,-7.3931,-7.3287,-7.2962,-7.2239,-7.1288,-7.0598,-6.9936,-6.9345,-6.9182,-6.8894,-6.8509,-6.8131,-6.787,-6.7783,-6.7347,-6.6941,-6.6738,-6.6273,-6.5722,-6.5228,-6.517,-6.5141,-6.5199,-6.5693,-6.5954,-6.5983,-6.6564,-6.6854,-6.6883,-6.7028,-6.7086,-6.6999,-6.7086,-6.7144,-6.697,-6.7086,-6.6999,-6.7123,-6.7415,-6.7682,-6.7953,-6.8422,-6.8772,-6.909,-6.8974,-6.8914,-6.8947,-6.8537,-6.7998,-6.7426,-6.6884,-6.5892,-6.4843,-6.3904,-6.3138,-6.3159,-6.3089,-6.2865,-6.2628,-6.2988,-6.3018,-6.2793,-6.2324,-6.2024,-6.1714,-6.0919,-6.0252,-5.9933,-5.9583,-5.9261,-5.9233,-5.9267,-5.9267,-5.9205,-5.9217,-5.9189,-5.9042,-5.8643,-5.8081,-5.7724,-5.768,-5.7772,-5.7863,-5.7982,-5.813,-5.8218,-5.842,-5.8737,-5.9165,-5.9491,-5.999,-6.0425,-6.0514,-6.0461,-6.0461,-6.0374,-5.9826,-5.9247,-5.861,-5.8118,-5.7973,-5.7683,-5.7363,-5.7189,-5.681,-5.6345,-5.6084,-5.5997,-5.591,-5.5881,-5.5678,-5.5707,-5.5852,-5.5913,-5.5658,-7.4791,-7.3776,-7.3604,-7.2857,-7.1768,-7.1302,-7.0578,-6.97,-6.9404,-6.9098,-6.877,-6.8625,-6.8538,-6.8509,-6.8305,-6.7986,-6.758,-6.7347,-6.6912,-6.6389,-6.6273,-6.6244,-6.6302,-6.6476,-6.6593,-6.668,-6.726,-6.758,-6.7638,-6.7986,-6.8218,-6.8218,-6.8218,-6.8218,-6.8218,-6.8218,-6.8218,-6.8218,-6.8552,-6.8855,-6.928,-6.9643,-6.9997,-7.0256,-7.032,-7.032,-7.026,-6.937,-6.874,-6.847,-6.7903,-6.6936,-6.566,-6.4827,-6.4196,-6.3686,-6.3407,-6.3158,-6.2831,-6.2906,-6.3046,-6.2886,-6.2745,-6.2436,-6.2034,-6.165,-6.0995,-6.0335,-5.9886,-5.9669,-5.9345,-5.9205,-5.9205,-5.9205,-5.9205,-5.9205,-5.9205,-5.9036,-5.8671,-5.8165,-5.8058,-5.795,-5.7757,-5.7991,-5.8362,-5.8419,-5.8795,-5.9314,-5.9517,-5.9761,-6.003,-6.0348,-6.0499,-6.0707,-6.056,-6.0528,-6.0327,-5.9755,-5.9096,-5.8521,-5.8436,-5.8234,-5.7973,-5.7769,-5.739,-5.7013,-5.6752,-5.6549,-5.6461,-5.6578,-5.6636,-5.6665,-5.6694,-5.6551,-5.6266,-7.5407,-7.4629,-7.4091,-7.3432,-7.2624,-7.2149,-7.1407,-7.0511,-7.0052,-6.96,-6.9059,-6.8828,-6.876,-6.876,-6.876,-6.8596,-6.8247,-6.8247,-6.8015,-6.7551,-6.7028,-6.6883,-6.6941,-6.7144,-6.7405,-6.7638,-6.8015,-6.8218,-6.8276,-6.8857,-6.9176,-6.9176,-6.9408,-6.9525,-6.9525,-6.9525,-6.9525,-6.9729,-7.0068,-7.0355,-7.0482,-7.0753,-7.0962,-7.0884,-7.0889,-7.0919,-7.0829,-7.0111,-6.9602,-6.918,-6.8307,-6.7215,-6.6391,-6.5304,-6.4418,-6.403,-6.3479,-6.3112,-6.2914,-6.2914,-6.2914,-6.2914,-6.2914,-6.2773,-6.2342,-6.2211,-6.1528,-6.0681,-6.0252,-5.9809,-5.9311,-5.9205,-5.9267,-5.9329,-5.9267,-5.9205,-5.9205,-5.9205,-5.9064,-5.8727,-5.8643,-5.8418,-5.8306,-5.8334,-5.8643,-5.8699,-5.9166,-5.9544,-5.9578,-5.9763,-5.9948,-6.0157,-6.0479,-6.0627,-6.0627,-6.0646,-6.0722,-6.0185,-5.9562,-5.9114,-5.8832,-5.8579,-5.8292,-5.8378,-5.8145,-5.7797,-5.7507,-5.7216,-5.7042,-5.7303,-5.7448,-5.7187,-5.7042,-5.71,-5.6872,-7.5946,-7.5736,-7.451,-7.3911,-7.3732,-7.3126,-7.2328,-7.1459,-7.1065,-7.0338,-6.9562,-6.9254,-6.906,-6.9002,-6.9147,-6.906,-6.8886,-6.8886,-6.8799,-6.8392,-6.7696,-6.7202,-6.726,-6.7696,-6.8218,-6.8741,-6.8857,-6.8915,-6.906,-6.9554,-6.9844,-6.9873,-7.0308,-7.0686,-7.0541,-7.0657,-7.0708,-7.1063,-7.1464,-7.1508,-7.1429,-7.1768,-7.1697,-7.1158,-7.1068,-7.1038,-7.1038,-7.0829,-7.05,-6.9837,-6.8254,-6.728,-6.676,-6.5209,-6.4209,-6.4144,-6.3367,-6.298,-6.2914,-6.2914,-6.2914,-6.2914,-6.2914,-6.2914,-6.2802,-6.2502,-6.1996,-6.1337,-6.0737,-6.0118,-5.9611,-5.9358,-5.9482,-5.9668,-5.9516,-5.9392,-5.9267,-5.9267,-5.9211,-5.9239,-5.9205,-5.9177,-5.9036,-5.9093,-5.9121,-5.9149,-5.9177,-5.9267,-5.9267,-5.9544,-5.9696,-6.0019,-6.0455,-6.0682,-6.0705,-6.087,-6.0977,-6.0722,-6.016,-5.9863,-5.9394,-5.9061,-5.8694,-5.8755,-5.8784,-5.8465,-5.829,-5.8,-5.7826,-5.7913,-5.7797,-5.7477,-5.7536,-5.7768,-5.7683,-7.6335,-7.5826,-7.4988,-7.433,-7.3911,-7.3702,-7.3081,-7.2179,-7.1685,-7.1228,-7.0741,-7.0359,-7.0134,-7.0221,-7.0163,-6.9989,-6.9612,-6.9525,-6.9234,-6.8828,-6.8538,-6.8305,-6.8334,-6.8479,-6.8915,-6.9466,-6.9554,-6.9757,-7.0192,-7.0366,-7.0453,-7.0482,-7.0686,-7.0773,-7.0715,-7.0802,-7.0923,-7.1268,-7.1679,-7.199,-7.2179,-7.2454,-7.2565,-7.2385,-7.1906,-7.1637,-7.1577,-7.1158,-7.062,-7.0051,-6.905,-6.816,-6.7559,-6.6012,-6.4884,-6.4593,-6.3829,-6.3207,-6.3008,-6.2914,-6.2914,-6.2914,-6.2914,-6.298,-6.3216,-6.3169,-6.2875,-6.2502,-6.194,-6.1251,-6.0626,-6.0142,-6.0038,-6.001,-6.001,-5.9948,-5.9887,-5.9702,-5.9606,-5.9544,-5.9329,-5.9267,-5.9205,-5.9205,-5.9205,-5.9205,-5.9205,-5.9205,-5.9205,-5.9295,-5.9448,-5.9865,-6.0294,-6.0604,-6.0857,-6.1055,-6.1103,-6.1075,-6.0801,-6.0646,-6.0199,-5.9801,-5.9324,-5.8984,-5.9102,-5.8929,-5.8958,-5.89,-5.8784,-5.8493,-5.8552,-5.8464,-5.8668,-5.8842,-5.8581,-7.6874,-7.6245,-7.5587,-7.4929,-7.433,-7.43,-7.3708,-7.2862,-7.2365,-7.1846,-7.1326,-7.0853,-7.0715,-7.0715,-7.0715,-7.0541,-7.0192,-7.0163,-6.996,-6.9728,-6.9641,-6.9466,-6.9292,-6.9234,-6.9554,-7.0105,-7.0163,-7.0366,-7.0715,-7.0976,-7.1092,-7.1179,-7.1382,-7.1528,-7.1586,-7.1528,-7.1779,-7.2295,-7.2542,-7.2797,-7.3006,-7.3208,-7.3066,-7.2954,-7.2475,-7.2235,-7.1876,-7.1517,-7.1038,-7.0341,-6.9435,-6.872,-6.8207,-6.6745,-6.5742,-6.5478,-6.451,-6.3706,-6.3517,-6.3149,-6.298,-6.3046,-6.3112,-6.331,-6.3545,-6.3675,-6.3549,-6.2958,-6.2451,-6.1822,-6.1194,-6.0688,-6.0434,-6.0438,-6.056,-6.0499,-6.0255,-6.001,-5.9948,-5.9825,-5.9668,-5.9392,-5.9392,-5.9267,-5.9205,-5.9205,-5.9205,-5.9205,-5.9205,-5.9233,-5.9458,-5.9964,-6.0497,-6.0927,-6.1405,-6.1743,-6.1883,-6.1734,-6.1518,-6.1329,-6.08,-6.0356,-6.003,-5.964,-5.9562,-5.9479,-5.9625,-5.9568,-5.919,-5.9074,-5.9277,-5.9364,-5.9393,-5.9568,-5.9334,-7.7442,-7.6874,-7.6185,-7.5527,-7.5018,-7.4899,-7.4275,-7.3486,-7.3044,-7.2404,-7.1706,-7.1086,-7.1121,-7.0918,-7.115,-7.0918,-7.0831,-7.0831,-7.0715,-7.0599,-7.0541,-7.0337,-7.0105,-6.9931,-7.025,-7.0744,-7.0802,-7.0918,-7.1208,-7.1586,-7.1818,-7.2021,-7.2456,-7.266,-7.2631,-7.266,-7.3086,-7.3404,-7.3485,-7.3665,-7.3789,-7.3903,-7.3791,-7.3402,-7.3133,-7.2684,-7.2206,-7.1876,-7.1577,-7.1038,-6.9732,-6.9204,-6.8861,-6.7479,-6.6632,-6.6288,-6.5365,-6.4662,-6.4358,-6.3668,-6.3263,-6.347,-6.3479,-6.361,-6.3965,-6.403,-6.3894,-6.3507,-6.2635,-6.1953,-6.127,-6.0908,-6.08,-6.0771,-6.1013,-6.0892,-6.0499,-6.0255,-6.0255,-6.0255,-5.9948,-5.9792,-5.9668,-5.9544,-5.9329,-5.9392,-5.9329,-5.9329,-5.9267,-5.9233,-5.9654,-6.0301,-6.0807,-6.134,-6.1902,-6.2492,-6.2605,-6.2605,-6.224,-6.1883,-6.1203,-6.0819,-6.067,-6.052,-6.0189,-6.0171,-6.0234,-6.0061,-5.9713,-5.9713,-6.0003,-5.9829,-5.9626,-5.9945,-5.9973,-7.7711,-7.7502,-7.6395,-7.5826,-7.5617,-7.5138,-7.4573,-7.4011,-7.3694,-7.3198,-7.2719,-7.2337,-7.2166,-7.2166,-7.2079,-7.1963,-7.1498,-7.144,-7.1237,-7.0744,-7.0715,-7.1005,-7.1034,-7.0802,-7.0918,-7.1353,-7.1469,-7.1731,-7.2137,-7.234,-7.2689,-7.3153,-7.324,-7.3414,-7.3385,-7.3385,-7.3339,-7.3386,-7.368,-7.397,-7.4238,-7.4493,-7.451,-7.43,-7.3911,-7.3343,-7.2714,-7.2176,-7.1816,-7.1482,-7.0677,-6.9963,-6.9486,-6.8584,-6.7733,-6.7122,-6.6394,-6.565,-6.4927,-6.4595,-6.4282,-6.3948,-6.3928,-6.403,-6.4289,-6.4418,-6.449,-6.4243,-6.356,-6.2485,-6.1383,-6.1157,-6.1073,-6.1073,-6.1133,-6.1133,-6.0984,-6.0742,-6.0621,-6.0499,-6.0316,-6.0071,-6.0071,-6.001,-5.9825,-5.964,-5.9544,-5.9482,-5.9392,-5.9329,-5.9921,-6.066,-6.0991,-6.1526,-6.2333,-6.2811,-6.283,-6.2914,-6.2689,-6.2492,-6.1723,-6.1126,-6.0989,-6.0908,-6.0729,-6.0713,-6.0725,-6.0845,-6.0555,-6.0642,-6.0671,-6.0526,-6.0438,-6.0584,-6.0526,-7.8071,-7.7711,-7.6754,-7.6185,-7.5757,-7.4961,-7.4387,-7.404,-7.3691,-7.3269,-7.2915,-7.2673,-7.2631,-7.2631,-7.2602,-7.2398,-7.2195,-7.2108,-7.1963,-7.1673,-7.1644,-7.1818,-7.1992,-7.1818,-7.1818,-7.2079,-7.2108,-7.2485,-7.2921,-7.3124,-7.3414,-7.3995,-7.4024,-7.4053,-7.4053,-7.4053,-7.4096,-7.4164,-7.4139,-7.4414,-7.4763,-7.4812,-7.4869,-7.4839,-7.451,-7.4031,-7.3402,-7.3043,-7.2684,-7.2229,-7.1559,-7.0694,-6.9965,-6.9244,-6.8573,-6.7988,-6.7228,-6.6662,-6.6089,-6.5354,-6.4802,-6.4655,-6.4396,-6.4447,-6.4612,-6.474,-6.4804,-6.4729,-6.4067,-6.3022,-6.1803,-6.1309,-6.1222,-6.1193,-6.1193,-6.1193,-6.1193,-6.1013,-6.0952,-6.0863,-6.0621,-6.0499,-6.0438,-6.0377,-6.0194,-5.9948,-5.9948,-5.9887,-5.9887,-5.9939,-6.0501,-6.1096,-6.1246,-6.1739,-6.2633,-6.3018,-6.2886,-6.2914,-6.2858,-6.2745,-6.2446,-6.1852,-6.131,-6.1177,-6.1065,-6.103,-6.1041,-6.116,-6.1193,-6.1048,-6.099,-6.1135,-6.1135,-6.0992,-6.0963,-7.846,-7.7921,-7.7263,-7.6604,-7.5936,-7.4932,-7.4228,-7.3761,-7.334,-7.2986,-7.2702,-7.2631,-7.2631,-7.2631,-7.2631,-7.2631,-7.2602,-7.2573,-7.2427,-7.2427,-7.2398,-7.2427,-7.2485,-7.2456,-7.2544,-7.2718,-7.2776,-7.3124,-7.3443,-7.3763,-7.4082,-7.4547,-7.4663,-7.4692,-7.4692,-7.4663,-7.4693,-7.4751,-7.4802,-7.4952,-7.5257,-7.516,-7.5078,-7.4869,-7.4809,-7.4569,-7.4091,-7.3791,-7.3582,-7.3073,-7.2415,-7.1487,-7.0511,-6.9662,-6.9203,-6.8837,-6.7978,-6.7497,-6.7084,-6.6222,-6.5618,-6.5527,-6.5037,-6.4791,-6.499,-6.4932,-6.4996,-6.4764,-6.4241,-6.3399,-6.2267,-6.1716,-6.1367,-6.1222,-6.1193,-6.1193,-6.1193,-6.1193,-6.1133,-6.1133,-6.0952,-6.0802,-6.0681,-6.0621,-6.0438,-6.0316,-6.0316,-6.0255,-6.0255,-6.0365,-6.0874,-6.144,-6.1649,-6.2238,-6.3167,-6.3244,-6.3112,-6.3046,-6.298,-6.2952,-6.2924,-6.2614,-6.211,-6.1598,-6.1461,-6.134,-6.127,-6.1278,-6.128,-6.1222,-6.1284,-6.1344,-6.1344,-6.1313,-6.1373,-7.8729,-7.8579,-7.7921,-7.7263,-7.6564,-7.5557,-7.4613,-7.382,-7.3398,-7.3015,-7.266,-7.2631,-7.266,-7.2689,-7.2631,-7.2631,-7.2805,-7.2834,-7.2776,-7.2776,-7.2776,-7.2776,-7.2834,-7.2863,-7.3008,-7.3327,-7.3501,-7.3647,-7.3821,-7.4111,-7.4721,-7.5214,-7.533,-7.5359,-7.533,-7.533,-7.5098,-7.5028,-7.5317,-7.5631,-7.5697,-7.5627,-7.5407,-7.5018,-7.4929,-7.4779,-7.4599,-7.418,-7.3821,-7.3702,-7.3103,-7.2544,-7.1756,-7.0652,-6.978,-6.9261,-6.875,-6.8258,-6.7823,-6.7563,-6.6743,-6.6114,-6.565,-6.5332,-6.517,-6.4996,-6.4996,-6.4793,-6.4362,-6.3491,-6.2238,-6.1977,-6.1687,-6.1396,-6.1193,-6.1193,-6.1193,-6.1193,-6.1193,-6.1193,-6.1133,-6.1073,-6.0952,-6.0892,-6.0771,-6.0621,-6.0621,-6.0499,-6.0438,-6.0578,-6.0827,-6.1422,-6.1987,-6.2787,-6.3671,-6.3488,-6.3348,-6.331,-6.3244,-6.3244,-6.3216,-6.3254,-6.2977,-6.2587,-6.2039,-6.1652,-6.1585,-6.1481,-6.1369,-6.1282,-6.1433,-6.1494,-6.1583,-6.1642,-6.1761,-7.8789,-7.8729,-7.81,-7.7479,-7.6908,-7.5928,-7.4923,-7.4038,-7.3583,-7.3297,-7.3124,-7.3153,-7.3327,-7.3531,-7.3589,-7.3589,-7.356,-7.3589,-7.3589,-7.3618,-7.3618,-7.3618,-7.356,-7.356,-7.3763,-7.4111,-7.4401,-7.4547,-7.4634,-7.4866,-7.5388,-7.5853,-7.5998,-7.5998,-7.5998,-7.5998,-7.5795,-7.5697,-7.5948,-7.6208,-7.6192,-7.6104,-7.5667,-7.5437,-7.5048,-7.4899,-7.4809,-7.4659,-7.442,-7.43,-7.3791,-7.3425,-7.2865,-7.1993,-7.0791,-6.996,-6.9369,-6.8847,-6.8401,-6.8102,-6.7551,-6.7028,-6.6389,-6.5838,-6.546,-6.5228,-6.4996,-6.4822,-6.4421,-6.3752,-6.3167,-6.2529,-6.1977,-6.1687,-6.1425,-6.1251,-6.1193,-6.1193,-6.1193,-6.1193,-6.1193,-6.1133,-6.1193,-6.1133,-6.1073,-6.1073,-6.0952,-6.0831,-6.0621,-6.0793,-6.0991,-6.1767,-6.2451,-6.3185,-6.3902,-6.3814,-6.3675,-6.3638,-6.3573,-6.3507,-6.3573,-6.3675,-6.3814,-6.3765,-6.3089,-6.2472,-6.1903,-6.1861,-6.1662,-6.1431,-6.1552,-6.1702,-6.185,-6.1969,-6.2234,-7.8789,-7.8759,-7.822,-7.7707,-7.7097,-7.6264,-7.5314,-7.4457,-7.3937,-7.3792,-7.3821,-7.3821,-7.4053,-7.4401,-7.4459,-7.4459,-7.4518,-7.4459,-7.443,-7.4401,-7.443,-7.4488,-7.4488,-7.4518,-7.4518,-7.475,-7.5098,-7.5504,-7.5388,-7.5592,-7.5998,-7.6259,-7.6508,-7.6538,-7.6479,-7.6421,-7.6538,-7.6587,-7.6769,-7.6886,-7.6805,-7.6521,-7.6096,-7.5916,-7.5347,-7.5048,-7.4899,-7.4809,-7.4809,-7.4689,-7.439,-7.4091,-7.3933,-7.3222,-7.2155,-7.0955,-7.0048,-6.9369,-6.875,-6.8421,-6.8044,-6.7638,-6.6883,-6.636,-6.578,-6.5344,-6.4996,-6.488,-6.4624,-6.413,-6.3777,-6.3109,-6.2558,-6.218,-6.1803,-6.1396,-6.1396,-6.1338,-6.1193,-6.1193,-6.1193,-6.1193,-6.1193,-6.1193,-6.1133,-6.1133,-6.1073,-6.1073,-6.0923,-6.1013,-6.136,-6.2228,-6.3005,-6.359,-6.4038,-6.4167,-6.4095,-6.403,-6.3965,-6.3834,-6.3965,-6.4095,-6.4296,-6.4432,-6.4364,-6.3714,-6.3055,-6.2331,-6.2164,-6.2052,-6.1908,-6.1939,-6.2175,-6.2558,-6.2912,-7.8789,-7.8789,-7.8699,-7.8124,-7.7216,-7.6736,-7.5991,-7.4998,-7.4547,-7.443,-7.4459,-7.443,-7.4488,-7.4634,-7.4634,-7.4576,-7.4605,-7.4692,-7.475,-7.4779,-7.475,-7.475,-7.4605,-7.4518,-7.5011,-7.533,-7.5504,-7.5504,-7.5679,-7.6085,-7.6392,-7.6538,-7.6538,-7.6538,-7.6538,-7.6538,-7.6538,-7.6583,-7.7166,-7.7532,-7.7635,-7.7521,-7.6904,-7.6245,-7.5766,-7.5467,-7.5048,-7.4958,-7.4869,-7.4869,-7.4809,-7.4749,-7.4659,-7.4121,-7.3346,-7.2296,-7.1151,-6.9816,-6.907,-6.877,-6.845,-6.8131,-6.7638,-6.7028,-6.6157,-6.546,-6.5083,-6.4996,-6.4851,-6.459,-6.4241,-6.3893,-6.3486,-6.2993,-6.2412,-6.2064,-6.189,-6.1571,-6.1425,-6.1193,-6.1193,-6.1193,-6.1193,-6.1193,-6.1193,-6.1193,-6.1193,-6.1193,-6.1193,-6.1193,-6.1658,-6.2525,-6.3105,-6.3728,-6.4451,-6.4554,-6.4612,-6.4547,-6.4483,-6.4354,-6.4547,-6.474,-6.474,-6.4845,-6.4954,-6.4969,-6.4363,-6.3725,-6.3053,-6.2791,-6.2824,-6.2677,-6.2498,-6.3058,-6.3711,-7.8789,-7.8789,-7.8789,-7.8423,-7.775,-7.7356,-7.6637,-7.5773,-7.5216,-7.5069,-7.5098,-7.5098,-7.5243,-7.5475,-7.5621,-7.5621,-7.5621,-7.5563,-7.5621,-7.5563,-7.5563,-7.5592,-7.565,-7.5621,-7.5853,-7.5956,-7.6056,-7.6085,-7.6172,-7.6334,-7.6538,-7.6538,-7.6538,-7.6538,-7.6538,-7.6538,-7.6538,-7.6687,-7.7224,-7.7842,-7.8124,-7.7981,-7.7532,-7.6963,-7.6305,-7.5826,-7.5467,-7.5018,-7.4899,-7.4869,-7.4869,-7.4869,-7.4839,-7.4569,-7.3989,-7.2798,-7.2179,-7.1014,-6.969,-6.9379,-6.8973,-6.8479,-6.8044,-6.726,-6.6244,-6.5693,-6.5286,-6.4996,-6.4996,-6.4822,-6.4532,-6.4241,-6.3888,-6.3516,-6.3051,-6.2587,-6.2267,-6.1948,-6.1687,-6.1425,-6.1193,-6.1222,-6.1222,-6.1193,-6.1193,-6.1193,-6.1193,-6.1193,-6.1193,-6.1193,-6.189,-6.2848,-6.3312,-6.3685,-6.4473,-6.4996,-6.5094,-6.5124,-6.5378,-6.5314,-6.5314,-6.5441,-6.5314,-6.5378,-6.5543,-6.5525,-6.5477,-6.4917,-6.403,-6.3918,-6.3802,-6.3773,-6.377,-6.4245,-6.4841,-7.8789,-7.8789,-7.8789,-7.8572,-7.8209,-7.777,-7.7137,-7.6358,-7.5885,-7.5737,-7.5737,-7.5737,-7.6027,-7.6346,-7.645,-7.6392,-7.6479,-7.6538,-7.6538,-7.6538,-7.6538,-7.645,-7.6363,-7.645,-7.645,-7.6612,-7.66,-7.6704,-7.6778,-7.6808,-7.6733,-7.6538,-7.6538,-7.6538,-7.6538,-7.6538,-7.6612,-7.6957,-7.7475,-7.8106,-7.8495,-7.831,-7.8011,-7.7532,-7.6933,-7.6215,-7.5856,-7.5497,-7.5198,-7.4869,-7.4869,-7.4869,-7.4839,-7.4672,-7.4149,-7.327,-7.2826,-7.201,-7.0719,-6.9989,-6.9583,-6.9031,-6.8305,-6.7492,-6.6738,-6.6244,-6.5809,-6.5315,-6.5025,-6.5025,-6.4909,-6.4532,-6.4386,-6.4096,-6.3719,-6.3138,-6.2674,-6.247,-6.2151,-6.1774,-6.1542,-6.1338,-6.1309,-6.1222,-6.1193,-6.1193,-6.1193,-6.1193,-6.1253,-6.1224,-6.213,-6.3033,-6.3567,-6.4034,-6.491,-6.5504,-6.563,-6.5727,-6.5945,-6.6007,-6.5945,-6.5882,-6.5756,-6.5882,-6.6132,-6.6168,-6.6147,-6.5609,-6.5103,-6.5022,-6.5024,-6.5112,-6.5259,-6.5677,-6.5949,-7.8789,-7.8789,-7.8789,-7.8572,-7.8209,-7.777,-7.7372,-7.6914,-7.6571,-7.6392,-7.6288,-7.6375,-7.6421,-7.6538,-7.6538,-7.6538,-7.6538,-7.6538,-7.6538,-7.6538,-7.6538,-7.6538,-7.6538,-7.6612,-7.6762,-7.7015,-7.709,-7.7209,-7.7431,-7.7328,-7.7031,-7.6612,-7.6687,-7.6612,-7.6612,-7.6687,-7.6957,-7.7402,-7.7917,-7.8282,-7.8644,-7.8609,-7.84,-7.7951,-7.7652,-7.7143,-7.6036,-7.5886,-7.5557,-7.5078,-7.495,-7.483,-7.4761,-7.4525,-7.3991,-7.3584,-7.3205,-7.2514,-7.1581,-7.057,-6.9873,-6.9408,-6.8712,-6.7899,-6.7405,-6.6506,-6.6012,-6.5838,-6.546,-6.5141,-6.5054,-6.4909,-6.4764,-6.459,-6.4241,-6.3893,-6.3428,-6.3167,-6.279,-6.2238,-6.189,-6.1687,-6.1425,-6.1338,-6.1193,-6.1193,-6.1193,-6.1193,-6.1344,-6.1491,-6.2372,-6.3195,-6.373,-6.4529,-6.5588,-6.5945,-6.6007,-6.6103,-6.629,-6.629,-6.6257,-6.6195,-6.6444,-6.6444,-6.6629,-6.6753,-6.6816,-6.6428,-6.613,-6.6132,-6.6161,-6.6249,-6.6397,-6.6725,-6.6971,-7.8789,-7.8789,-7.8789,-7.8717,-7.8572,-7.8136,-7.777,-7.7357,-7.6986,-7.6687,-7.6538,-7.6538,-7.6538,-7.6538,-7.6538,-7.6538,-7.6538,-7.6538,-7.6538,-7.6538,-7.6538,-7.6612,-7.6762,-7.6911,-7.709,-7.7357,-7.7431,-7.7431,-7.7549,-7.7696,-7.7549,-7.7254,-7.718,-7.718,-7.7209,-7.7135,-7.7475,-7.7843,-7.8136,-7.8427,-7.8717,-7.8789,-7.8669,-7.846,-7.7921,-7.7652,-7.7083,-7.6664,-7.6125,-7.5607,-7.5319,-7.5011,-7.4575,-7.4238,-7.386,-7.351,-7.3269,-7.284,-7.2266,-7.1353,-7.0657,-6.9699,-6.8973,-6.8305,-6.8015,-6.7347,-6.6883,-6.6506,-6.5954,-6.5577,-6.5548,-6.5228,-6.4938,-6.4909,-6.4735,-6.4415,-6.4154,-6.3835,-6.3428,-6.2848,-6.2354,-6.1977,-6.1687,-6.1454,-6.1309,-6.1193,-6.1193,-6.1253,-6.1404,-6.1759,-6.2613,-6.344,-6.4094,-6.4864,-6.5929,-6.6198,-6.6411,-6.6568,-6.6723,-6.6785,-6.6876,-6.7243,-6.7426,-6.7304,-6.7243,-6.7365,-6.7396,-6.7246,-6.7185,-6.7094,-6.7213,-6.7303,-6.7541,-6.7747,-6.7754,-7.8933,-7.8789,-7.8789,-7.8789,-7.8717,-7.8354,-7.8063,-7.7696,-7.7312,-7.6866,-7.6538,-7.6538,-7.6538,-7.6538,-7.6538,-7.6538,-7.6538,-7.6538,-7.6538,-7.6538,-7.6687,-7.6866,-7.709,-7.7209,-7.7431,-7.7696,-7.777,-7.7843,-7.8063,-7.799,-7.799,-7.799,-7.7917,-7.7843,-7.7623,-7.777,-7.7917,-7.8136,-7.8354,-7.8499,-7.8789,-7.8789,-7.8789,-7.8699,-7.8196,-7.7766,-7.7396,-7.6938,-7.639,-7.5903,-7.5506,-7.5098,-7.4602,-7.4096,-7.3686,-7.3357,-7.3057,-7.2915,-7.2528,-7.1963,-7.1092,-6.9931,-6.9466,-6.8799,-6.8334,-6.8015,-6.7492,-6.7215,-6.6643,-6.6157,-6.6041,-6.5548,-6.517,-6.5083,-6.4967,-6.4706,-6.459,-6.4328,-6.3922,-6.3457,-6.3022,-6.2645,-6.1861,-6.1542,-6.1369,-6.1253,-6.1344,-6.1404,-6.1583,-6.2026,-6.2794,-6.3683,-6.4516,-6.5347,-6.6209,-6.6665,-6.7121,-6.7243,-6.7396,-6.7578,-6.7699,-6.803,-6.803,-6.7729,-6.7729,-6.797,-6.7969,-6.7788,-6.7908,-6.7998,-6.8057,-6.8054,-6.8144,-6.826,-6.8084,-7.9148,-7.8789,-7.8789,-7.8789,-7.8789,-7.8354,-7.8209,-7.8063,-7.7431,-7.6911,-7.6612,-7.6538,-7.6538,-7.6538,-7.6538,-7.6538,-7.6538,-7.6538,-7.6538,-7.6538,-7.6866,-7.7015,-7.7209,-7.7431,-7.777,-7.8136,-7.8209,-7.8354,-7.8644,-7.8572,-7.8644,-7.8644,-7.8499,-7.8354,-7.7696,-7.799,-7.8209,-7.8282,-7.8572,-7.8717,-7.8789,-7.8789,-7.8789,-7.8614,-7.8338,-7.7938,-7.7424,-7.7131,-7.6614,-7.604,-7.585,-7.5353,-7.4751,-7.429,-7.3813,-7.3303,-7.2873,-7.2702,-7.2573,-7.2021,-7.1278,-7.0221,-6.9844,-6.935,-6.8828,-6.8363,-6.7977,-6.7785,-6.7273,-6.668,-6.6273,-6.5867,-6.5519,-6.5286,-6.517,-6.4967,-6.4822,-6.4735,-6.4328,-6.4038,-6.3864,-6.3516,-6.2441,-6.1718,-6.1428,-6.1373,-6.1523,-6.1613,-6.1791,-6.2322,-6.3061,-6.41,-6.5024,-6.5952,-6.6823,-6.7457,-6.7879,-6.797,-6.7999,-6.8089,-6.8119,-6.8238,-6.8209,-6.809,-6.815,-6.8298,-6.8358,-6.8386,-6.8327,-6.8358,-6.8535,-6.8592,-6.8682,-6.8595,-6.8298,-7.9291,-7.9148,-7.8933,-7.8789,-7.8789,-7.8644,-7.8427,-7.8136,-7.7623,-7.7209,-7.6911,-7.6941,-7.6687,-7.6612,-7.6538,-7.6538,-7.6538,-7.6538,-7.6538,-7.6538,-7.6941,-7.7209,-7.7505,-7.7843,-7.8209,-7.8499,-7.8644,-7.8572,-7.8789,-7.8789,-7.8789,-7.8789,-7.8789,-7.8644,-7.8499,-7.8572,-7.8572,-7.8644,-7.8717,-7.8789,-7.8789,-7.8789,-7.8717,-7.8427,-7.8282,-7.7915,-7.7489,-7.724,-7.6842,-7.6298,-7.6138,-7.5669,-7.4981,-7.4429,-7.3776,-7.3397,-7.2979,-7.2773,-7.2915,-7.2695,-7.2245,-7.1232,-7.0319,-6.9854,-6.9398,-6.8818,-6.8615,-6.8374,-6.7919,-6.7501,-6.7289,-6.6331,-6.5838,-6.5635,-6.5431,-6.5112,-6.4909,-6.4938,-6.4764,-6.4532,-6.4357,-6.3731,-6.2803,-6.2487,-6.2255,-6.2023,-6.2143,-6.2086,-6.2204,-6.2675,-6.3381,-6.4572,-6.5648,-6.652,-6.7364,-6.7936,-6.8238,-6.8238,-6.8296,-6.8382,-6.8444,-6.8476,-6.8535,-6.8476,-6.8595,-6.8654,-6.8654,-6.8564,-6.8505,-6.8595,-6.8595,-6.8535,-6.8507,-6.8329,-6.803,-7.9647,-7.9363,-7.9148,-7.8933,-7.8789,-7.8789,-7.8572,-7.8209,-7.7917,-7.7652,-7.7283,-7.7164,-7.7015,-7.6716,-7.6538,-7.6538,-7.6538,-7.6538,-7.6687,-7.6687,-7.706,-7.7505,-7.7843,-7.8209,-7.8499,-7.8789,-7.8789,-7.8789,-7.8789,-7.8789,-7.8789,-7.8789,-7.8789,-7.8789,-7.8717,-7.8789,-7.8789,-7.8789,-7.8789,-7.8789,-7.8789,-7.8717,-7.8572,-7.8282,-7.8063,-7.7814,-7.7475,-7.7269,-7.7078,-7.6681,-7.6329,-7.5874,-7.5218,-7.4693,-7.414,-7.385,-7.35,-7.3278,-7.3357,-7.341,-7.2918,-7.2526,-7.1218,-7.0488,-7.0127,-6.9553,-6.9194,-6.8923,-6.8527,-6.8198,-6.782,-6.6738,-6.6542,-6.6338,-6.5844,-6.5525,-6.5449,-6.5449,-6.5314,-6.5076,-6.4935,-6.4217,-6.3549,-6.3317,-6.3174,-6.3029,-6.2824,-6.2795,-6.2822,-6.3322,-6.394,-6.5104,-6.6183,-6.7086,-6.7781,-6.8205,-6.8446,-6.8595,-6.8651,-6.8677,-6.8738,-6.8713,-6.883,-6.8889,-6.8861,-6.8802,-6.883,-6.8772,-6.8658,-6.8449,-6.8179,-6.8209,-6.824,-6.803,-6.7729,-8.0072,-7.9434,-7.9393,-7.9148,-7.8861,-7.8789,-7.8572,-7.8209,-7.8209,-7.799,-7.7623,-7.7283,-7.709,-7.7015,-7.6687,-7.6538,-7.6538,-7.6538,-7.6687,-7.7015,-7.7283,-7.7696,-7.8136,-7.8499,-7.8717,-7.8789,-7.8789,-7.8789,-7.8789,-7.8789,-7.8789,-7.8789,-7.8789,-7.8789,-7.8789,-7.8789,-7.8789,-7.8789,-7.8789,-7.8789,-7.8789,-7.8789,-7.8499,-7.8209,-7.7843,-7.7475,-7.7135,-7.6808,-7.6658,-7.6496,-7.645,-7.6102,-7.5737,-7.5534,-7.5069,-7.4635,-7.4225,-7.3985,-7.3809,-7.379,-7.3901,-7.3536,-7.2591,-7.1715,-7.0901,-7.0288,-6.9793,-6.9454,-6.9153,-6.869,-6.8148,-6.7895,-6.7604,-6.7109,-6.6526,-6.6271,-6.6201,-6.6095,-6.587,-6.5756,-6.579,-6.5326,-6.474,-6.4418,-6.4094,-6.401,-6.3832,-6.3743,-6.3859,-6.421,-6.4862,-6.573,-6.6752,-6.7622,-6.8227,-6.8679,-6.8858,-6.9065,-6.8948,-6.8945,-6.8948,-6.8948,-6.8889,-6.892,-6.8951,-6.8953,-6.902,-6.8932,-6.8784,-6.8514,-6.8425,-6.8001,-6.8153,-6.7729,-6.7426,-8.0352,-8.0142,-7.9647,-7.9291,-7.922,-7.8933,-7.8717,-7.8644,-7.8644,-7.8427,-7.799,-7.7623,-7.7357,-7.709,-7.6687,-7.6538,-7.6538,-7.6538,-7.6538,-7.6911,-7.7328,-7.7623,-7.799,-7.8427,-7.8717,-7.8789,-7.8789,-7.8789,-7.8789,-7.8789,-7.8789,-7.8789,-7.8789,-7.8789,-7.8789,-7.8789,-7.8789,-7.8789,-7.8789,-7.8789,-7.8789,-7.8789,-7.8427,-7.7917,-7.7696,-7.7283,-7.6762,-7.6612,-7.6538,-7.6538,-7.6538,-7.6288,-7.6259,-7.5737,-7.5172,-7.4357,-7.4164,-7.4185,-7.4148,-7.4209,-7.4248,-7.4367,-7.3721,-7.2752,-7.1837,-7.1036,-7.0384,-7.0052,-6.9758,-6.9332,-6.8994,-6.8789,-6.8554,-6.8144,-6.7588,-6.7213,-6.7142,-6.6883,-6.6627,-6.631,-6.6343,-6.605,-6.552,-6.5374,-6.5049,-6.4934,-6.4875,-6.4844,-6.4872,-6.5255,-6.5668,-6.645,-6.723,-6.8102,-6.8671,-6.9182,-6.9356,-6.9472,-6.9298,-6.9182,-6.9213,-6.9096,-6.8948,-6.9105,-6.9353,-6.9388,-6.9301,-6.9182,-6.9093,-6.9122,-6.8996,-6.8421,-6.7938,-6.7635,-6.7394,-8.0632,-8.0422,-7.986,-7.9434,-7.9148,-7.8933,-7.8789,-7.8789,-7.8789,-7.8644,-7.8354,-7.7843,-7.7475,-7.7209,-7.6762,-7.6538,-7.6538,-7.6538,-7.6612,-7.6911,-7.7328,-7.7696,-7.8063,-7.8427,-7.8717,-7.8789,-7.8789,-7.8789,-7.8789,-7.8789,-7.8789,-7.8789,-7.8789,-7.8789,-7.8789,-7.8789,-7.8789,-7.8789,-7.8789,-7.8789,-7.8789,-7.8644,-7.8136,-7.7696,-7.7549,-7.706,-7.6612,-7.6538,-7.6538,-7.6538,-7.6538,-7.6538,-7.6508,-7.6176,-7.6006,-7.5333,-7.5151,-7.5123,-7.5051,-7.4644,-7.4722,-7.471,-7.448,-7.3776,-7.2775,-7.1926,-7.1214,-7.0666,-7.0371,-7.0009,-6.9788,-6.9538,-6.9457,-6.928,-6.872,-6.8254,-6.7993,-6.7732,-6.7356,-6.6948,-6.6684,-6.6419,-6.6213,-6.6094,-6.6097,-6.61,-6.6162,-6.6342,-6.628,-6.6336,-6.6541,-6.6988,-6.7798,-6.8578,-6.9058,-6.9414,-6.953,-6.9588,-6.9414,-6.9387,-6.9418,-6.9522,-6.9564,-6.9722,-6.997,-6.9913,-6.9854,-6.9671,-6.9607,-6.9599,-6.9502,-6.8925,-6.8415,-6.7963,-6.7659,-8.091,-8.0562,-8.0041,-7.9475,-7.8861,-7.8789,-7.8789,-7.8789,-7.8717,-7.8717,-7.8572,-7.7917,-7.7549,-7.7283,-7.6837,-7.6538,-7.6538,-7.6538,-7.6612,-7.709,-7.7402,-7.7696,-7.8063,-7.8572,-7.8789,-7.8789,-7.8789,-7.8789,-7.8789,-7.8789,-7.8789,-7.8789,-7.8789,-7.8789,-7.8789,-7.8789,-7.8789,-7.8789,-7.8789,-7.8789,-7.8717,-7.8427,-7.799,-7.7623,-7.7283,-7.6941,-7.6612,-7.6538,-7.6538,-7.6538,-7.6538,-7.6538,-7.6583,-7.6778,-7.674,-7.6636,-7.6247,-7.5922,-7.5677,-7.5278,-7.495,-7.4929,-7.4839,-7.4548,-7.3732,-7.2626,-7.1852,-7.1182,-7.0796,-7.0426,-7.0242,-7.0147,-7.0058,-6.9939,-6.9613,-6.9233,-6.8971,-6.8589,-6.8028,-6.7585,-6.726,-6.6994,-6.6849,-6.6761,-6.6792,-6.6942,-6.7155,-6.7397,-6.7485,-6.7301,-6.7446,-6.762,-6.816,-6.8791,-6.9174,-6.9472,-6.9588,-6.9588,-6.9561,-6.9631,-6.9728,-6.9985,-7.0182,-7.0368,-7.0463,-7.0465,-7.0373,-7.0245,-7.0114,-6.9893,-6.9703,-6.9366,-6.8944,-6.8555,-6.8171,-8.1048,-8.084,-8.0182,-7.9475,-7.8861,-7.8789,-7.8789,-7.8789,-7.8427,-7.8354,-7.8209,-7.7843,-7.7431,-7.7209,-7.6762,-7.6538,-7.6538,-7.6538,-7.6538,-7.6837,-7.7254,-7.7623,-7.7917,-7.8427,-7.8717,-7.8789,-7.8789,-7.8789,-7.8789,-7.8789,-7.8789,-7.8789,-7.8789,-7.8789,-7.8789,-7.8789,-7.8789,-7.8789,-7.8789,-7.8789,-7.8717,-7.8427,-7.799,-7.7623,-7.7283,-7.6837,-7.6612,-7.6538,-7.6538,-7.6538,-7.6538,-7.6538,-7.6538,-7.6941,-7.699,-7.6827,-7.6864,-7.664,-7.6165,-7.5766,-7.5407,-7.5048,-7.4967,-7.5014,-7.4526,-7.3342,-7.244,-7.184,-7.1343,-7.1003,-7.0694,-7.0694,-7.0629,-7.0569,-7.048,-7.0187,-6.9923,-6.9359,-6.8764,-6.8375,-6.8019,-6.7723,-6.7576,-6.7456,-6.7548,-6.7638,-6.7759,-6.7909,-6.8028,-6.7993,-6.814,-6.8286,-6.8495,-6.8976,-6.9298,-6.9472,-6.9588,-6.9765,-6.9739,-6.9903,-7.0159,-7.0482,-7.0828,-7.083,-7.0924,-7.0923,-7.1009,-7.0996,-7.0833,-7.0427,-7.0239,-7.0021,-6.9991,-6.9722,-6.9103,-8.0979,-8.0701,-8.0001,-7.9363,-7.8861,-7.8789,-7.8717,-7.8499,-7.8282,-7.799,-7.7726,-7.7505,-7.7283,-7.7015,-7.6687,-7.6538,-7.6538,-7.6538,-7.6538,-7.6762,-7.706,-7.7431,-7.7873,-7.8282,-7.8572,-7.8717,-7.8789,-7.8789,-7.8789,-7.8789,-7.8789,-7.8789,-7.8789,-7.8789,-7.8789,-7.8789,-7.8789,-7.8789,-7.8789,-7.8789,-7.8717,-7.8282,-7.7917,-7.7579,-7.7135,-7.6762,-7.6612,-7.6538,-7.6538,-7.6538,-7.6538,-7.6538,-7.6687,-7.706,-7.721,-7.7224,-7.7305,-7.7289,-7.6743,-7.6245,-7.5826,-7.5476,-7.5164,-7.5278,-7.5196,-7.4174,-7.3677,-7.3068,-7.2409,-7.2043,-7.1556,-7.1401,-7.1401,-7.1341,-7.1311,-7.1194,-7.0893,-7.0441,-7.0082,-6.981,-6.9359,-6.8755,-6.8546,-6.8273,-6.8274,-6.791,-6.803,-6.827,-6.8388,-6.8505,-6.8713,-6.883,-6.8889,-6.9065,-6.9298,-6.9472,-6.9588,-6.9765,-6.989,-7.0497,-7.0882,-7.1165,-7.1444,-7.1568,-7.166,-7.153,-7.158,-7.1413,-7.1122,-7.0749,-7.0744,-7.0769,-7.0739,-7.056,-6.9913,-8.0618,-8.013,-7.9496,-7.9088,-7.8789,-7.8717,-7.8499,-7.8209,-7.8063,-7.7726,-7.7164,-7.709,-7.7015,-7.6866,-7.6687,-7.6612,-7.6538,-7.6538,-7.6538,-7.6612,-7.6941,-7.7283,-7.7652,-7.8063,-7.8427,-7.8717,-7.8789,-7.8789,-7.8789,-7.8789,-7.8789,-7.8789,-7.8789,-7.8789,-7.8789,-7.8789,-7.8789,-7.8789,-7.8789,-7.8789,-7.8499,-7.8063,-7.777,-7.7328,-7.6957,-7.6538,-7.6538,-7.6538,-7.6538,-7.6538,-7.6538,-7.6538,-7.6762,-7.7135,-7.7402,-7.7534,-7.7806,-7.7808,-7.7502,-7.6814,-7.6305,-7.5935,-7.5669,-7.5504,-7.5452,-7.5231,-7.4764,-7.4258,-7.3564,-7.2861,-7.2372,-7.2038,-7.2038,-7.2007,-7.1913,-7.1913,-7.1673,-7.14,-7.1188,-7.0945,-7.0398,-6.9761,-6.9458,-6.9245,-6.8941,-6.8515,-6.8391,-6.848,-6.8658,-6.8684,-6.883,-6.8889,-6.8889,-6.9065,-6.9298,-6.9414,-6.953,-6.9658,-6.988,-7.082,-7.1597,-7.1875,-7.2183,-7.2459,-7.2486,-7.2015,-7.1634,-7.1375,-7.1148,-7.0889,-7.0889,-7.0919,-7.0889,-7.0714,-7.0393,-7.939,-7.879,-7.865,-7.8637,-7.8729,-7.847,-7.8282,-7.8136,-7.7579,-7.7238,-7.6927,-7.6762,-7.6612,-7.6583,-7.6538,-7.6479,-7.6392,-7.6479,-7.6538,-7.6538,-7.6866,-7.7209,-7.7652,-7.8063,-7.8427,-7.8644,-7.8789,-7.8789,-7.8789,-7.8789,-7.8789,-7.8789,-7.8789,-7.8789,-7.8789,-7.8789,-7.8789,-7.8789,-7.8789,-7.8789,-7.8572,-7.8136,-7.7696,-7.7328,-7.6882,-7.6612,-7.6538,-7.6538,-7.6538,-7.6538,-7.6538,-7.6538,-7.6762,-7.7135,-7.7475,-7.777,-7.8086,-7.8238,-7.7831,-7.7442,-7.7034,-7.6533,-7.6327,-7.6206,-7.6227,-7.6227,-7.5846,-7.5426,-7.4626,-7.351,-7.2959,-7.2408,-7.2256,-7.2165,-7.2104,-7.2104,-7.1982,-7.183,-7.1709,-7.1404,-7.1102,-7.0616,-7.0343,-7.0251,-7.0251,-6.9852,-6.9514,-6.9603,-6.948,-6.9292,-6.9012,-6.9074,-6.9135,-6.8889,-6.9006,-6.9329,-6.9476,-6.9546,-6.9955,-7.11,-7.2028,-7.2522,-7.2829,-7.289,-7.2546,-7.201,-7.1722,-7.1371,-7.1113,-7.0889,-7.0889,-7.0919,-7.0889,-7.0649,-7.0239]}]]